[[{"header":{"parameterUnit":"m.s-1","parameterCategory":1,"la1":30.6,"la2":28.766,"lo1":-90.7593,"lo2":-88.6598,"dy":0.0162,"dx":0.0183,"nx":116,"ny":114,"refTime":"2023-10-27T06:00:00:Z","depth":0,"parameterNumber":2,"parameterNumberName":"U-component_of_WINDS"},"data":[0.0,0.0,0.0,0.0,0.0,0.0,0.0,0.0,0.0,0.0,0.0,0.0,0.0,0.0,0.0,0.0,0.0,0.0,0.0,0.0,0.0,0.0,0.0,0.0,0.0,0.0,0.0,0.0,0.0,0.0,0.0,0.0,0.0,0.0,0.0,0.0,0.0,0.0,0.0,0.0,0.0,0.0,0.0,0.0,0.0,0.0,0.0,0.0,0.0,0.0,0.0,0.0,0.0,0.0,0.0,0.0,0.0,0.0,0.0,0.0,0.0,0.0,0.0,0.0,0.0,0.0,0.0,0.0,0.0,0.0,0.0,0.0,0.0,0.0,0.0,0.0,0.0,0.0,0.0,0.0,0.0,0.0,0.0,0.0,0.0,0.0,0.0,0.0,0.0,0.0,0.0,0.0,0.0,0.0,0.0,0.0,0.0,0.0,0.0,0.0,0.0,0.0,0.0,0.0,0.0,0.0,0.0,0.0,0.0,0.0,0.0,0.0,0.0,0.0,0.0,0.0,0.0,0.0,0.0,0.0,0.0,0.0,0.0,0.0,0.0,0.0,0.0,0.0,0.0,0.0,0.0,0.0,0.0,0.0,0.0,0.0,0.0,0.0,0.0,0.0,0.0,0.0,0.0,0.0,0.0,0.0,0.0,0.0,0.0,0.0,0.0,0.0,0.0,0.0,0.0,0.0,0.0,0.0,0.0,0.0,0.0,0.0,0.0,0.0,0.0,0.0,0.0,0.0,0.0,0.0,0.0,0.0,0.0,0.0,0.0,0.0,0.0,0.0,0.0,0.0,0.0,0.0,0.0,0.0,0.0,0.0,0.0,0.0,0.0,0.0,0.0,0.0,0.0,0.0,0.0,0.0,0.0,0.0,0.0,0.0,0.0,0.0,0.0,0.0,0.0,0.0,0.0,0.0,0.0,0.0,0.0,0.0,0.0,0.0,0.0,0.0,0.0,0.0,0.0,0.0,0.0,0.0,0.0,0.0,0.0,0.0,0.0,0.0,0.0,0.0,0.0,0.0,0.0,0.0,0.0,0.0,0.0,0.0,0.0,0.0,0.0,0.0,0.0,0.0,0.0,0.0,0.0,0.0,0.0,0.0,0.0,0.0,0.0,0.0,0.0,0.0,0.0,0.0,0.0,0.0,0.0,0.0,0.0,0.0,0.0,0.0,0.0,0.0,0.0,0.0,0.0,0.0,0.0,0.0,0.0,0.0,0.0,0.0,0.0,0.0,0.0,0.0,0.0,0.0,0.0,0.0,0.0,0.0,0.0,0.0,0.0,0.0,0.0,0.0,0.0,0.0,0.0,0.0,0.0,0.0,0.0,0.0,0.0,0.0,0.0,0.0,0.0,0.0,0.0,0.0,0.0,0.0,0.0,0.0,0.0,0.0,0.0,0.0,0.0,0.0,0.0,0.0,0.0,0.0,0.0,0.0,0.0,0.0,0.0,0.0,0.0,0.0,0.0,0.0,0.0,0.0,0.0,0.0,0.0,0.0,0.0,0.0,0.0,0.0,0.0,0.0,0.0,0.0,0.0,0.0,0.0,0.0,0.0,0.0,0.0,0.0,0.0,0.0,0.0,0.0,0.0,0.0,0.0,0.0,0.0,0.0,0.0,0.0,0.0,0.0,0.0,0.0,0.0,0.0,0.0,0.0,0.0,0.0,0.0,0.0,0.0,0.0,0.0,0.0,0.0,0.0,0.0,0.0,0.0,0.0,0.0,0.0,0.0,0.0,0.0,0.0,0.0,0.0,0.0,0.0,0.0,0.0,0.0,0.0,0.0,0.0,0.0,0.0,0.0,0.0,0.0,0.0,0.0,0.0,0.0,0.0,0.0,0.0,0.0,0.0,0.0,0.0,0.0,0.0,0.0,0.0,0.0,0.0,0.0,0.0,0.0,0.0,0.0,0.0,0.0,0.0,0.0,0.0,0.0,0.0,0.0,0.0,0.0,0.0,0.0,0.0,0.0,0.0,0.0,0.0,0.0,0.0,0.0,0.0,0.0,0.0,0.0,0.0,0.0,0.0,0.0,0.0,0.0,0.0,0.0,0.0,0.0,0.0,0.0,0.0,0.0,0.0,0.0,0.0,0.0,0.0,0.0,0.0,0.0,0.0,0.0,0.0,0.0,0.0,0.0,0.0,0.0,0.0,0.0,0.0,0.0,0.0,0.0,0.0,0.0,0.0,0.0,0.0,0.0,0.0,0.0,0.0,0.0,0.0,0.0,0.0,0.0,0.0,0.0,0.0,0.0,0.0,0.0,0.0,0.0,0.0,0.0,0.0,0.0,0.0,0.0,0.0,0.0,0.0,0.0,0.0,0.0,0.0,0.0,0.0,0.0,0.0,0.0,0.0,0.0,0.0,0.0,0.0,0.0,0.0,0.0,0.0,0.0,0.0,0.0,0.0,0.0,0.0,0.0,0.0,0.0,0.0,0.0,0.0,0.0,0.0,0.0,0.0,0.0,0.0,0.0,0.0,0.0,0.0,0.0,0.0,0.0,0.0,0.0,0.0,0.0,0.0,0.0,0.0,0.0,0.0,0.0,0.0,0.0,0.0,0.0,0.0,0.0,0.0,0.0,0.0,0.0,0.0,0.0,0.0,0.0,0.0,0.0,0.0,0.0,0.0,0.0,0.0,0.0,0.0,0.0,0.0,0.0,0.0,0.0,0.0,0.0,0.0,0.0,0.0,0.0,0.0,0.0,0.0,0.0,0.0,0.0,0.0,0.0,0.0,0.0,0.0,0.0,0.0,0.0,0.0,0.0,0.0,0.0,0.0,0.0,0.0,0.0,0.0,0.0,0.0,0.0,0.0,0.0,0.0,0.0,0.0,0.0,0.0,0.0,0.0,0.0,0.0,0.0,0.0,0.0,0.0,0.0,0.0,0.0,0.0,0.0,0.0,0.0,0.0,0.0,0.0,0.0,0.0,0.0,0.0,0.0,0.0,0.0,0.0,0.0,0.0,0.0,0.0,0.0,0.0,0.0,0.0,0.0,0.0,0.0,0.0,0.0,0.0,0.0,0.0,0.0,0.0,0.0,0.0,0.0,0.0,0.0,0.0,0.0,0.0,0.0,0.0,0.0,0.0,0.0,0.0,0.0,0.0,0.0,0.0,0.0,0.0,0.0,0.0,0.0,0.0,0.0,0.0,0.0,0.0,0.0,0.0,0.0,0.0,0.0,0.0,0.0,0.0,0.0,0.0,0.0,0.0,0.0,0.0,0.0,0.0,0.0,0.0,0.0,0.0,0.0,0.0,0.0,0.0,0.0,0.0,0.0,0.0,0.0,0.0,0.0,0.0,0.0,0.0,0.0,0.0,0.0,0.0,0.0,0.0,0.0,0.0,0.0,0.0,0.0,0.0,0.0,0.0,0.0,0.0,0.0,0.0,0.0,0.0,0.0,0.0,0.0,0.0,0.0,0.0,0.0,0.0,0.0,0.0,0.0,0.0,0.0,0.0,0.0,0.0,0.0,0.0,0.0,0.0,0.0,0.0,0.0,0.0,0.0,0.0,0.0,0.0,0.0,0.0,0.0,0.0,0.0,0.0,0.0,0.0,0.0,0.0,0.0,0.0,0.0,0.0,0.0,0.0,0.0,0.0,0.0,0.0,0.0,0.0,0.0,0.0,0.0,0.0,0.0,0.0,0.0,0.0,0.0,0.0,0.0,0.0,0.0,0.0,0.0,0.0,0.0,0.0,0.0,0.0,0.0,0.0,0.0,0.0,0.0,0.0,0.0,0.0,0.0,0.0,0.0,0.0,0.0,0.0,0.0,0.0,0.0,0.0,0.0,0.0,0.0,0.0,0.0,0.0,0.0,0.0,0.0,0.0,0.0,0.0,0.0,0.0,0.0,0.0,0.0,0.0,0.0,0.0,0.0,0.0,0.0,0.0,0.0,0.0,0.0,0.0,0.0,0.0,0.0,0.0,0.0,0.0,0.0,0.0,0.0,0.0,0.0,0.0,0.0,0.0,0.0,0.0,0.0,0.0,0.0,0.0,0.0,0.0,0.0,0.0,0.0,0.0,0.0,0.0,0.0,0.0,0.0,0.0,0.0,0.0,0.0,0.0,0.0,0.0,0.0,0.0,0.0,0.0,0.0,0.0,0.0,0.0,0.0,0.0,0.0,0.0,0.0,0.0,0.0,0.0,0.0,0.0,0.0,0.0,0.0,0.0,0.0,0.0,0.0,0.0,0.0,0.0,0.0,0.0,0.0,0.0,0.0,0.0,0.0,0.0,0.0,0.0,0.0,0.0,0.0,0.0,0.0,0.0,0.0,0.0,0.0,0.0,0.0,0.0,0.0,0.0,0.0,0.0,0.0,0.0,0.0,0.0,0.0,0.0,0.0,0.0,0.0,0.0,0.0,0.0,0.0,0.0,0.0,0.0,0.0,0.0,0.0,0.0,0.0,0.0,0.0,0.0,0.0,0.0,0.0,0.0,0.0,0.0,0.0,0.0,0.0,0.0,0.0,0.0,0.0,0.0,0.0,0.0,0.0,0.0,0.0,0.0,0.0,0.0,0.0,0.0,0.0,0.0,0.0,0.0,0.0,0.0,0.0,0.0,0.0,0.0,0.0,0.0,0.0,0.0,0.0,0.0,0.0,0.0,0.0,0.0,0.0,0.0,0.0,0.0,0.0,0.0,0.0,0.0,0.0,0.0,0.0,0.0,0.0,0.0,0.0,0.0,0.0,0.0,0.0,0.0,0.0,0.0,0.0,0.0,0.0,0.0,0.0,0.0,0.0,0.0,0.0,0.0,0.0,0.0,0.0,0.0,0.0,0.0,0.0,0.0,0.0,0.0,0.0,0.0,0.0,0.0,0.0,0.0,0.0,0.0,0.0,0.0,0.0,0.0,0.0,0.0,0.0,0.0,0.0,0.0,0.0,0.0,0.0,0.0,0.0,0.0,0.0,0.0,0.0,0.0,0.0,0.0,0.0,0.0,0.0,0.0,0.0,0.0,0.0,0.0,0.0,0.0,0.0,0.0,0.0,0.0,0.0,0.0,0.0,0.0,0.0,0.0,0.0,0.0,0.0,0.0,0.0,0.0,0.0,0.0,0.0,0.0,0.0,0.0,0.0,0.0,0.0,0.0,0.0,0.0,0.0,0.0,0.0,0.0,0.0,0.0,0.0,0.0,0.0,0.0,0.0,0.0,0.0,0.0,0.0,0.0,0.0,0.0,0.0,0.0,0.0,0.0,0.0,0.0,0.0,0.0,0.0,0.0,0.0,0.0,0.0,0.0,0.0,0.0,0.0,0.0,0.0,0.0,0.0,0.0,0.0,0.0,0.0,0.0,0.0,0.0,0.0,0.0,0.0,0.0,0.0,0.0,0.0,0.0,0.0,0.0,0.0,0.0,0.0,0.0,0.0,0.0,0.0,0.0,0.0,0.0,0.0,0.0,0.0,0.0,0.0,0.0,0.0,0.0,0.0,0.0,0.0,0.0,0.0,0.0,0.0,0.0,0.0,0.0,0.0,0.0,0.0,0.0,0.0,0.0,0.0,0.0,0.0,0.0,0.0,0.0,0.0,0.0,0.0,0.0,0.0,0.0,0.0,0.0,0.0,0.0,0.0,0.0,0.0,0.0,0.0,0.0,0.0,0.0,0.0,0.0,0.0,0.0,0.0,0.0,0.0,0.0,0.0,0.0,0.0,0.0,0.0,0.0,0.0,0.0,0.0,0.0,0.0,0.0,0.0,0.0,0.0,0.0,0.0,0.0,0.0,0.0,0.0,0.0,0.0,0.0,0.0,0.0,0.0,0.0,0.0,0.0,0.0,0.0,0.0,0.0,0.0,0.0,0.0,0.0,0.0,0.0,0.0,0.0,0.0,0.0,0.0,0.0,0.0,0.0,0.0,0.0,0.0,0.0,0.0,0.0,0.0,0.0,0.0,0.0,0.0,0.0,0.0,0.0,0.0,0.0,0.0,0.0,0.0,0.0,0.0,0.0,0.0,0.0,0.0,0.0,0.0,0.0,0.0,0.0,0.0,0.0,0.0,0.0,0.0,0.0,0.0,0.0,0.0,0.0,0.0,0.0,0.0,0.0,0.0,0.0,0.0,0.0,0.0,0.0,0.0,0.0,0.0,0.0,-3.8231,-3.8056,0.0,0.0,0.0,0.0,0.0,0.0,0.0,0.0,0.0,0.0,0.0,0.0,0.0,0.0,0.0,0.0,0.0,0.0,0.0,0.0,0.0,0.0,0.0,0.0,0.0,0.0,0.0,0.0,0.0,0.0,0.0,0.0,0.0,0.0,0.0,0.0,0.0,-2.5752,-2.707,-2.7739,-2.7792,-2.8853,-2.9892,-3.0886,0.0,0.0,0.0,0.0,0.0,0.0,0.0,0.0,0.0,0.0,0.0,0.0,0.0,0.0,0.0,0.0,0.0,0.0,0.0,0.0,0.0,0.0,0.0,0.0,0.0,0.0,0.0,0.0,0.0,0.0,0.0,0.0,0.0,0.0,0.0,0.0,0.0,0.0,0.0,0.0,0.0,0.0,0.0,0.0,0.0,0.0,0.0,0.0,0.0,0.0,0.0,0.0,0.0,0.0,0.0,0.0,0.0,0.0,0.0,0.0,0.0,0.0,0.0,0.0,0.0,0.0,0.0,0.0,0.0,0.0,-3.8335,-3.8442,0.0,0.0,0.0,0.0,0.0,0.0,0.0,0.0,0.0,0.0,0.0,0.0,0.0,0.0,0.0,0.0,0.0,0.0,0.0,0.0,0.0,0.0,0.0,-2.4047,-2.5177,-2.5692,-2.6188,-2.652,0.0,0.0,0.0,0.0,0.0,0.0,0.0,-2.5814,-2.6063,-2.6132,-2.6905,-2.7805,-2.8759,-2.8658,-2.9237,-3.0442,-3.2232,0.0,0.0,0.0,0.0,0.0,0.0,0.0,0.0,0.0,0.0,0.0,0.0,0.0,0.0,0.0,0.0,0.0,0.0,0.0,0.0,0.0,0.0,0.0,0.0,0.0,0.0,0.0,0.0,0.0,0.0,0.0,0.0,0.0,0.0,0.0,0.0,0.0,0.0,0.0,0.0,0.0,0.0,0.0,0.0,0.0,0.0,0.0,0.0,0.0,0.0,0.0,0.0,0.0,0.0,0.0,0.0,0.0,0.0,0.0,0.0,0.0,0.0,0.0,-3.9445,-3.9423,-3.8937,-3.9336,-3.9468,-3.9295,-3.8318,-3.8606,-3.968,-3.9301,0.0,0.0,0.0,0.0,0.0,0.0,0.0,0.0,0.0,0.0,0.0,0.0,0.0,0.0,0.0,0.0,0.0,0.0,0.0,0.0,0.0,-2.323,-2.446,-2.5826,-2.5665,-2.5732,-2.6291,0.0,0.0,0.0,0.0,0.0,-2.5233,-2.5524,-2.5831,-2.6206,-2.7202,-2.8338,-2.948,-3.031,-3.0808,-3.0951,-3.0573,-3.0806,-3.1484,0.0,0.0,0.0,0.0,0.0,0.0,0.0,0.0,0.0,0.0,0.0,0.0,0.0,0.0,0.0,0.0,0.0,0.0,0.0,0.0,0.0,0.0,0.0,0.0,0.0,0.0,0.0,0.0,0.0,0.0,0.0,0.0,0.0,0.0,0.0,0.0,0.0,0.0,0.0,0.0,0.0,-3.2396,-3.3125,0.0,0.0,0.0,0.0,0.0,0.0,0.0,0.0,0.0,0.0,0.0,0.0,0.0,-3.9352,-3.9434,-4.0181,-4.0588,-4.0601,-4.0374,-4.0221,-4.014,-3.9289,-3.9293,-3.9813,-3.8542,0.0,-3.9229,-3.8793,0.0,0.0,0.0,0.0,0.0,0.0,0.0,0.0,0.0,0.0,0.0,0.0,0.0,0.0,0.0,0.0,0.0,0.0,0.0,0.0,0.0,-2.311,-2.4447,-2.5578,-2.5904,-2.5942,-2.5758,-2.5081,0.0,0.0,0.0,-2.4085,-2.4402,-2.4308,-2.4394,-2.4671,-2.5493,-2.6722,-2.8244,-2.83,-2.9111,-3.0633,-3.0323,-3.09,-3.2034,-3.1692,0.0,0.0,0.0,0.0,0.0,0.0,0.0,0.0,0.0,0.0,0.0,0.0,0.0,0.0,0.0,0.0,0.0,0.0,0.0,0.0,0.0,0.0,0.0,0.0,0.0,0.0,0.0,0.0,0.0,0.0,0.0,0.0,0.0,0.0,0.0,0.0,0.0,0.0,0.0,-3.1633,-3.3077,-3.285,-3.3758,-3.3998,0.0,0.0,0.0,0.0,0.0,0.0,0.0,0.0,0.0,-3.7691,-3.8885,-3.9593,-3.9839,-4.0325,-4.0521,-4.0374,-4.0248,-4.0023,-3.9754,-3.9263,-3.9312,-3.979,-3.9057,-3.8944,-3.9189,-3.8634,-3.854,-3.8672,0.0,0.0,0.0,0.0,-3.6902,-3.6311,0.0,0.0,0.0,0.0,0.0,0.0,0.0,0.0,0.0,0.0,0.0,0.0,-2.1099,-2.2774,-2.411,-2.5071,-2.5472,-2.5477,-2.4937,-2.4169,-2.3738,-2.3806,-2.3319,-2.3221,-2.357,-2.3538,-2.3631,-2.3874,-2.4443,-2.5525,-2.706,-2.6519,-2.7495,-2.9699,-2.9908,-3.0941,-3.2521,-3.2169,-3.1118,-2.9488,0.0,0.0,0.0,0.0,0.0,0.0,0.0,0.0,0.0,0.0,0.0,0.0,0.0,0.0,0.0,0.0,0.0,0.0,0.0,0.0,0.0,0.0,0.0,0.0,0.0,0.0,0.0,0.0,0.0,0.0,0.0,0.0,0.0,0.0,0.0,0.0,0.0,-3.2455,-3.3794,-3.2936,-3.4126,-3.4339,0.0,0.0,0.0,0.0,0.0,0.0,-3.5409,-3.6457,-3.7151,-3.7431,-3.8218,-3.8806,-3.9085,-3.9316,-3.9359,-3.9171,-3.9006,-3.8788,-3.8466,-3.8244,-3.8311,-3.8526,-3.8169,-3.8056,-3.804,-3.8111,-3.8221,-3.8319,-3.7354,-3.6808,-3.6576,-3.6668,-3.594,-3.4959,0.0,0.0,0.0,0.0,0.0,0.0,0.0,0.0,0.0,0.0,0.0,-1.86,-2.028,-2.1671,-2.3008,-2.4353,-2.3743,-2.3473,-2.3857,-2.2082,-2.1362,-2.2193,-2.1575,-2.1818,-2.3014,-2.3881,-2.4493,-2.4835,-2.5354,-2.5981,-2.6623,-2.6727,-2.7236,-2.8143,-2.8666,-3.026,-3.2581,-3.2109,-3.1381,-3.0383,-2.8852,0.0,0.0,0.0,0.0,0.0,0.0,0.0,0.0,0.0,0.0,0.0,0.0,0.0,0.0,0.0,0.0,0.0,0.0,0.0,0.0,0.0,0.0,0.0,0.0,0.0,0.0,0.0,0.0,0.0,0.0,0.0,0.0,0.0,0.0,0.0,0.0,0.0,0.0,-3.4059,-3.4616,0.0,0.0,0.0,0.0,-3.0186,-3.1506,-3.252,-3.2943,-3.3945,-3.4644,-3.5073,-3.6107,-3.6633,-3.6688,-3.6839,-3.6909,-3.6876,-3.6435,-3.6192,-3.6126,-3.5639,-3.543,-3.5375,-3.4867,-3.4659,-3.4803,-3.6835,-3.8087,-3.8663,-3.7534,-3.6553,-3.571,-3.5485,-3.422,-3.2599,0.0,0.0,0.0,0.0,0.0,0.0,0.0,0.0,-1.5224,-1.5659,-1.6366,-1.7369,-1.8763,-1.9419,-2.0228,-2.1353,-2.0926,-2.0517,-2.0271,-1.9206,-1.898,-1.9983,-1.9276,-1.9582,-2.1164,-2.166,-2.2128,-2.2653,-2.2599,-2.3262,-2.4598,-2.4522,-2.5332,-2.6936,-2.7234,-2.843,-3.0203,-3.103,-3.1409,-3.1332,-2.9673,-2.8563,0.0,0.0,0.0,0.0,0.0,0.0,0.0,0.0,0.0,0.0,0.0,0.0,0.0,0.0,0.0,0.0,0.0,0.0,0.0,0.0,0.0,0.0,0.0,0.0,0.0,0.0,0.0,0.0,0.0,0.0,0.0,0.0,0.0,0.0,0.0,0.0,0.0,-3.2932,-3.4318,0.0,-3.202,-3.1914,-3.1809,-3.145,-3.2668,-3.3393,-3.3308,-3.4604,-3.5283,-3.51,-3.579,-3.6187,-3.6187,-3.595,-3.5804,-3.5576,-3.4978,-3.4582,-3.4449,-3.4065,-3.4153,-3.4494,-3.3754,-3.3765,-3.4295,-3.4811,-3.5416,-3.5892,-3.5121,-3.4456,-3.3919,-3.3451,-3.2706,-3.1884,0.0,0.0,0.0,0.0,0.0,0.0,0.0,0.0,-1.4247,-1.4794,-1.5377,-1.6221,-1.7475,-1.7949,-1.8486,-1.931,-1.8915,-1.8442,-1.8077,-1.7375,-1.7326,-1.8092,-1.7735,-1.8042,-1.9184,-1.9492,-1.9989,-2.0708,-2.0346,-2.096,-2.2488,-2.2207,-2.3073,-2.4925,-2.537,-2.6487,-2.8106,-2.955,-3.0452,-3.0778,-2.9884,-2.9184,-2.8465,0.0,0.0,0.0,0.0,0.0,0.0,0.0,0.0,0.0,0.0,0.0,0.0,0.0,0.0,0.0,0.0,0.0,0.0,0.0,0.0,0.0,0.0,0.0,0.0,0.0,0.0,0.0,0.0,0.0,0.0,0.0,0.0,0.0,0.0,0.0,-3.326,-3.221,-3.3944,-3.4351,-3.2205,-3.2145,-3.2146,-3.1795,-3.2654,-3.3146,-3.2924,-3.3896,-3.4347,-3.4032,-3.41,-3.4173,-3.4173,-3.3623,-3.3275,-3.3096,-3.2464,-3.2096,-3.1963,-3.1599,-3.1748,-3.2252,-3.1413,-3.1476,-3.2029,-3.1667,-3.1749,-3.2154,-3.3074,-3.2954,-3.218,-3.1815,-3.1199,-3.0484,0.0,0.0,0.0,0.0,0.0,0.0,0.0,-1.2775,-1.278,-1.3805,-1.4456,-1.5274,-1.65,-1.729,-1.7925,-1.839,-1.7763,-1.7345,-1.7353,-1.6605,-1.6277,-1.653,-1.7064,-1.735,-1.7308,-1.7679,-1.8297,-1.9253,-1.8954,-1.9323,-2.0364,-1.9998,-2.0581,-2.2041,-2.2945,-2.4489,-2.6465,-2.7657,-2.8307,-2.8578,-2.9439,-2.9153,-2.8213,0.0,0.0,0.0,0.0,0.0,0.0,0.0,0.0,0.0,0.0,0.0,0.0,0.0,0.0,0.0,0.0,0.0,0.0,0.0,0.0,0.0,0.0,0.0,0.0,0.0,0.0,0.0,0.0,0.0,0.0,0.0,0.0,0.0,-2.9193,-3.2178,-3.3704,-3.2077,-3.3527,-3.3782,-3.1691,-3.1494,-3.1348,-3.0898,-3.1289,-3.1523,-3.1475,-3.1593,-3.1642,-3.1623,-3.0898,-3.0559,-3.0559,-2.9734,-2.9365,-2.9355,-2.8871,-2.8652,-2.8633,-2.8235,-2.8174,-2.8394,-2.7708,-2.759,-2.7833,-2.7599,-2.7492,-2.7837,-3.1571,-3.2019,-3.0606,-3.0606,-2.9604,-2.8247,0.0,0.0,0.0,0.0,0.0,0.0,-1.2112,-1.2086,-1.2369,-1.3049,-1.315,-1.3587,-1.4764,-1.4432,-1.4425,-1.5146,-1.4293,-1.3796,-1.4001,-1.3766,-1.4022,-1.4903,-1.6202,-1.6954,-1.7153,-1.6915,-1.7128,-1.7834,-1.7109,-1.6976,-1.7445,-1.7473,-1.8206,-1.9528,-2.0296,-2.1854,-2.388,-2.4654,-2.5405,-2.6218,-2.8331,-2.8889,-2.8457,0.0,0.0,0.0,0.0,0.0,0.0,0.0,0.0,0.0,0.0,0.0,0.0,0.0,0.0,0.0,0.0,0.0,0.0,0.0,0.0,0.0,0.0,0.0,0.0,0.0,0.0,0.0,0.0,0.0,0.0,0.0,0.0,-2.9157,-2.9674,-3.0967,-3.1903,-3.2113,-3.2554,-3.2684,-3.2067,-3.2007,-3.1543,-3.0469,-3.1149,-3.1223,-3.0345,-3.0409,-3.0317,-2.9993,-2.9459,-2.9241,-2.9241,-2.8719,-2.8311,-2.8007,-2.7536,-2.7166,-2.6907,-2.6793,-2.6969,-2.7269,-2.6494,-2.6513,-2.716,-2.6741,-2.6755,-2.714,-2.872,-2.8883,-2.8252,-2.8463,-2.8133,-2.7592,0.0,0.0,0.0,0.0,0.0,0.0,-1.1413,-1.1472,-1.1703,-1.2248,-1.2286,-1.2525,-1.3312,-1.2723,-1.2431,-1.278,-1.2153,-1.171,-1.1717,-1.1985,-1.2478,-1.3148,-1.4472,-1.5157,-1.5105,-1.4798,-1.4934,-1.5654,-1.5179,-1.5286,-1.5907,-1.619,-1.6894,-1.791,-1.8486,-1.9615,-2.1112,-2.2153,-2.3066,-2.3917,-2.6126,-2.7608,-2.8545,-2.8342,-2.8407,-2.8552,-2.8094,-2.8223,-2.8573,-2.826,0.0,0.0,0.0,0.0,0.0,0.0,0.0,0.0,0.0,0.0,0.0,0.0,0.0,0.0,0.0,0.0,0.0,0.0,0.0,0.0,0.0,0.0,0.0,0.0,-2.838,-2.9347,-2.985,-3.0668,-3.1269,-3.1592,-3.2013,-3.2031,-3.167,-3.1501,-3.1044,-3.0111,-3.0286,-3.0111,-2.9365,-2.9278,-2.9124,-2.886,-2.8342,-2.808,-2.808,-2.7678,-2.7266,-2.6854,-2.6611,-2.6222,-2.5872,-2.5694,-2.5802,-2.6074,-2.5333,-2.5417,-2.6083,-2.5577,-2.5385,-2.5571,0.0,0.0,0.0,0.0,-2.6956,-2.6779,0.0,0.0,0.0,0.0,0.0,0.0,-1.1085,-1.0941,-1.1033,-1.1537,-1.1733,-1.1916,-1.2194,-1.1875,-1.1512,-1.1221,-1.0982,-1.0744,-1.0433,-1.118,-1.1622,-1.1624,-1.2529,-1.2871,-1.2415,-1.2226,-1.253,-1.3292,-1.3374,-1.386,-1.4841,-1.5221,-1.5839,-1.6572,-1.702,-1.7667,-1.8535,-2.0061,-2.1101,-2.1805,-2.3401,-2.5668,-2.8126,-2.8344,-2.8946,-2.9522,-2.8311,-2.8184,-2.8557,-2.8403,0.0,0.0,0.0,0.0,0.0,0.0,0.0,0.0,0.0,0.0,0.0,0.0,0.0,0.0,0.0,0.0,0.0,0.0,0.0,0.0,0.0,0.0,0.0,0.0,-2.8203,-2.8868,-2.9536,-3.0374,-3.0925,-3.0918,-3.1505,-3.1592,-3.0879,-3.0461,-3.0016,-2.9661,-2.9031,-2.8587,-2.8371,-2.8088,0.0,0.0,0.0,-2.6761,-2.6938,-2.6591,-2.6235,-2.5947,-2.5779,-2.5498,-2.506,-2.4561,-2.4481,-2.4578,-2.404,-2.4136,-2.4569,-2.4031,-2.3662,-2.3561,-2.5454,-2.6296,-2.6407,-2.6027,-2.5904,-2.59,0.0,0.0,0.0,0.0,0.0,0.0,-1.073,-1.0666,-1.0877,-1.1512,-1.1396,-1.1379,-1.1781,-1.1554,-1.1169,-1.0605,-1.0651,-1.0841,-1.1235,-1.1467,-1.1677,-1.1827,-1.2485,-1.2734,-1.2512,-1.2406,-1.2409,-1.2574,-1.1866,-1.1613,-1.1816,-1.194,-1.2599,-1.3809,-1.4586,-1.5804,-1.7352,-1.8181,-1.9377,-2.0804,-2.149,-2.3326,-2.5867,-2.7006,-2.7772,-2.8227,-2.8397,-2.8987,-2.9521,-2.8495,-2.8315,-2.8388,-2.7831,-2.7152,0.0,0.0,0.0,0.0,0.0,0.0,0.0,0.0,0.0,0.0,0.0,0.0,0.0,0.0,0.0,0.0,0.0,0.0,0.0,-2.5819,-2.6427,-2.705,-2.7514,-2.7496,-2.835,-3.0799,-3.046,-3.0137,-3.0312,-2.9565,-2.8851,-2.8442,-2.8371,-2.7722,-2.6418,-2.6061,-2.5494,-2.4507,-2.4047,-2.4267,-2.5223,-2.5218,-2.527,-2.5482,-2.4606,0.0,-2.3054,-2.2096,-2.1706,-2.1689,-2.1573,-2.1581,-2.1689,-2.1573,-2.1691,-2.1978,-2.2463,-2.3375,-2.4253,-2.3969,-2.4548,-2.536,0.0,0.0,0.0,0.0,0.0,0.0,-1.0174,-1.0168,-1.0274,-1.0444,-1.0178,-1.0109,-1.0495,-1.0024,-0.9558,-0.9176,-0.9258,-0.9767,-1.0792,-1.0474,-1.041,-1.0754,-1.0577,-1.039,-1.0168,-1.0598,-1.0754,-1.0671,-1.09,-1.0982,-1.0988,-1.1101,-1.1506,-1.2182,-1.2585,-1.343,-1.4568,-1.5662,-1.6862,-1.8198,-1.942,-2.116,-2.3223,-2.5073,-2.6488,-2.7409,-2.7713,-2.8249,-2.8809,-2.8681,-2.8559,-2.854,-2.8415,-2.7845,-2.7079,0.0,0.0,0.0,0.0,0.0,0.0,0.0,0.0,0.0,0.0,0.0,0.0,0.0,0.0,-2.4594,0.0,0.0,-2.5271,-2.5565,-2.601,-2.6272,-2.6016,-2.6039,-2.6685,-2.8081,-2.7877,-2.7448,-2.7069,-2.659,-2.6157,-2.5778,-2.5665,-2.5249,-2.4434,-2.4257,-2.3918,-2.3342,-2.3118,-2.3231,-2.3662,-2.3662,-2.3561,-2.3461,-2.2869,-2.2272,-2.1658,-2.114,-2.0885,-2.0885,-2.0885,-2.1032,-2.1155,-2.0761,-2.062,-2.0551,-2.003,-2.0965,-2.2602,-2.2476,-2.2705,-2.3061,0.0,0.0,0.0,0.0,0.0,0.0,0.0,-0.9805,-0.9738,-0.9425,-0.9066,-0.8902,-0.9176,-0.8569,-0.8021,-0.7775,-0.7986,-0.865,-0.9867,-0.9316,-0.9112,-0.9427,-0.8665,-0.8012,-0.7667,-0.8512,-0.8838,-0.8623,-0.9716,-1.0259,-1.0173,-1.0345,-1.056,-1.0823,-1.0869,-1.1278,-1.208,-1.3322,-1.4504,-1.5639,-1.7355,-1.8981,-2.0632,-2.2676,-2.4763,-2.6625,-2.68,-2.7085,-2.7584,-2.8416,-2.8421,-2.8164,-2.8349,-2.7981,-2.7183,-2.6232,-2.6333,0.0,0.0,0.0,0.0,0.0,0.0,0.0,0.0,0.0,-2.3852,-2.3791,-2.3709,-2.3778,-2.4258,-2.4236,-2.4283,-2.4738,-2.5011,-2.4886,-2.4288,-2.4515,-2.4636,-2.4423,-2.492,-2.4874,-2.388,-2.3804,-2.3691,-2.3359,-2.3135,-2.2926,-2.2636,-2.2573,-2.243,-2.2204,-2.2143,-2.2085,-2.208,-2.2073,-2.1867,-2.1498,-2.1288,-2.095,-2.057,-2.0364,-2.0261,-2.0261,-2.0261,-2.0416,-2.0685,-2.0016,-1.9596,-1.9205,-1.8265,-1.9106,-2.0767,-2.0977,-2.0972,-2.0782,0.0,0.0,0.0,0.0,0.0,0.0,0.0,0.0,-0.9933,-0.976,-0.92,-0.8689,-0.8446,-0.8336,-0.7984,-0.7243,-0.7927,-0.856,-0.901,-0.9126,-0.9063,-0.8916,-0.8436,-0.787,-0.7197,-0.7698,-0.7863,-0.7647,-0.7638,-0.7521,-0.7257,-0.7311,-0.7951,-0.9183,-0.9368,-1.0404,-1.202,-1.2201,-1.3219,-1.4771,-1.5484,-1.6899,-1.8683,-1.9687,-2.2192,-2.5307,-2.6009,-2.6391,-2.6592,-2.7063,-2.718,-2.6958,-2.5989,-2.5965,-2.6053,-2.439,-2.3839,-2.3613,-2.2928,-2.2362,-2.229,-2.3305,-2.2859,-2.2613,0.0,0.0,-2.5048,-2.5332,-2.5756,-2.5352,-2.3145,-2.296,-2.2687,-2.1156,-2.0951,-2.114,-2.1525,-2.1219,-2.0888,-2.0857,-2.2738,-2.3968,-2.383,-2.3384,-2.307,-2.303,-2.303,-2.2531,-2.146,-2.1121,-2.0469,-1.9419,-1.9103,-1.9492,-2.054,-2.054,-2.0887,-2.1498,-2.0491,-1.9791,-1.9383,-1.8408,-1.7996,-1.7996,-1.7996,-1.8016,-1.8051,-1.7926,-1.7874,-1.784,-1.7682,-1.7787,-1.8149,-1.913,-1.9895,-2.0466,0.0,0.0,0.0,0.0,0.0,0.0,0.0,0.0,0.0,-0.8881,-0.8312,-0.7749,-0.7151,-0.6792,-0.6529,-0.6319,-0.6737,-0.727,-0.7869,-0.7313,-0.7096,-0.7279,-0.6162,-0.5452,-0.523,-0.5974,-0.6369,-0.6454,-0.6927,-0.7161,-0.7198,-0.7599,-0.8123,-0.8685,-0.9378,-1.0371,-1.1591,-1.1745,-1.2651,-1.4014,-1.4564,-1.5697,-1.7163,-1.769,-1.9349,-2.1545,-2.3053,-2.4102,0.0,-2.4563,-2.4569,-2.4529,-2.3745,-2.3601,-2.342,-2.1901,-2.1883,-2.2268,-2.1852,-2.1415,0.0,0.0,-2.208,-2.2148,-2.3304,-2.3117,-2.2791,-2.3026,-2.2946,-2.2542,-2.1446,-2.1494,-2.1314,0.0,-2.0312,-2.0361,-1.9908,-1.9798,-1.9605,-1.9287,-2.028,-2.1023,-2.1209,-2.0885,-2.0614,-2.0614,-2.0448,-2.0179,-1.9682,-1.9508,-1.9215,-1.8671,-1.8557,-1.8624,-1.8979,-1.8979,-1.9027,-1.9223,-1.8749,-1.8422,-1.8251,-1.7786,-1.7582,-1.7582,-1.7582,-1.7582,-1.7582,-1.7582,-1.7536,-1.7378,-1.7529,-1.7483,-1.7411,-1.785,-1.8263,-1.8528,0.0,0.0,0.0,0.0,0.0,0.0,0.0,0.0,0.0,0.0,-0.7926,-0.7223,-0.6309,-0.5813,-0.5553,-0.5545,-0.5941,-0.6377,-0.6838,-0.6033,-0.5729,-0.6062,-0.4671,-0.3912,-0.3935,-0.4692,-0.5121,-0.5223,-0.5974,-0.6372,-0.6505,-0.7082,-0.7614,-0.8145,-0.8945,-1.0099,-1.1542,-1.1785,-1.262,-1.3779,-1.4389,-1.5046,-1.5748,-1.624,-1.705,-1.815,-2.0272,-2.1605,-2.2227,-2.194,-2.1858,-2.1749,-2.1229,-2.1036,-2.0746,-1.9468,-1.9732,-2.0503,-2.0732,0.0,0.0,-2.11,-2.1387,-2.1522,-2.19,-2.147,-2.1031,-2.1074,-2.0743,-2.0344,-2.0086,-2.0227,-2.0193,-1.9529,-1.9703,-1.9716,-1.8971,-1.8893,-1.8884,-1.8758,-1.8854,-1.9034,-1.9359,-1.9172,-1.8978,-1.8818,-1.8684,-1.8577,-1.8497,-1.841,-1.837,-1.837,-1.8283,-1.8136,-1.7869,-1.7862,-1.7802,-1.7582,-1.7582,-1.7582,-1.7483,-1.7483,-1.7437,-1.7364,-1.7443,-1.743,-1.7371,-1.7371,-1.7272,-1.7219,-1.7292,-1.7311,-1.7167,-1.6996,-1.7012,-1.7032,0.0,0.0,0.0,0.0,0.0,0.0,0.0,0.0,0.0,0.0,0.0,0.0,0.0,-0.6017,-0.5683,-0.5147,-0.6076,-0.6487,-0.6085,-0.5983,-0.5952,-0.5821,-0.5034,-0.4428,-0.4108,-0.4292,-0.4253,-0.3946,-0.4255,-0.4255,-0.4036,-0.43,-0.5406,-0.7173,-0.7372,-0.9208,-1.2089,-1.2269,-1.3123,-1.434,-1.5143,-1.4998,-1.4443,-1.5236,-1.5611,-1.6012,-1.8558,-1.9117,-1.8756,-1.9519,-1.9348,-1.8756,-1.8216,-1.8356,-1.8466,-1.7402,-1.722,-1.7671,-1.9082,0.0,-1.8706,-2.0575,-2.0684,-2.0442,-2.0751,-2.1047,-2.1121,-2.0854,-2.0798,-2.0527,-1.9582,-1.943,-1.9233,-1.8531,-1.8263,-1.8288,-1.8829,-1.8392,-1.8367,-1.9272,-1.9098,-1.9052,0.0,-1.9417,-1.9118,-1.8544,-1.8758,-1.8784,-1.8504,-1.8217,-1.8009,-1.8009,-1.7769,-1.7602,-1.7595,-1.7595,-1.7595,-1.7582,-1.7582,-1.7483,-1.7226,-1.7226,-1.7023,-1.6775,-1.7055,-1.7008,-1.673,-1.673,-1.6895,-1.7147,-1.6866,-1.691,-1.7146,-1.6563,-1.648,-1.668,0.0,0.0,0.0,0.0,0.0,0.0,0.0,0.0,0.0,0.0,0.0,0.0,0.0,0.0,0.0,0.0,-0.5323,-0.5408,-0.5288,-0.5024,-0.4954,-0.5071,-0.4493,-0.4133,-0.4146,-0.3862,-0.385,-0.4107,-0.3961,-0.4055,-0.439,-0.5148,-0.6169,-0.748,-0.8563,-1.0271,-1.2337,-1.2956,-1.4011,-1.5341,-1.5969,-1.5834,-1.5363,-1.5952,-1.5417,-1.4421,0.0,-1.6094,-1.6982,-1.6539,-1.643,-1.6319,-1.5617,-1.5416,-1.5405,-1.5007,-1.5476,-1.6387,-1.7507,0.0,-1.8919,-2.0212,-2.0537,-2.0606,-2.0779,-2.0388,-1.9941,-1.9597,-1.8894,-1.8196,-1.7676,-1.7926,-1.8032,-1.7607,-1.8147,-1.859,-1.855,-1.8261,-1.8207,-1.8728,-1.8688,0.0,0.0,0.0,0.0,-1.8778,-1.8317,-1.8163,-1.8477,-1.8009,-1.7836,-1.7982,-1.7742,-1.7443,-1.7048,-1.7239,-1.7128,-1.6717,-1.6931,-1.6938,-1.6886,-1.6886,-1.673,-1.6433,-1.6529,-1.6465,-1.6241,-1.6241,-1.6189,-1.6074,-1.619,-1.6151,-1.6043,-1.5828,-1.5849,-1.5888,0.0,0.0,0.0,0.0,0.0,0.0,0.0,0.0,0.0,0.0,0.0,0.0,0.0,0.0,0.0,0.0,0.0,-0.4983,-0.5048,-0.4752,-0.4665,-0.4826,-0.4382,-0.4183,-0.4286,-0.3824,-0.3734,-0.4058,-0.3901,-0.4022,-0.443,-0.5184,-0.6292,-0.7637,-0.9032,-1.0768,-1.271,-1.3438,-1.4521,-1.5813,-1.605,-1.5986,-1.5745,-1.608,-1.5298,0.0,-1.3766,-1.4416,-1.5267,-1.4112,-1.3892,-1.4055,-1.3593,-1.3535,-1.3655,-1.3718,-1.4413,-1.5476,-1.6841,-1.7549,-1.8224,-1.9506,-1.9764,-1.972,-1.9661,-1.9248,-1.8803,-1.8407,-1.7583,-1.6879,-1.6736,-1.6996,-1.719,-1.6977,-1.7679,-1.8275,-1.8231,-1.8047,-1.8091,-1.8728,-1.8787,-1.877,0.0,0.0,0.0,-1.8771,-1.8214,-1.7975,-1.8163,-1.7789,-1.7576,-1.7516,-1.7483,-1.7185,-1.6646,-1.6879,-1.6775,-1.6279,-1.6388,-1.6382,-1.6291,-1.6285,-1.6119,-1.5872,-1.5972,-1.5871,-1.5664,-1.5664,-1.5607,-1.5538,-1.5651,-1.5607,-1.547,-1.5396,-1.5301,-1.5221,0.0,0.0,0.0,0.0,0.0,0.0,0.0,0.0,0.0,0.0,0.0,0.0,0.0,0.0,0.0,0.0,0.0,0.0,-0.5353,-0.5235,-0.5158,-0.513,-0.4821,-0.4614,-0.4521,-0.4128,-0.3911,-0.3872,-0.3949,-0.4074,-0.4158,-0.4528,-0.575,-0.7641,-0.865,-1.0614,-1.3187,-1.3673,-1.463,-1.5833,-1.5607,-1.5557,-1.5659,-1.5711,-1.5283,-1.4671,-1.4425,-1.4163,-1.374,-1.2494,-1.2055,-1.2112,-1.2311,-1.2799,-1.3333,-1.3586,-1.4099,-1.5006,-1.6995,-1.6978,-1.6769,-1.8443,-1.8441,-1.7902,-1.7615,-1.7776,-1.7829,-1.728,-1.6876,-1.6617,0.0,0.0,-1.6729,-1.6742,-1.6977,-1.7399,-1.8007,-1.7831,-1.8121,0.0,0.0,0.0,0.0,0.0,0.0,-1.8531,0.0,-1.8177,-1.7675,-1.7601,-1.7323,-1.6762,-1.7038,-1.6909,-1.6278,-1.6518,-1.6487,-1.6255,-1.601,-1.5713,-1.5503,-1.5457,-1.5332,-1.5103,-1.5363,-1.5323,-1.5065,-1.5065,-1.521,-1.5425,-1.5171,-1.5219,-1.5396,-1.513,-1.4885,-1.4736,0.0,0.0,0.0,0.0,0.0,0.0,0.0,0.0,0.0,0.0,0.0,0.0,0.0,0.0,0.0,0.0,0.0,0.0,-0.627,-0.5962,-0.5677,-0.5469,-0.5216,-0.4956,-0.4802,-0.4287,-0.4241,-0.4625,-0.4266,-0.4324,-0.4848,-0.5556,-0.6502,-0.7637,-0.8861,-1.053,-1.2448,-1.3456,-1.4798,-1.6282,-1.6755,-1.6713,-1.6386,-1.6906,-1.6178,-1.4818,-1.4665,-1.4402,-1.3999,-1.3162,-1.291,0.0,-1.352,-1.3888,-1.4199,-1.4318,-1.5054,-1.5905,-1.6224,-1.6923,-1.7508,-1.734,-1.7654,-1.7796,-1.7101,-1.7161,-1.7266,-1.667,-1.6104,-1.5664,0.0,0.0,0.0,-1.7012,-1.8034,0.0,-1.9296,-1.8904,0.0,-1.9312,0.0,-1.8798,-1.9018,-1.8838,0.0,0.0,-1.8502,-1.8386,-1.827,-1.7849,-1.7423,-1.7058,-1.6883,-1.6563,-1.5991,-1.5673,-1.5549,-1.5703,-1.542,-1.5277,-1.5195,-1.5208,-1.5066,-1.4813,-1.488,-1.4746,-1.4503,-1.4503,-1.4552,-1.4588,-1.4522,-1.4546,-1.4588,-1.4514,-1.4442,-1.4442,0.0,0.0,0.0,0.0,0.0,0.0,0.0,0.0,0.0,0.0,0.0,0.0,0.0,0.0,0.0,0.0,0.0,0.0,0.0,-0.6747,-0.6455,-0.6257,-0.5761,-0.5409,-0.5202,-0.4639,-0.4409,-0.4594,-0.4366,-0.4566,-0.5121,-0.5909,-0.688,-0.8029,-0.9427,-1.0998,-1.2742,-1.373,-1.4956,0.0,0.0,-1.6586,-1.6682,-1.7066,-1.6654,-1.5855,-1.566,-1.5327,-1.4907,0.0,0.0,-1.4078,-1.4416,-1.4756,-1.5058,-1.4955,0.0,-1.6057,-1.6087,-1.656,-1.693,-1.6607,-1.6894,-1.7068,-1.6306,-1.6359,-1.64,-1.5866,-1.5331,0.0,-1.4803,-1.5725,0.0,0.0,0.0,0.0,-1.9205,-1.8938,-1.8844,0.0,-1.8885,0.0,-1.8911,-1.8891,-1.8824,0.0,-1.8559,-1.8333,-1.809,-1.7769,-1.7357,-1.678,-1.66,-1.6324,-1.5879,-1.5475,-1.5286,-1.5318,-1.5188,-1.498,-1.4765,-1.4765,-1.4674,-1.4533,-1.4533,-1.4443,-1.4298,-1.4298,-1.4298,-1.4298,-1.4298,-1.4298,-1.4298,-1.4298,-1.4298,-1.4346,0.0,0.0,0.0,0.0,0.0,0.0,0.0,0.0,0.0,0.0,0.0,0.0,0.0,0.0,0.0,0.0,0.0,0.0,0.0,0.0,-0.7271,-0.7233,-0.6515,-0.5992,-0.5815,-0.5226,-0.4801,-0.4636,-0.4824,-0.5137,-0.5576,-0.6328,-0.7353,-0.8645,-1.0114,-1.1717,-1.3266,-1.3983,-1.496,-1.6089,-1.5762,-1.613,-1.6871,0.0,-1.7057,-1.718,-1.6771,-1.6307,-1.5883,0.0,-1.5839,-1.5249,-1.529,-1.5571,-1.5844,-1.5645,-1.5725,-1.5945,-1.6206,-1.6112,-1.5985,-1.6166,-1.6273,-1.6166,-1.5538,-1.5618,-1.5665,-1.5129,0.0,-1.4569,-1.4529,-1.5444,-1.6166,-1.6025,0.0,-1.851,-1.8751,-1.8677,-1.8718,-1.9005,-1.8938,-1.8851,-1.8755,-1.9005,-1.9025,-1.8764,-1.845,-1.8044,-1.7465,-1.753,-1.7127,-1.6191,-1.6213,-1.6092,-1.5784,-1.5603,-1.5367,-1.5131,-1.5124,-1.482,-1.4346,-1.4346,-1.4346,-1.4298,-1.4346,-1.4346,-1.4298,-1.4346,-1.4346,-1.4298,-1.4298,-1.4298,-1.4298,-1.4298,-1.4298,-1.4298,0.0,0.0,0.0,0.0,0.0,0.0,0.0,0.0,0.0,0.0,-1.4018,-1.3298,0.0,0.0,0.0,0.0,0.0,0.0,0.0,0.0,0.0,-0.7833,-0.7379,-0.7062,-0.693,-0.6655,-0.6627,-0.6926,-0.6947,-0.7316,-0.7925,-0.884,-0.9318,-0.9531,-1.0756,-1.1659,-1.2365,-1.3178,-1.4304,-1.5716,-1.6548,-1.7248,-1.7813,-1.8214,0.0,0.0,-1.6615,-1.5911,-1.5688,-1.632,-1.648,-1.6446,-1.6744,-1.6667,-1.6547,-1.6493,-1.6346,-1.6206,-1.6259,-1.6406,-1.6453,-1.6019,-1.6273,-1.6413,-1.5585,-1.5618,0.0,0.0,-1.4968,-1.481,-1.4563,-1.5277,-1.6132,-1.6857,0.0,0.0,0.0,0.0,-1.9319,0.0,0.0,0.0,0.0,0.0,0.0,0.0,-1.7756,-1.7615,-1.7277,-1.7248,-1.6823,-1.5884,-1.5858,-1.5879,-1.5784,-1.5593,-1.5497,-1.5452,-1.5223,-1.4936,-1.464,-1.464,-1.4496,-1.4298,-1.4544,0.0,-1.4298,-1.4544,-1.4496,-1.4298,-1.4298,-1.4298,-1.4298,-1.4298,-1.4298,-1.4298,0.0,0.0,0.0,0.0,0.0,0.0,0.0,-1.5531,-1.6009,-1.6519,-1.6682,-1.6128,-1.4437,-1.4343,-1.4204,0.0,0.0,0.0,0.0,0.0,0.0,0.0,-0.9076,-0.8641,-0.8408,-0.7976,-0.7767,-0.7871,0.0,-0.8336,-0.9077,-0.9964,-1.0592,-1.1047,-1.224,-1.321,-1.3999,-1.46,-1.5616,-1.6867,-1.7519,-1.8147,-1.8713,0.0,0.0,0.0,0.0,0.0,-1.6893,-1.6732,-1.6919,-1.7232,-1.7383,-1.7275,-1.7074,-1.6613,-1.638,-1.6239,-1.6086,-1.6146,-1.6186,-1.5851,-1.6039,-1.6059,-1.5337,0.0,0.0,0.0,-1.4553,-1.4462,-1.4322,-1.5137,0.0,-1.6393,0.0,0.0,0.0,0.0,0.0,0.0,0.0,0.0,0.0,0.0,-1.7582,-1.7582,-1.7494,-1.7331,-1.7144,-1.6833,-1.6419,-1.5798,-1.5784,-1.5784,-1.5784,-1.5683,-1.5588,-1.5493,-1.5356,-1.5172,-1.4885,-1.4885,-1.4838,-1.4736,-1.4838,-1.4838,-1.4736,-1.4838,-1.4838,-1.4688,-1.4544,-1.4496,-1.449,-1.4346,-1.4298,-1.4298,0.0,0.0,0.0,0.0,0.0,0.0,0.0,-1.6508,-1.7276,-1.8094,-1.8954,-1.8783,-1.6805,-1.6378,-1.6057,0.0,0.0,0.0,0.0,0.0,0.0,0.0,0.0,0.0,-0.9915,0.0,0.0,-0.9212,-0.944,0.0,0.0,0.0,0.0,0.0,-1.4091,-1.498,-1.5858,-1.6191,-1.7,0.0,0.0,-1.8836,0.0,0.0,0.0,0.0,0.0,0.0,-1.7833,-1.7203,-1.7089,-1.726,-1.732,-1.7392,-1.7235,-1.642,-1.6179,-1.6126,-1.5892,-1.5784,-1.5798,-1.5905,-1.5831,-1.5691,-1.517,-1.5055,0.0,0.0,-1.4182,-1.4202,-1.4262,-1.497,-1.5631,0.0,-1.7048,-1.8156,0.0,0.0,0.0,0.0,0.0,0.0,0.0,0.0,0.0,-1.7082,-1.6813,-1.6759,-1.6932,-1.6415,-1.6028,-1.5832,-1.5784,-1.5784,-1.5784,-1.5784,-1.5737,-1.554,-1.554,-1.5452,-1.5178,-1.5178,-1.5124,-1.5083,-1.5178,-1.5124,-1.5083,-1.5178,-1.5124,-1.5083,-1.4885,-1.4742,-1.4688,-1.4442,-1.4346,-1.4298,0.0,0.0,0.0,0.0,0.0,0.0,0.0,-1.7833,-1.8439,-1.9723,-1.9852,-2.012,-2.0787,-1.9917,-1.8996,0.0,0.0,0.0,0.0,0.0,0.0,0.0,0.0,0.0,0.0,0.0,0.0,-1.2481,-1.2954,0.0,0.0,0.0,0.0,0.0,0.0,-1.614,-1.6246,-1.6482,0.0,0.0,0.0,0.0,0.0,0.0,0.0,0.0,0.0,0.0,0.0,0.0,0.0,-1.5885,-1.6452,-1.6695,-1.6667,-1.6046,0.0,0.0,-1.5791,-1.5784,-1.5844,-1.6166,-1.6032,-1.5698,-1.5431,0.0,0.0,-1.4549,-1.4482,-1.4563,-1.4874,-1.475,-1.499,0.0,0.0,-1.674,0.0,0.0,0.0,0.0,0.0,0.0,0.0,-1.6514,-1.5673,-1.5434,-1.5114,-1.535,-1.6313,-1.6005,-1.5832,-1.5784,-1.5784,-1.5784,-1.5784,-1.5784,-1.5778,-1.5784,-1.5784,-1.5642,-1.5445,-1.5445,-1.5309,-1.5131,-1.5356,-1.5315,0.0,-1.5356,-1.5309,-1.5083,-1.5083,-1.4885,-1.4688,-1.4688,-1.4496,-1.4298,0.0,0.0,0.0,0.0,0.0,0.0,-1.7811,-1.844,-1.9412,-2.0861,-2.1499,-2.219,-2.3161,-2.2655,-2.1675,-2.0233,0.0,0.0,0.0,0.0,0.0,0.0,0.0,0.0,0.0,0.0,-1.3477,-1.4055,-1.4504,0.0,0.0,0.0,0.0,0.0,0.0,-1.7952,-1.7638,-1.8061,0.0,0.0,0.0,0.0,0.0,0.0,0.0,0.0,0.0,0.0,-1.8455,0.0,0.0,0.0,-1.5747,-1.5708,0.0,0.0,-1.5784,-1.5824,-1.6046,-1.5965,-1.5899,-1.6199,-1.5785,-1.5324,-1.5384,0.0,-1.4402,-1.4282,-1.4262,-1.4295,-1.4416,-1.4335,-1.4529,-1.5397,-1.5531,0.0,-1.7642,0.0,0.0,0.0,0.0,0.0,0.0,0.0,-1.4013,-1.3608,-1.4122,-1.4649,-1.5084,-1.5558,-1.5784,-1.5784,-1.5784,-1.5784,-1.5784,-1.5784,-1.5784,-1.5784,-1.5784,-1.5778,-1.5683,-1.5683,-1.5642,-1.5553,-1.5635,-1.5642,0.0,-1.5642,-1.5642,-1.5499,-1.5404,-1.5261,-1.5159,-1.4831,-1.464,-1.4544,0.0,0.0,0.0,0.0,0.0,-1.8099,-1.853,-1.9188,-2.0232,-2.1909,-2.2917,-2.3883,-2.4914,-2.4625,-2.3885,-2.2683,-2.1035,0.0,0.0,0.0,0.0,0.0,0.0,0.0,0.0,0.0,-1.5466,-1.6086,-1.6546,-1.7325,0.0,0.0,-1.9275,-1.9525,0.0,0.0,0.0,0.0,0.0,0.0,0.0,0.0,0.0,0.0,0.0,0.0,0.0,0.0,0.0,0.0,0.0,0.0,0.0,-1.5476,-1.5667,0.0,-1.5698,-1.5844,-1.6192,-1.6186,-1.6159,-1.646,-1.5919,-1.5277,0.0,0.0,-1.4195,-1.4108,-1.4088,-1.4115,-1.4202,-1.4142,-1.4233,-1.4729,-1.5085,-1.5598,-1.6583,0.0,0.0,0.0,0.0,-1.5223,0.0,-1.3044,-1.2252,-1.1642,-1.261,-1.3227,-1.3307,-1.426,-1.5111,-1.5778,-1.5784,-1.5784,-1.5784,-1.5784,-1.5784,-1.5784,-1.5784,-1.5784,-1.5784,-1.5784,-1.5784,-1.5784,-1.5784,-1.5784,0.0,-1.5784,-1.5784,-1.5778,-1.5635,-1.554,-1.5445,-1.507,-1.4885,-1.479,0.0,0.0,0.0,0.0,0.0,0.0,-2.0279,-2.0311,-2.0879,-2.2815,-2.3916,-2.495,-2.6155,-2.5788,-2.5556,-2.5742,-2.3015,0.0,0.0,0.0,0.0,0.0,0.0,0.0,0.0,0.0,-1.8271,-1.9157,-1.9758,-2.0793,-2.2221,-2.2033,-2.2273,-2.2797,0.0,0.0,0.0,0.0,0.0,0.0,0.0,0.0,0.0,0.0,0.0,0.0,0.0,0.0,0.0,0.0,0.0,0.0,0.0,-1.627,-1.5677,-1.5144,-1.5378,-1.5844,-1.6192,-1.648,-1.6767,-1.7119,-1.6473,-1.5771,0.0,0.0,-1.4436,-1.4142,-1.4088,-1.4175,-1.4462,-1.4282,-1.4147,-1.427,-1.4687,-1.5133,-1.5564,0.0,0.0,0.0,0.0,-1.4901,-1.4078,-1.2119,-1.0496,-0.9496,-1.0164,0.0,-1.091,-1.1952,-1.3526,-1.5724,-1.5784,-1.5784,-1.5784,-1.5784,-1.5784,-1.5784,-1.5784,-1.5784,-1.5784,-1.5784,-1.5784,-1.5784,-1.5784,-1.5784,0.0,-1.5784,-1.5784,-1.5784,-1.5784,-1.5683,-1.5493,-1.5493,-1.5309,-1.5083,0.0,0.0,0.0,0.0,0.0,0.0,0.0,-2.0502,-2.0899,-2.2645,-2.383,-2.5,-2.6297,-2.6563,-2.6625,-2.6548,-2.4142,0.0,0.0,0.0,0.0,0.0,0.0,0.0,0.0,0.0,-1.9813,-2.0376,-2.0871,-2.1686,-2.2798,-2.3,-2.3022,-2.2913,-2.2936,-2.2594,0.0,0.0,0.0,0.0,0.0,0.0,0.0,0.0,0.0,0.0,0.0,0.0,0.0,0.0,0.0,0.0,0.0,0.0,0.0,-1.6178,-1.5674,-1.5304,-1.5591,-1.5591,-1.5631,-1.5879,-1.5291,-1.4743,-1.5144,0.0,-1.3913,-1.4062,-1.4088,-1.4115,-1.4208,-1.3887,-1.3819,-1.4351,-1.4176,-1.4207,0.0,0.0,0.0,0.0,0.0,-1.1555,0.0,0.0,-0.9685,-0.9233,-1.0171,-1.0906,-1.1066,-1.209,-1.3276,-1.4723,-1.4777,-1.5112,-1.5778,-1.5784,-1.5784,-1.5784,-1.5784,-1.5784,-1.5784,-1.5784,-1.5784,-1.5784,-1.5784,-1.5784,-1.5784,-1.5784,-1.5784,-1.5784,-1.5784,-1.5778,-1.5689,-1.554,-1.5452,-1.5356,0.0,0.0,0.0,0.0,0.0,0.0,0.0,-2.1319,-2.155,-2.3259,-2.4368,-2.553,-2.6844,-2.7377,-2.7591,-2.7511,-2.5813,0.0,0.0,0.0,0.0,0.0,0.0,0.0,-2.0059,-2.0941,-2.1552,-2.1771,-2.234,-2.3023,-2.3815,-2.4082,-2.4101,-2.3826,-2.3944,-2.3641,0.0,0.0,0.0,0.0,0.0,0.0,-2.2189,0.0,0.0,0.0,0.0,0.0,0.0,0.0,0.0,0.0,0.0,0.0,0.0,0.0,-1.6082,-1.5477,-1.5707,-1.575,-1.5698,-1.5704,-1.5037,0.0,0.0,-1.4275,-1.3686,-1.4021,-1.3955,-1.3861,-1.3923,-1.3504,-1.3287,-1.3732,-1.3622,-1.3616,0.0,0.0,0.0,0.0,0.0,0.0,0.0,-0.939,-0.9214,-0.9104,-0.9802,-1.0326,-1.0519,-1.1105,-1.1966,-1.3071,-1.3908,-1.4586,-1.5207,-1.5588,-1.5784,-1.5784,-1.5784,-1.5784,-1.5784,-1.5784,-1.5784,-1.5784,-1.5784,-1.5784,0.0,-1.5784,-1.5784,-1.5784,-1.5784,-1.5784,-1.5784,-1.5642,-1.5588,-1.5588,0.0,0.0,0.0,0.0,0.0,0.0,0.0,-2.2629,-2.2649,-2.4379,-2.5384,-2.6399,-2.7665,-2.8153,-2.8436,-2.8538,0.0,0.0,0.0,0.0,0.0,0.0,0.0,0.0,-2.2138,-2.301,-2.342,-2.3362,-2.3983,-2.4598,-2.5159,-2.5241,-2.5312,-2.5288,-2.4795,-2.4578,0.0,0.0,0.0,0.0,0.0,0.0,0.0,0.0,0.0,0.0,0.0,0.0,0.0,0.0,0.0,0.0,0.0,0.0,0.0,0.0,0.0,0.0,0.0,-1.6554,-1.6589,0.0,0.0,0.0,0.0,0.0,0.0,-1.4028,-1.3743,-1.3481,-1.366,-1.3157,-1.2699,-1.2694,-1.3094,-1.3176,0.0,-1.2949,0.0,0.0,-1.0534,0.0,-0.9736,-0.9343,-0.9112,-0.9096,-0.9108,-0.919,-0.9412,-0.942,-0.9921,-1.1049,-1.3017,-1.4148,-1.4298,-1.5302,-1.5784,-1.5784,-1.5784,-1.5784,-1.5784,-1.5784,-1.5771,0.0,-1.5771,-1.5771,-1.5751,-1.5771,-1.5784,-1.5778,-1.5758,-1.5751,-1.5751,-1.5751,-1.5751,-1.5751,0.0,0.0,0.0,0.0,0.0,0.0,0.0,0.0,0.0,0.0,-2.5655,-2.6661,-2.7694,-2.8675,-2.9275,0.0,0.0,0.0,0.0,0.0,0.0,0.0,0.0,0.0,-2.4336,-2.4698,-2.4945,-2.5033,-2.4628,-2.4876,-2.5723,-2.543,-2.5312,-2.53,-2.518,-2.5119,0.0,0.0,0.0,0.0,0.0,0.0,0.0,0.0,0.0,0.0,-2.1282,-2.1177,0.0,0.0,0.0,0.0,0.0,0.0,0.0,0.0,-1.7957,-1.7367,-1.6598,0.0,-1.5483,-1.5361,-1.5063,-1.4704,0.0,0.0,0.0,0.0,0.0,0.0,0.0,-1.3011,-1.2501,-1.2669,-1.2347,-1.2023,-1.1991,0.0,0.0,-1.0604,-1.0306,-0.9849,-0.9013,-0.8997,-0.9052,-0.9108,-0.9033,-0.9184,-0.9555,-0.9563,-0.9616,-0.9803,-1.1187,-1.2684,-1.4292,-1.5302,-1.5784,-1.5784,-1.5784,-1.5784,-1.5784,-1.5784,-1.5705,-1.5511,-1.5732,-1.5705,-1.5518,-1.5738,-1.5784,-1.5758,-1.5585,-1.5498,-1.5498,-1.5498,-1.5498,-1.5531,0.0,0.0,0.0,0.0,0.0,0.0,0.0,0.0,0.0,0.0,0.0,-2.6381,-2.74,-2.8526,0.0,0.0,0.0,0.0,0.0,0.0,0.0,0.0,0.0,-2.5646,-2.525,-2.564,-2.5782,-2.5598,-2.5286,-2.5465,-2.6037,-2.5641,-2.543,-2.5418,-2.5347,-2.5312,0.0,0.0,0.0,0.0,-2.486,0.0,0.0,0.0,0.0,0.0,-2.1807,-2.1502,0.0,-2.1464,-2.1273,-2.1035,0.0,0.0,0.0,0.0,-1.8456,-1.7772,-1.6804,-1.6186,-1.5727,-1.5509,-1.5183,-1.4825,-1.4661,0.0,0.0,0.0,0.0,0.0,0.0,0.0,-1.1992,-1.1996,-1.1722,0.0,0.0,0.0,0.0,-1.0065,-0.9875,-0.953,0.0,-0.9108,-0.922,-0.9222,-0.9284,-0.9376,-0.9575,-0.9579,-0.9543,-0.9408,-1.0586,-1.1948,-1.3482,-1.456,-1.535,-1.5784,-1.5698,-1.5631,-1.5625,-1.5491,-1.5344,-1.5211,-1.5504,-1.5464,-1.5217,-1.5511,-1.5551,-1.5418,-1.5257,-1.5197,-1.5197,-1.5197,-1.5197,-1.5237,0.0,0.0,0.0,0.0,0.0,0.0,0.0,0.0,0.0,0.0,0.0,0.0,0.0,0.0,0.0,0.0,0.0,0.0,0.0,0.0,0.0,0.0,-2.6794,-2.6432,-2.5914,-2.6373,-2.6392,-2.5957,-2.5974,-2.6107,-2.6371,-2.5972,-2.5727,-2.5692,-2.5454,-2.5347,0.0,0.0,-2.5564,-2.5937,-2.5326,0.0,0.0,0.0,0.0,0.0,0.0,0.0,0.0,-2.1464,-2.127,-2.1076,-2.1328,0.0,0.0,0.0,0.0,0.0,-1.6958,-1.673,-1.6609,-1.6093,-1.5553,-1.5128,-1.4993,0.0,0.0,0.0,0.0,0.0,0.0,-1.1799,0.0,0.0,0.0,0.0,-1.0873,-1.0142,-0.9659,-0.9785,-0.9556,0.0,-0.9332,-0.9332,-0.9384,-0.9404,-0.9478,-0.9517,-0.9489,-0.9489,-0.9393,-0.9188,-1.0206,-1.1216,-1.2124,-1.3495,-1.4661,-1.5468,-1.5372,-1.5331,-1.5317,-1.5122,-1.4981,-1.4961,-1.5251,0.0,-1.4923,-1.5113,-1.5041,-1.4771,-1.459,-1.4532,-1.4488,-1.4533,-1.4546,-1.4592,0.0,0.0,0.0,0.0,0.0,0.0,0.0,0.0,0.0,0.0,0.0,0.0,0.0,0.0,0.0,0.0,0.0,0.0,0.0,0.0,0.0,-2.9537,-2.8501,-2.7976,-2.8109,-2.7749,-2.7524,-2.7479,-2.6684,-2.6598,-2.7113,-2.6719,-2.6359,-2.5997,-2.5694,-2.5453,-2.5312,-2.5312,-2.536,-2.5385,-2.5182,0.0,0.0,0.0,0.0,0.0,0.0,0.0,0.0,-2.1244,-2.0839,-2.0448,-2.0873,0.0,0.0,0.0,0.0,0.0,-1.7171,-1.7111,-1.7182,-1.6349,-1.5836,-1.5487,-1.5284,0.0,0.0,0.0,0.0,0.0,0.0,-1.1471,-1.0614,0.0,0.0,-1.0509,0.0,0.0,-1.0391,-1.0026,0.0,-0.9786,-0.9115,-0.9157,-0.9278,-0.9416,-0.9331,-0.9219,-0.9119,-0.9107,-0.887,-0.8325,-0.8656,-0.9351,-1.0374,-1.2709,-1.393,-1.4117,-1.4748,-1.5075,-1.5075,-1.5028,-1.4874,-1.4623,0.0,-1.509,-1.4542,-1.433,-1.4053,-1.3697,-1.2713,-1.2271,-1.2293,-1.24,-1.2472,-1.2539,0.0,0.0,0.0,0.0,0.0,0.0,0.0,0.0,0.0,0.0,0.0,0.0,0.0,0.0,0.0,0.0,0.0,0.0,0.0,0.0,-2.982,-3.008,-2.9534,-2.9104,-2.8876,-2.8262,-2.7967,-2.7967,-2.7255,-2.6964,-2.7113,-2.6542,-2.632,-2.6384,-2.573,-2.5382,-2.5312,-2.5312,-2.5312,-2.5276,0.0,0.0,0.0,0.0,0.0,0.0,0.0,0.0,0.0,0.0,-2.0373,-1.982,-2.0401,0.0,0.0,0.0,0.0,0.0,-1.6763,-1.6643,-1.6778,-1.6388,-1.6458,-1.644,-1.5929,0.0,0.0,0.0,0.0,0.0,0.0,0.0,-1.0853,-1.097,0.0,-1.021,-1.0552,-1.0174,-0.9805,0.0,0.0,-0.9578,-0.9331,-0.9383,-0.9359,-0.9176,-0.9142,-0.897,-0.8701,-0.8784,-0.8625,-0.8113,-0.8397,-0.8764,-0.9173,-1.0838,-1.2374,-1.371,-1.3905,-1.4224,-1.4716,-1.4563,-1.4149,-1.3565,0.0,-1.3648,-1.278,-1.2804,-1.2631,-1.2302,-1.1751,-1.1608,-1.1682,-1.1745,-1.1863,-1.2043,0.0,0.0,0.0,0.0,0.0,0.0,0.0,0.0,0.0,0.0,0.0,0.0,0.0,0.0,0.0,0.0,0.0,0.0,0.0,-2.9645,-2.9884,-3.0005,-3.0036,-2.9758,-2.9226,-2.8547,-2.8112,-2.8061,-2.7591,-2.7338,-2.7306,-2.6584,-2.6439,-2.6733,-2.5849,-2.5418,-2.5382,-2.5312,-2.5312,-2.5312,0.0,0.0,0.0,0.0,0.0,0.0,0.0,0.0,0.0,0.0,0.0,0.0,0.0,0.0,0.0,-1.7942,-1.7546,-1.7212,-1.6436,-1.6355,-1.6517,-1.6444,-1.677,0.0,0.0,0.0,0.0,0.0,0.0,0.0,0.0,-1.0759,0.0,-1.0904,-1.0468,-1.0162,-1.0398,-0.983,-0.9472,-0.9591,-0.9469,-0.9424,-0.9583,-0.9489,-0.9311,-0.9031,-0.8936,-0.8697,-0.8342,-0.8467,-0.8394,-0.8053,-0.8341,-0.8486,-0.8358,-0.9069,-1.0546,-1.2807,-1.273,-1.305,-1.3746,-1.3536,-1.3052,-1.2375,-1.2671,-1.2243,-1.1305,-1.1462,-1.1277,-1.0949,-1.084,-1.0919,-1.1066,-1.1066,-1.1247,-1.144,0.0,0.0,0.0,0.0,0.0,0.0,0.0,0.0,0.0,0.0,0.0,0.0,0.0,0.0,0.0,0.0,0.0,0.0,0.0,-2.9497,-2.9822,-2.9822,-2.9822,-2.973,-2.9571,-2.8812,-2.8215,-2.7906,-2.7687,-2.7786,-2.817,-2.7637,-2.7237,-2.696,-2.6179,-2.5758,-2.5571,-2.5382,-2.5312,-2.5312,-2.5312,0.0,0.0,0.0,0.0,0.0,0.0,0.0,0.0,0.0,0.0,0.0,0.0,0.0,-1.8834,-1.7942,-1.7546,-1.7261,-1.6722,-1.6833,-1.7048,-1.6586,-1.6366,0.0,-1.6982,-1.5903,0.0,-1.4596,0.0,0.0,0.0,-1.0516,-1.0245,-1.0122,-1.0238,-1.0439,-1.0668,0.0,-1.0217,-0.9925,-0.9876,-0.9803,-0.9595,-0.9279,-0.9035,-0.902,-0.8634,-0.8339,-0.8132,-0.8121,-0.8091,-0.7923,-0.793,-0.797,-0.7963,-0.8003,-0.8835,-1.0442,-1.1107,-1.1478,-1.1521,-1.1505,-1.1451,-1.1424,-1.1751,-1.1679,-1.1273,-1.086,-1.0431,-0.994,-0.947,-0.9396,-0.955,-0.955,-0.9671,-0.9784,0.0,0.0,0.0,0.0,0.0,0.0,0.0,0.0,0.0,0.0,0.0,0.0,0.0,0.0,0.0,0.0,0.0,0.0,0.0,-2.9204,-2.9442,-2.9946,-3.0005,-2.9714,-2.9179,-2.8574,-2.8011,-2.7473,-2.7567,-2.8037,-2.8905,-2.8022,-2.764,-2.7637,-2.6515,-2.5803,-2.5418,-2.5347,-2.5312,-2.5312,-2.5312,-2.5276,0.0,0.0,0.0,0.0,0.0,0.0,0.0,0.0,-1.8358,-1.8279,-1.8685,-1.8603,-1.8193,-1.7335,-1.7017,-1.6803,-1.608,-1.6264,-1.6625,-1.6341,-1.6359,0.0,0.0,-1.4962,-1.3857,-1.2838,-1.177,0.0,0.0,0.0,-1.0152,-0.995,-1.0182,-1.0349,-1.0297,-1.0168,-1.0042,-0.99,-0.9594,-0.9286,-0.9223,-0.8961,-0.8718,-0.8482,-0.8459,-0.8303,-0.8001,-0.8079,-0.8097,-0.79,-0.79,-0.79,-0.79,-0.79,-0.8236,-0.8956,-0.9839,-1.0626,-1.1284,-1.1284,-1.0982,-1.0424,-1.0552,-1.0236,-0.9616,-0.9411,-0.9256,-0.9081,-0.9096,-0.9202,-0.9404,-0.9404,-0.9445,-0.9458,0.0,0.0,0.0,0.0,0.0,0.0,0.0,0.0,0.0,0.0,0.0,0.0,0.0,0.0,0.0,0.0,0.0,0.0,-2.8598,-2.8624,-2.8917,-2.9645,-2.9535,-2.9247,-2.8856,-2.8132,-2.7647,-2.7381,-2.7656,-2.8243,-2.9124,-2.8208,-2.779,-2.771,-2.665,-2.5913,-2.5382,-2.5347,-2.5312,-2.5312,-2.5312,-2.5312,0.0,0.0,0.0,0.0,0.0,0.0,0.0,0.0,-1.784,-1.775,-1.8285,-1.8201,-1.7749,-1.7057,-1.6727,-1.649,-1.5745,-1.5943,-1.6193,-1.5677,0.0,0.0,-1.435,-1.383,-1.332,-1.2115,-1.1072,-1.0278,-1.0108,0.0,0.0,0.0,-1.0067,-1.0221,-0.9893,-0.9884,-0.9843,-0.963,-0.9307,-0.9048,-0.885,-0.864,-0.8402,-0.8113,-0.8144,-0.8109,-0.7992,-0.8113,-0.8157,-0.7984,-0.7984,-0.7918,-0.7734,-0.7742,-0.787,-0.8032,-0.8734,-0.9545,-1.0463,-1.0463,-1.012,-0.9471,-0.9471,-0.917,-0.8616,-0.8625,-0.8682,-0.8755,-0.8938,-0.9116,-0.9326,-0.9384,-0.9404,-0.9412,0.0,0.0,0.0,0.0,0.0,0.0,0.0,0.0,0.0,0.0,0.0,0.0,0.0,0.0,0.0,0.0,0.0,0.0,-2.7226,-2.7712,-2.8191,-2.8677,-2.8248,-2.8205,-2.8675,-2.7467,-2.713,-2.7791,-2.8049,-2.8398,-2.8785,-2.8242,-2.7636,-2.7011,-2.6593,-2.6104,-2.5571,-2.5382,-2.5312,-2.5312,-2.5312,-2.5312,-2.517,0.0,0.0,0.0,0.0,0.0,0.0,0.0,-1.7325,-1.7541,-1.788,-1.787,-1.7619,-1.7221,-1.681,-1.6413,-1.5999,-1.5976,-1.5821,0.0,0.0,0.0,-1.2431,-1.2793,-1.3343,-1.2971,-1.1438,-1.0215,-1.0293,-1.0099,0.0,-0.9529,-0.9884,-1.0043,-0.9556,-0.9728,-0.965,-0.9063,-0.9208,-0.9136,-0.8449,-0.8241,-0.8102,-0.8102,-0.773,-0.7724,-0.8201,-0.8201,-0.8201,-0.8197,-0.8197,-0.7897,-0.7307,-0.7425,-0.7552,-0.7603,-0.7818,-0.8164,-0.8612,-0.8612,-0.8612,-0.8612,-0.8612,-0.8612,-0.8624,-0.8747,-0.8926,-0.9076,-0.8893,-0.8934,-0.912,-0.9335,-0.94,-0.9429,0.0,0.0,0.0,0.0,0.0,0.0,0.0,0.0,0.0,0.0,0.0,0.0,0.0,0.0,0.0,0.0,0.0,0.0,-2.7677,-2.7454,-2.7627,-2.8309,-2.8534,-2.8312,-2.7658,-2.7459,-2.72,-2.6901,-2.7442,-2.8019,-2.8578,-2.8174,-2.7785,-2.7401,-2.6563,-2.5877,-2.5382,-2.5347,-2.5312,-2.5312,-2.5312,-2.5312,-2.5194,0.0,0.0,0.0,0.0,0.0,0.0,0.0,0.0,0.0,-1.7712,-1.7803,-1.768,-1.6835,-1.6476,-1.6191,-1.5727,-1.5191,0.0,-1.4446,0.0,0.0,0.0,-1.2216,0.0,0.0,-1.0761,-1.0148,-0.9991,-0.9926,0.0,-0.9118,-0.9446,-0.9666,-0.9314,-0.9448,-0.9474,-0.932,-0.8996,-0.8686,-0.8497,-0.8294,-0.819,-0.819,-0.8239,-0.8344,-0.8472,-0.8476,-0.8372,-0.8076,-0.7892,-0.7641,-0.7355,-0.751,-0.7655,-0.7823,-0.8218,-0.8476,-0.8612,-0.8612,-0.8612,-0.8612,-0.8612,-0.8612,-0.8616,-0.8621,-0.8743,-0.8897,-0.884,-0.8934,-0.9104,-0.9157,-0.9298,-0.9392,0.0,0.0,0.0,0.0,0.0,0.0,0.0,0.0,0.0,0.0,-2.887,-2.8965,0.0,0.0,0.0,0.0,0.0,0.0,0.0,-2.6965,-2.6976,-2.788,-2.7904,-2.7609,-2.701,-2.7383,-2.7311,-2.6742,-2.7417,-2.7886,-2.8203,-2.7846,-2.7446,-2.7012,-2.6359,-2.5685,-2.4987,-2.4987,-2.4987,-2.4987,-2.4987,-2.5026,-2.5004,0.0,0.0,0.0,0.0,0.0,0.0,0.0,0.0,0.0,-1.7675,-1.7655,-1.7415,-1.6669,-1.6159,-1.5661,-1.512,-1.4447,0.0,-1.3422,-1.3031,-1.2457,-1.1492,0.0,0.0,0.0,-1.0359,-1.0119,-0.9772,-0.9758,0.0,-0.8863,-0.9174,-0.9397,-0.9038,-0.9176,-0.9226,-0.9059,-0.8774,-0.8529,-0.8278,-0.816,-0.813,-0.8197,-0.8273,-0.8404,-0.8608,-0.8456,-0.8237,-0.7959,-0.7674,-0.7431,-0.7267,-0.7427,-0.7594,-0.7808,-0.8126,-0.8342,-0.8506,-0.8575,-0.8612,-0.8612,-0.8612,-0.8612,-0.8612,-0.8612,-0.8629,-0.8718,-0.8718,-0.8787,-0.8897,-0.8962,-0.9051,-0.9137,0.0,0.0,0.0,0.0,0.0,0.0,0.0,0.0,0.0,0.0,-2.8661,-2.8642,0.0,0.0,0.0,0.0,0.0,0.0,0.0,-2.6379,-2.6344,-2.7372,-2.6736,-2.6512,-2.681,-2.7305,-2.7399,-2.708,-2.7694,-2.7881,-2.7723,-2.7278,-2.6764,-2.6176,-2.6008,-2.542,-2.4484,-2.4436,-2.4458,-2.4458,-2.4458,-2.4551,-2.4648,-2.4015,0.0,0.0,0.0,0.0,0.0,0.0,0.0,0.0,-1.7702,-1.7359,-1.6949,-1.6538,-1.5777,-1.4938,-1.4358,-1.3744,0.0,-1.1984,-1.1648,0.0,-1.045,-1.0424,-1.059,-1.0346,0.0,-1.001,-0.9665,-0.9604,-0.9393,-0.8812,-0.908,-0.9227,-0.8777,-0.8924,-0.894,-0.8552,-0.8648,-0.8524,-0.7958,-0.7904,-0.8006,-0.8186,-0.8014,-0.8084,-0.8507,-0.8232,-0.7967,-0.7862,-0.759,-0.7345,-0.7092,-0.726,-0.7465,-0.7708,-0.7724,-0.7939,-0.8272,-0.8502,-0.8596,-0.8612,-0.8596,-0.8596,-0.8612,-0.8612,-0.8612,-0.8612,-0.8612,-0.8612,-0.8629,-0.8739,-0.8808,-0.884,0.0,0.0,0.0,0.0,0.0,0.0,0.0,0.0,0.0,0.0,0.0,0.0,0.0,0.0,0.0,0.0,0.0,0.0,0.0,-2.6326,-2.6148,-2.6689,-2.685,-2.7193,-2.7776,-2.7361,-2.7082,-2.7015,-2.6948,-2.7026,-2.7142,-2.6496,-2.6114,-2.5921,-2.5173,-2.4735,-2.446,-2.4097,-2.3962,-2.3962,-2.3962,-2.3968,-2.3941,-2.3247,-2.2282,0.0,0.0,0.0,0.0,0.0,0.0,0.0,-1.7438,-1.6954,-1.6338,-1.5981,-1.5037,-1.4088,-1.4041,-1.2835,0.0,0.0,-1.1429,-1.0812,-1.0461,-1.0322,-1.0188,-0.9868,-0.977,-0.9677,-0.9502,-0.9461,-0.9344,-0.9082,-0.9082,-0.9141,-0.9007,-0.8857,-0.8666,-0.8585,-0.8491,-0.829,-0.802,-0.81,-0.8163,-0.8054,-0.801,-0.8006,-0.813,-0.8184,-0.8016,-0.7542,-0.7789,-0.7684,-0.72,-0.7529,-0.7737,-0.7777,-0.7869,-0.7995,-0.8081,-0.8264,-0.8473,-0.8604,-0.8414,-0.8434,-0.8612,-0.8612,-0.8612,-0.8612,-0.8612,-0.8612,-0.8616,-0.8653,-0.8706,-0.8808,0.0,0.0,0.0,0.0,0.0,0.0,0.0,0.0,0.0,0.0,0.0,0.0,0.0,0.0,0.0,0.0,0.0,0.0,0.0,0.0,-2.6063,-2.6748,-2.7107,-2.7387,-2.7556,-2.7209,-2.6905,-2.6688,-2.6422,-2.6333,-2.6474,-2.6072,-2.5793,-2.5581,-2.4828,-2.4386,-2.4133,-2.3649,-2.3421,-2.3445,-2.3697,-2.3661,-2.3508,-2.3421,-2.2447,-2.102,-2.0394,0.0,0.0,0.0,0.0,0.0,0.0,0.0,-1.6331,-1.5888,-1.4822,-1.365,-1.331,0.0,0.0,-1.1181,0.0,-1.0467,-1.002,-0.9872,-0.9598,-0.8792,-0.8904,-0.9034,-0.8538,-0.8698,-0.8765,-0.8238,-0.8337,-0.8491,-0.8405,-0.8166,-0.8087,-0.83,-0.8215,-0.8117,-0.802,-0.8028,-0.8028,-0.8016,-0.7858,-0.7833,-0.8004,-0.7858,-0.7724,-0.7593,-0.7631,-0.762,-0.7496,-0.7581,-0.775,-0.7955,-0.784,-0.7809,-0.7859,-0.8165,-0.8345,-0.8473,-0.8333,-0.8345,-0.8434,-0.8434,-0.8531,-0.8612,-0.8612,-0.8612,-0.8612,-0.8612,-0.8625,-0.8686,0.0,0.0,0.0,0.0,0.0,0.0,0.0,0.0,0.0,0.0,0.0,0.0,0.0,0.0,0.0,0.0,0.0,0.0,0.0,0.0,0.0,-2.6897,-2.7302,-2.7356,-2.7007,-2.6939,-2.6701,-2.6324,-2.5955,-2.5842,-2.5928,-2.5842,-2.5606,-2.5288,-2.4662,-2.4157,-2.377,-2.324,-2.3011,-2.3059,-2.3589,-2.3535,-2.3213,-2.3757,-2.2586,-2.0642,-2.0357,-1.9459,-1.8395,-1.8069,0.0,0.0,0.0,0.0,-1.6497,-1.5878,-1.4659,-1.3314,-1.2525,0.0,-1.0834,-1.0468,-1.0387,0.0,-0.9574,-0.9338,-0.8956,-0.7809,-0.8073,-0.8287,-0.7514,-0.7798,-0.7936,-0.7224,-0.7474,-0.7672,-0.7536,-0.7348,-0.739,-0.7804,-0.7845,-0.7873,-0.7923,-0.7861,-0.7845,-0.7914,-0.7646,-0.7614,-0.7906,-0.7533,-0.7445,-0.7747,-0.7492,-0.7492,-0.7761,-0.7642,-0.7751,-0.8063,-0.7712,-0.7619,-0.7775,-0.8116,-0.826,-0.8245,-0.8227,-0.8215,-0.8243,-0.8276,-0.8381,-0.8567,-0.86,-0.8612,-0.8612,-0.8612,-0.8612,-0.8612,0.0,0.0,0.0,0.0,0.0,0.0,0.0,0.0,0.0,0.0,-2.7602,-2.8411,0.0,0.0,0.0,0.0,0.0,0.0,0.0,0.0,0.0,-2.6166,-2.7026,-2.7356,-2.7007,-2.6654,-2.6289,-2.5968,-2.5571,-2.5612,-2.6058,-2.5599,-2.5347,-2.5264,-2.4302,-2.3866,-2.377,-2.324,-2.3011,-2.3059,-2.3589,-2.3496,-2.3018,-2.2933,-2.198,-2.0672,-2.0455,-1.9648,-1.8654,-1.8585,-1.8198,0.0,0.0,0.0,-1.6064,-1.5612,-1.419,-1.2657,-1.2293,0.0,-1.0306,0.0,-1.0249,-1.0096,0.0,0.0,-0.8608,0.0,-0.7629,-0.7756,-0.7224,-0.7231,-0.7231,-0.7102,-0.7118,-0.7111,-0.709,-0.6802,-0.6783,-0.7184,-0.7228,-0.7327,-0.753,-0.7718,-0.7743,-0.7565,-0.7508,-0.7504,-0.7549,-0.7671,-0.7654,-0.7559,-0.7808,-0.7834,-0.7561,-0.7872,-0.7966,-0.7837,-0.7774,-0.787,-0.8037,-0.8053,-0.8012,-0.7936,-0.7885,-0.7914,-0.8061,-0.8223,-0.8304,-0.8345,-0.8551,-0.8612,-0.8612,-0.8612,-0.8612,-0.8612,0.0,0.0,0.0,0.0,0.0,0.0,0.0,0.0,0.0,0.0,0.0,-2.8273,0.0,0.0,0.0,0.0,0.0,0.0,0.0,0.0,0.0,-2.6509,-2.6635,-2.6686,-2.6654,-2.599,-2.566,-2.5571,-2.4723,-2.4716,-2.5517,-2.4991,-2.5086,-2.5709,-2.4662,-2.4194,-2.4157,-2.3673,-2.3457,-2.3505,-2.3977,-2.3781,-2.3134,-2.3433,-2.2559,-2.1172,-2.0941,-2.0072,-1.8994,-1.8798,-1.8442,-1.8031,-1.7554,0.0,0.0,0.0,-1.4353,-1.2796,-1.1699,-1.0844,-1.0248,0.0,-1.0135,-0.9832,-0.9038,0.0,-0.8313,-0.7026,-0.6969,-0.6972,-0.6408,-0.6523,-0.6584,-0.6246,-0.6379,-0.647,-0.6344,-0.6123,-0.6153,-0.6538,-0.6816,-0.7021,-0.7142,-0.7441,-0.7608,-0.7488,-0.7395,-0.7378,-0.748,-0.7471,-0.7462,-0.748,-0.7676,-0.7718,-0.7684,-0.7718,-0.7718,-0.7642,-0.7642,-0.7659,-0.772,-0.7728,-0.7777,-0.7827,-0.789,-0.789,-0.7886,-0.8061,-0.8195,-0.8308,-0.8539,-0.8612,-0.8612,-0.8612,-0.8612,-0.8612,0.0,0.0,0.0,0.0,0.0,0.0,0.0,0.0,0.0,0.0,0.0,0.0,0.0,0.0,0.0,0.0,0.0,0.0,0.0,0.0,0.0,-2.6411,-2.6071,-2.5917,-2.5988,-2.5277,-2.4871,-2.4845,-2.3931,-2.4017,-2.4993,-2.4552,-2.4932,-2.5985,-2.4964,-2.4412,-2.4314,-2.4061,-2.3998,-2.4001,-2.4427,-2.4114,-2.3429,-2.3654,-2.2794,-2.1392,-2.108,0.0,0.0,0.0,-1.8692,-1.8362,-1.7676,-1.7294,0.0,0.0,0.0,0.0,0.0,0.0,-1.0062,-0.9949,-0.9773,-0.9411,0.0,0.0,-0.8056,0.0,-0.6501,-0.6366,-0.5941,-0.6061,-0.6083,-0.557,-0.5746,-0.5862,-0.5687,-0.552,-0.5595,-0.6012,-0.6437,-0.6784,-0.6899,-0.7249,-0.7484,-0.7484,-0.7362,-0.7346,-0.7476,-0.7362,-0.735,-0.748,-0.7484,-0.7561,-0.7723,-0.7642,-0.7638,-0.7714,-0.7638,-0.7561,-0.7573,-0.7598,-0.7641,-0.7735,-0.7865,-0.7914,-0.7892,-0.8024,-0.8167,-0.8308,-0.8539,-0.8612,-0.8612,-0.8612,-0.8612,-0.8612,0.0,0.0,0.0,0.0,0.0,0.0,0.0,0.0,0.0,0.0,0.0,0.0,-2.8288,-2.775,-2.6965,-2.6039,-2.5688,0.0,0.0,0.0,0.0,-2.5114,-2.5252,0.0,-2.489,-2.4541,-2.4082,-2.3599,-2.3552,-2.3949,-2.4802,-2.447,-2.4826,-2.5789,-2.4894,-2.4254,-2.3866,-2.429,-2.4448,-2.4496,-2.4708,-2.4461,-2.3851,-2.2871,-2.1887,-2.096,-2.0429,0.0,0.0,0.0,0.0,0.0,0.0,-1.7529,-1.7155,0.0,0.0,0.0,0.0,-0.9784,0.0,-0.9199,-0.908,0.0,0.0,0.0,-0.7836,-0.7207,-0.6643,-0.6322,-0.6268,-0.5989,-0.5692,-0.5526,-0.545,-0.5366,-0.5243,-0.5128,-0.5171,-0.5598,-0.5977,-0.6395,-0.6865,-0.7249,-0.7484,-0.7484,-0.7476,-0.7476,-0.7484,-0.7476,-0.7476,-0.7484,-0.7484,-0.7522,-0.7522,-0.7684,-0.7991,-0.8365,-0.7953,-0.788,-0.8047,-0.7868,-0.7694,-0.7535,-0.7709,-0.7922,-0.8087,-0.8236,-0.8296,-0.8308,-0.8539,-0.8612,-0.8612,-0.8612,-0.8612,-0.8612,0.0,0.0,0.0,0.0,0.0,0.0,0.0,0.0,0.0,0.0,0.0,0.0,0.0,-2.7653,-2.6824,-2.6077,-2.5435,0.0,0.0,0.0,0.0,-2.5515,-2.5046,-2.5121,-2.5812,-2.462,-2.3984,-2.4016,-2.2885,-2.2801,-2.3617,-2.3182,-2.3136,-2.3522,-2.4539,-2.4927,-2.4771,-2.4951,0.0,0.0,0.0,0.0,0.0,0.0,0.0,0.0,0.0,0.0,0.0,0.0,0.0,0.0,0.0,0.0,0.0,0.0,0.0,0.0,0.0,0.0,0.0,-0.8861,-0.8776,-0.863,-0.7832,-0.7801,-0.7723,-0.6828,-0.6464,-0.6268,-0.6194,-0.5909,-0.5623,-0.5466,-0.533,-0.5211,-0.5094,-0.5042,-0.5057,-0.5212,-0.5629,-0.5959,-0.6067,-0.6864,-0.7341,-0.723,-0.7601,-0.7776,-0.7706,-0.7698,-0.7645,-0.7488,-0.7484,-0.7484,-0.7484,-0.7561,-0.768,-0.7829,-0.7799,-0.7761,-0.7718,-0.779,-0.7751,-0.7688,-0.7887,-0.805,-0.8127,-0.8236,-0.838,-0.8517,-0.8578,-0.8612,-0.8612,-0.8612,-0.8612,-0.8612,0.0,0.0,0.0,0.0,0.0,0.0,0.0,0.0,0.0,-2.7367,0.0,0.0,0.0,0.0,-2.6877,-2.5782,-2.5178,-2.468,-2.434,-2.4869,-2.5375,-2.5785,-2.502,-2.4991,-2.585,-2.4262,-2.3466,-2.3484,-2.2113,-2.1703,-2.2207,-2.1988,-2.1986,-2.2259,-2.3755,-2.4528,0.0,0.0,0.0,-2.5733,0.0,0.0,-2.4826,0.0,0.0,0.0,0.0,0.0,0.0,0.0,0.0,0.0,0.0,0.0,0.0,0.0,0.0,0.0,-1.1163,0.0,0.0,0.0,-0.8415,-0.8238,-0.7661,-0.778,-0.7818,-0.7217,-0.6822,-0.6632,-0.6694,-0.6181,-0.5697,-0.5457,-0.5336,-0.5241,-0.5045,-0.505,-0.5059,-0.5021,-0.5473,-0.5796,-0.5792,-0.6634,-0.7233,-0.7285,-0.7665,-0.7857,-0.7808,-0.78,-0.7714,-0.7488,-0.7484,-0.7484,-0.7484,-0.7484,-0.7522,-0.7603,-0.7684,-0.768,-0.7603,-0.7723,-0.7765,-0.7731,-0.8068,-0.8188,-0.818,-0.8325,-0.8468,-0.8605,-0.8607,-0.8612,-0.8612,-0.8612,-0.8561,-0.852,0.0,0.0,0.0,0.0,0.0,0.0,0.0,0.0,-2.7801,-2.7207,0.0,0.0,0.0,0.0,0.0,-2.5305,-2.5025,-2.4932,-2.4917,-2.5608,-2.5949,-2.5819,0.0,0.0,-2.482,-2.343,-2.2474,-2.1904,-2.1217,-2.0795,-2.0593,-2.0996,-2.152,-2.2161,-2.2502,-2.2932,-2.3497,0.0,-2.5252,-2.5182,0.0,-2.4095,-2.4672,0.0,0.0,0.0,-2.0986,-1.9861,0.0,-1.8264,0.0,0.0,0.0,0.0,0.0,0.0,0.0,0.0,0.0,0.0,0.0,0.0,0.0,0.0,-0.8077,-0.8065,-0.8051,-0.8312,-0.7779,-0.7341,-0.7793,-0.6823,-0.5843,-0.5484,-0.5472,-0.5378,-0.5075,-0.5121,-0.5151,-0.504,-0.5487,-0.5925,-0.6163,-0.6661,-0.7202,-0.7657,-0.7702,-0.7755,-0.7824,-0.7808,-0.7714,-0.7488,-0.7484,-0.7484,-0.7484,-0.7484,-0.7603,-0.7804,-0.7603,-0.7603,-0.7804,-0.7804,-0.7684,-0.7531,-0.8147,-0.8341,-0.8329,-0.8506,-0.8609,-0.8612,-0.8612,-0.8612,-0.8612,-0.8616,-0.8504,-0.8416,0.0,0.0,0.0,0.0,0.0,-2.9767,-2.9348,-2.8552,-2.7947,0.0,0.0,0.0,-2.7051,-2.6587,-2.6301,-2.6274,-2.5821,-2.5539,-2.5559,-2.5734,-2.5849,-2.5864,-2.5418,-2.516,-2.5166,-2.4008,-2.2914,-2.189,-2.1163,-2.0489,-1.9896,-2.0138,-2.0369,-2.0577,-2.1286,-2.1688,-2.1901,-2.3118,0.0,-2.5284,-2.3408,-2.3438,0.0,0.0,0.0,0.0,0.0,-1.9904,-2.0049,0.0,-1.8076,-1.8882,0.0,0.0,0.0,0.0,0.0,0.0,-1.1258,0.0,0.0,0.0,0.0,0.0,-0.7461,-0.7699,-0.7937,-0.7717,-0.7631,-0.7667,-0.7869,-0.7263,-0.6685,-0.6385,-0.5746,-0.5284,-0.5273,-0.5503,-0.555,-0.5317,-0.5707,-0.6065,-0.6125,-0.6574,-0.7106,0.0,-0.7947,-0.8072,-0.815,-0.7939,-0.7714,-0.7488,-0.7484,-0.7484,-0.7484,-0.7484,-0.7522,-0.7603,-0.7684,-0.7684,-0.7603,-0.7723,-0.7684,-0.7539,-0.7925,-0.809,-0.8111,-0.8464,-0.8695,-0.8784,-0.8652,-0.8612,-0.8624,-0.8706,-0.8734,-0.8684,0.0,0.0,0.0,0.0,-2.9959,-2.9579,-2.935,-2.8589,-2.7909,0.0,0.0,0.0,-2.7289,-2.6665,-2.6312,-2.6407,-2.6276,-2.6215,-2.6246,-2.6431,-2.6343,-2.6041,-2.5724,-2.5375,-2.4975,-2.3828,-2.269,-2.1699,-2.0784,-1.9978,-1.931,-1.9291,-1.9512,-1.9825,-2.0234,0.0,0.0,0.0,0.0,0.0,-2.2586,0.0,0.0,-2.1939,-2.1642,0.0,0.0,0.0,-2.0577,-1.7737,-1.7597,0.0,0.0,0.0,0.0,0.0,0.0,0.0,0.0,0.0,0.0,0.0,0.0,0.0,-0.7713,-0.7923,-0.8144,-0.8124,-0.8053,-0.8053,-0.8196,-0.7665,-0.7214,-0.7247,-0.658,-0.5981,-0.5892,-0.5986,-0.6114,-0.6202,-0.6427,-0.6508,-0.6435,-0.6655,-0.7021,-0.7581,-0.7793,-0.8005,-0.8149,-0.7837,-0.7633,-0.7488,-0.7484,-0.7484,-0.7484,-0.7484,-0.7484,-0.7484,-0.7603,-0.7603,-0.7522,-0.7723,-0.7726,-0.7653,-0.7975,-0.8143,-0.8142,-0.8453,-0.8684,-0.8784,-0.8652,-0.8657,-0.8686,-0.8783,-0.8774,-0.8746,0.0,0.0,-2.9777,-3.003,-2.9916,-2.972,-2.9586,-2.8684,-2.7786,0.0,-2.7593,-2.7867,-2.7632,-2.7346,-2.6916,-2.6419,-2.6639,-2.6882,-2.7143,-2.738,-2.7161,-2.6378,-2.604,-2.5432,-2.4442,-2.3147,-2.2106,-2.1341,-2.0264,-1.9448,-1.8869,-1.8664,-1.8893,-1.9541,-1.9297,0.0,0.0,0.0,0.0,-2.2437,-2.1635,-2.1829,0.0,0.0,-2.124,-2.1957,-1.9894,-1.9993,-2.0636,-1.7639,-1.6674,0.0,0.0,0.0,0.0,0.0,-1.5338,0.0,0.0,0.0,0.0,0.0,-0.8625,0.0,-0.8416,-0.836,-0.8402,-0.886,-0.8586,-0.8309,-0.8509,-0.7859,-0.7365,-0.7733,-0.7447,-0.706,-0.67,-0.6656,-0.6834,-0.7282,-0.7341,-0.7252,-0.7043,-0.6951,-0.7119,-0.758,-0.7606,-0.7724,-0.7991,-0.7695,-0.7504,-0.7484,-0.7484,-0.7484,-0.7484,-0.7484,-0.7484,-0.7484,-0.7484,-0.7484,-0.7522,-0.7705,-0.7805,-0.7812,-0.8172,-0.8309,-0.8304,-0.8535,-0.8612,-0.8612,-0.8633,-0.8686,-0.8824,-0.8844,-0.8824,-0.8734,0.0,-2.9094,-2.9146,-2.9364,-2.9495,-2.9257,-2.8343,-2.8129,-2.7876,-2.7352,-2.7453,-2.794,-2.8833,-2.803,-2.776,-2.8564,-2.7837,-2.7758,-2.8782,-2.7994,-2.7377,-2.7116,-2.6173,-2.5134,-2.4039,-2.2959,-2.1967,-2.101,-2.041,-1.9588,-1.8668,-1.8755,-1.8715,-1.8592,-1.8647,0.0,0.0,0.0,0.0,-2.0198,-2.0481,0.0,-2.1735,-2.0672,-2.014,-1.9797,-1.8667,-1.8966,-1.9782,-1.8643,-1.7108,-1.5826,0.0,0.0,0.0,-1.592,0.0,0.0,0.0,0.0,0.0,0.0,0.0,0.0,-0.8401,-0.8205,-0.8058,-0.8139,-0.8103,-0.7971,-0.7656,-0.7302,-0.6917,-0.644,-0.6725,-0.7087,-0.7406,-0.7645,-0.7738,-0.7638,-0.7886,-0.8005,-0.7887,-0.773,-0.7814,-0.8352,-0.8249,-0.8116,-0.8024,-0.7817,-0.7677,-0.7488,-0.7484,-0.7484,-0.7484,-0.7484,-0.7484,-0.7484,-0.7484,-0.7484,-0.7526,-0.7717,-0.7807,-0.7816,-0.8139,-0.8302,-0.8304,-0.8535,-0.8612,-0.8624,-0.8718,-0.8792,-0.884,-0.8991,-0.9153,-0.9163,-2.8638,-2.8616,-2.8724,-2.9382,-2.9098,-2.8623,-2.8163,-2.7966,-2.7789,-2.7597,-2.8222,-2.8829,-2.9248,-2.9013,-2.8913,-2.9284,-2.8739,-2.8647,-2.9284,-2.8127,-2.7119,-2.6491,-2.5337,-2.4185,-2.3089,-2.2323,-2.1628,-2.0886,-2.0334,-1.9772,-1.9231,-1.8909,-1.8818,-1.8914,-1.858,-1.8636,0.0,0.0,-1.9616,-2.0021,-2.0109,0.0,-2.0222,-1.9409,-1.9027,-1.8847,-1.807,-1.8147,-1.8563,-1.8355,-1.783,0.0,0.0,-1.6455,-1.6702,0.0,-1.5592,-1.5227,0.0,0.0,0.0,-1.1657,0.0,0.0,0.0,-0.8505,-0.8163,-0.8108,-0.7966,-0.7793,-0.766,-0.7335,-0.6947,-0.6649,-0.7152,-0.7595,-0.7667,-0.8084,-0.8449,-0.8623,-0.8659,-0.8589,-0.8275,-0.7978,-0.7897,-0.8172,-0.827,-0.8201,-0.8016,-0.7888,-0.7698,-0.7522,-0.7484,-0.7484,-0.7484,-0.7484,-0.7484,-0.7484,-0.7484,-0.7484,-0.7488,-0.7714,-0.7845,-0.7902,-0.8174,-0.8345,-0.8477,-0.8571,-0.8612,-0.862,-0.8662,-0.8747,-0.8844,-0.9031,-0.9153,-0.9202,-2.8431,-2.8315,-2.8461,-2.9668,-2.9139,-2.857,-2.8591,-2.827,-2.8071,-2.8248,-2.9212,-2.9798,-2.964,-2.9928,-2.9923,-2.9567,-2.9243,-2.9155,-2.937,-2.7965,-2.6803,-2.6043,-2.4709,-2.3482,-2.2455,-2.1859,-2.1344,-2.0907,-2.0313,-1.9961,-1.9785,-1.9134,-1.9066,-1.9377,-1.8681,-1.8715,0.0,0.0,0.0,-2.0176,0.0,-1.962,-1.9128,-1.8562,-1.8463,-1.8481,-1.7828,-1.7559,-1.7569,-1.7587,-1.7965,-1.8122,-1.6096,-1.6368,0.0,0.0,0.0,0.0,0.0,0.0,0.0,0.0,0.0,-1.0395,0.0,0.0,0.0,-0.8247,-0.7934,-0.7677,-0.7738,-0.73,-0.6937,-0.6887,0.0,0.0,0.0,-0.8088,0.0,-0.9311,-0.9251,-0.8992,-0.8485,-0.8087,-0.7952,-0.807,-0.8159,-0.816,-0.8102,-0.7934,-0.7751,-0.7586,-0.7521,-0.75,-0.7575,-0.7575,-0.7575,-0.7575,-0.7569,-0.7586,-0.759,-0.7816,-0.7939,-0.8077,-0.8264,-0.843,-0.8612,-0.8612,-0.8612,-0.8616,-0.8649,-0.8723,-0.8889,-0.9003,-0.9088,-0.9129,-2.8255,-2.8255,-2.8535,-2.9847,-3.0114,-2.9972,-2.9436,-2.9479,-2.9551,-2.9587,-2.9863,-3.027,-3.0738,0.0,0.0,0.0,0.0,0.0,-2.9683,0.0,-2.6796,-2.7418,-2.5577,-2.4111,-2.3269,-2.2338,-2.1548,-2.0914,-2.0663,-2.0145,-1.9365,-1.9639,-1.9394,-1.8711,-1.8613,0.0,0.0,0.0,-1.9316,0.0,-1.9665,-1.9857,0.0,-1.9726,-1.9219,-1.8417,-1.769,-1.7423,-1.7338,0.0,-1.636,-1.6213,0.0,-1.5836,-1.5442,-1.6317,0.0,0.0,0.0,0.0,0.0,0.0,-1.2691,0.0,0.0,0.0,-0.8746,-0.8022,0.0,-0.7355,-0.6833,0.0,0.0,-0.5682,-0.6383,-0.6821,-0.6439,-0.7349,-0.8193,-0.8491,-0.9017,-0.9168,-0.8722,-0.8354,-0.8396,-0.9,-0.8266,-0.8006,-0.8497,-0.8081,-0.7837,-0.7947,-0.7646,-0.76,-0.7767,-0.7767,-0.7767,-0.7771,-0.7882,-0.7955,-0.7959,-0.8146,-0.8239,-0.8268,-0.8498,-0.8592,-0.8612,-0.8612,-0.8612,-0.8624,-0.8735,-0.8905,-0.9047,-0.8905,-0.9051,-0.9306,-2.7397,-2.7916,0.0,-2.9384,-2.9529,-2.9491,-2.9362,-2.9879,-3.0206,-2.9857,-3.055,-3.1184,0.0,0.0,0.0,0.0,0.0,-2.9493,0.0,0.0,-2.6359,-2.6607,-2.49,-2.37,-2.3062,-2.2308,-2.1709,-2.1243,-2.081,-2.0419,-2.0067,-1.9951,-1.9679,-1.9329,-1.8594,0.0,-1.9571,0.0,-1.8906,0.0,0.0,0.0,0.0,-1.9203,-1.894,-1.8573,-1.7852,-1.7638,-1.7584,0.0,-1.6492,0.0,0.0,0.0,0.0,0.0,0.0,0.0,0.0,0.0,0.0,0.0,0.0,0.0,-1.1188,0.0,-0.9337,0.0,0.0,0.0,0.0,0.0,0.0,0.0,-0.6909,-0.7098,-0.6504,0.0,-0.8079,-0.7987,-0.8365,-0.8563,-0.843,-0.8601,-0.8771,-0.886,-0.8549,-0.8406,-0.8416,-0.8155,-0.7994,-0.8008,-0.7667,-0.7612,-0.7796,-0.78,-0.78,-0.7804,-0.7935,-0.8012,-0.802,-0.8207,-0.8292,-0.83,-0.8531,-0.8612,-0.8612,-0.8612,-0.8612,-0.8616,-0.8645,-0.8723,-0.8792,-0.8812,-0.8917,-0.9011,-2.645,0.0,0.0,0.0,-2.8954,-2.8949,-2.9126,-2.9897,-3.0252,-2.9829,0.0,0.0,-3.15,-3.1227,0.0,0.0,-3.0245,-2.9571,0.0,0.0,-2.5969,0.0,0.0,0.0,0.0,-2.2281,-2.179,-2.1421,-2.086,-2.0605,-2.0595,-2.0244,-2.0088,-2.004,0.0,-1.906,-1.9574,0.0,-1.8957,-1.9131,-1.8933,-1.874,-1.8532,-1.8422,-1.8438,-1.8395,-1.7501,-1.7526,-1.7765,-1.621,-1.6501,0.0,-1.5538,0.0,0.0,0.0,0.0,0.0,-1.6182,0.0,0.0,0.0,0.0,0.0,0.0,0.0,0.0,0.0,0.0,0.0,0.0,0.0,0.0,0.0,0.0,-0.7412,0.0,-0.7447,0.0,-0.751,-0.7798,0.0,0.0,-0.8592,-0.8776,-0.8658,-0.8677,-0.863,-0.8455,-0.8276,-0.8143,-0.8162,-0.7817,-0.7715,-0.7943,-0.7947,-0.7947,-0.7947,-0.8032,-0.8113,-0.817,-0.8251,-0.8316,-0.8369,-0.8498,-0.8447,-0.836,-0.8313,-0.8285,-0.8292,-0.8348,-0.8448,-0.8555,-0.8686,-0.8812,-0.8889,-2.5484,-2.6665,0.0,0.0,0.0,-2.8885,-2.9057,-2.9459,0.0,0.0,0.0,0.0,0.0,0.0,0.0,0.0,0.0,-2.7928,-2.8017,0.0,-2.5905,0.0,0.0,-2.3876,0.0,0.0,-2.1855,-2.119,-2.0781,-2.0605,-2.0605,-2.0586,-2.0586,-2.0586,-2.0527,-2.0168,-1.964,-2.0459,-1.9744,-1.8095,-1.8722,-1.8171,-1.7054,0.0,-1.7901,-1.7569,-1.6315,0.0,0.0,-1.6088,-1.5744,0.0,0.0,0.0,0.0,0.0,0.0,0.0,0.0,0.0,0.0,-1.5088,0.0,0.0,0.0,0.0,-1.1143,0.0,0.0,0.0,0.0,0.0,0.0,0.0,0.0,0.0,0.0,-0.7308,-0.7237,-0.6972,-0.7464,0.0,0.0,-0.8189,-0.8367,-0.8767,-0.8427,-0.842,-0.8859,-0.8502,-0.84,-0.8588,-0.8191,-0.8085,-0.8272,-0.8272,-0.8272,-0.8272,-0.828,-0.8377,-0.8588,-0.8369,-0.839,-0.8592,-0.8377,-0.8083,-0.7742,-0.7653,-0.7555,-0.7481,-0.7726,-0.8016,-0.8321,-0.8551,-0.8796,-0.9064,0.0,0.0,0.0,0.0,0.0,0.0,0.0,-2.815,0.0,0.0,0.0,0.0,0.0,-2.8669,-2.8656,0.0,0.0,-2.7558,-2.7302,-2.5928,0.0,0.0,0.0,-2.378,0.0,0.0,0.0,0.0,-2.1367,-2.1006,-2.0996,-2.0703,-2.0449,-2.0146,-1.9848,-1.9426,0.0,0.0,0.0,0.0,0.0,-1.6965,-1.5895,0.0,-1.7217,-1.7044,-1.614,-1.6105,0.0,-1.5275,-1.5012,-1.51,-1.4841,-1.4684,-1.4571,-1.4508,-1.4466,-1.4478,0.0,0.0,-1.4085,-1.4673,0.0,0.0,0.0,0.0,0.0,0.0,0.0,0.0,0.0,0.0,0.0,0.0,0.0,0.0,0.0,-0.7486,-0.7296,-0.707,-0.7361,0.0,0.0,-0.8061,-0.8368,-0.8273,-0.8396,-0.852,-0.8696,-0.8433,-0.8377,-0.8604,-0.8207,-0.8101,-0.8288,-0.8292,-0.8227,-0.8109,-0.8357,-0.8377,-0.8203,-0.8264,-0.8325,-0.8381,-0.8014,-0.7795,-0.7723,-0.7414,-0.7425,-0.7692,-0.7764,-0.8082,-0.8526,-0.8588,-0.869,-0.8771,-2.4336,0.0,0.0,0.0,0.0,0.0,0.0,0.0,0.0,0.0,-2.7281,0.0,-2.7798,0.0,-2.7568,0.0,-2.7391,-2.6838,-2.648,-2.5578,0.0,-2.4591,-2.4079,0.0,0.0,0.0,0.0,0.0,0.0,-2.0899,-2.0719,-2.0329,-2.0022,-1.9762,-1.9522,-1.9028,-1.8397,-1.8665,-1.8201,0.0,0.0,-1.6046,0.0,0.0,-1.6341,-1.6585,0.0,-1.5551,-1.5675,-1.4738,-1.4439,-1.4429,-1.4026,-1.4008,-1.4079,-1.3811,-1.3823,-1.3892,-1.4019,-1.3759,-1.3545,-1.4117,-1.3918,0.0,-1.3537,0.0,-1.2919,0.0,0.0,0.0,0.0,0.0,0.0,0.0,0.0,0.0,0.0,-0.7698,-0.7482,-0.7346,-0.741,0.0,0.0,-0.7845,-0.8154,-0.8232,-0.8388,-0.85,-0.8653,-0.8487,-0.8486,-0.8608,-0.8337,-0.8268,-0.839,-0.8321,-0.8264,-0.8211,-0.8316,-0.8312,-0.8211,-0.8268,-0.8292,-0.8288,-0.7816,-0.7543,-0.7379,-0.6954,-0.6944,-0.7166,-0.7278,-0.7596,-0.8036,-0.8452,-0.8557,-0.8475,0.0,0.0,0.0,0.0,-2.5115,0.0,0.0,0.0,-2.6322,0.0,-2.6592,-2.7082,-2.7389,-2.6389,-2.6117,-2.7173,-2.6417,-2.5757,-2.5627,-2.5574,0.0,0.0,-2.3947,-2.3711,-2.3503,0.0,0.0,0.0,0.0,-2.0351,-1.9916,-1.9494,-1.9374,-1.9516,-1.9543,0.0,-1.7991,-1.9029,-1.8355,-1.6569,-1.5913,-1.5475,-1.5104,-1.4704,-1.5232,-1.6062,-1.4982,-1.5081,-1.5536,-1.4463,-1.4093,-1.3997,-1.3664,-1.3363,-1.3068,-1.3068,-1.2861,-1.267,-1.3004,-1.3068,-1.3147,-1.3473,-1.3594,0.0,0.0,0.0,-1.2923,0.0,0.0,0.0,0.0,0.0,0.0,0.0,0.0,0.0,0.0,0.0,-0.7794,-0.7696,-0.7594,0.0,0.0,-0.7471,-0.7819,-0.8598,-0.836,-0.8344,0.0,-0.867,-0.858,-0.8624,-0.8624,-0.8624,-0.8624,-0.8398,-0.839,-0.8596,-0.8207,-0.8215,-0.8575,-0.8365,-0.8288,-0.8245,-0.7773,-0.7221,-0.6649,-0.6324,-0.6129,-0.6035,-0.6287,-0.6618,-0.7039,-0.8106,-0.8426,-0.8265,-2.3387,-2.3266,-2.3266,0.0,-2.3787,-2.3927,0.0,0.0,0.0,0.0,-2.4559,-2.4664,-2.476,-2.4695,-2.4848,-2.549,-2.5255,0.0,0.0,0.0,0.0,-2.4432,-2.4022,-2.3797,-2.3711,-2.3081,0.0,-2.2467,0.0,-2.0221,-2.012,-1.9399,-1.8757,-1.8215,0.0,0.0,-1.7058,-1.7334,-1.6635,-1.5352,-1.5279,-1.5019,-1.4597,0.0,-1.431,-1.4991,-1.4705,-1.4572,-1.4506,-1.421,-1.3775,-1.3338,-1.3251,-1.3012,-1.2734,-1.2734,-1.2662,-1.2614,-1.2702,-1.2734,-1.2813,-1.3132,-1.3219,-1.325,-1.3345,-1.3534,0.0,0.0,0.0,0.0,0.0,0.0,0.0,0.0,0.0,0.0,0.0,0.0,0.0,-0.7775,0.0,0.0,-0.7219,-0.7222,-0.7397,-0.7897,-0.7858,-0.8096,-0.875,-0.8648,-0.8579,-0.8755,-0.8755,-0.8755,-0.8755,-0.8584,-0.8494,-0.8361,-0.8406,-0.8329,-0.8158,-0.8251,-0.8118,-0.7773,-0.73,-0.687,-0.6461,-0.6022,-0.6016,-0.629,-0.636,-0.6739,-0.7244,-0.7436,-0.774,-0.8067,-2.3025,0.0,0.0,-2.3235,0.0,0.0,-2.3489,-2.375,0.0,-2.3957,-2.4055,0.0,-2.412,-2.4239,-2.4438,-2.4695,-2.4705,0.0,-2.4941,0.0,0.0,-2.4355,-2.4112,-2.3927,-2.3797,-2.3319,0.0,-2.221,0.0,-1.9991,-1.9477,-1.8583,-1.7903,-1.746,0.0,-1.7292,-1.6541,-1.6218,-1.5655,-1.4937,-1.4693,-1.4494,0.0,-1.3682,-1.3746,-1.4101,-1.4101,-1.41,-1.4093,-1.3934,-1.3529,-1.3068,-1.2941,-1.275,-1.259,-1.259,-1.259,-1.259,-1.259,-1.259,-1.2646,-1.2837,-1.2893,-1.2909,-1.2979,-1.3276,-1.3308,0.0,-1.2813,-1.2923,-1.2116,0.0,0.0,0.0,0.0,0.0,0.0,0.0,0.0,0.0,-0.7752,-0.7581,-0.7656,-0.7316,-0.7308,-0.7869,-0.7789,-0.8044,0.0,-0.8688,-0.8733,-0.8956,-0.8943,-0.8905,-0.882,-0.8653,-0.8559,-0.841,-0.8477,-0.8381,-0.826,-0.8142,-0.7885,-0.7564,-0.694,-0.6545,-0.6268,-0.5941,-0.5938,-0.6166,-0.6267,-0.6563,-0.6944,-0.6865,-0.7207,-0.774,-2.2872,0.0,0.0,0.0,0.0,0.0,0.0,-2.3762,0.0,-2.4204,0.0,-2.4473,-2.4423,-2.4414,-2.4414,-2.4414,0.0,-2.4349,-2.4239,-2.4411,-2.4411,-2.4249,-2.4249,-2.411,-2.3841,-2.345,-2.2698,0.0,0.0,-1.949,-1.8523,-1.7524,-1.7009,-1.6894,0.0,0.0,0.0,-1.5488,-1.5065,-1.4729,-1.4163,-1.3877,-1.3803,-1.3462,-1.3382,-1.3419,-1.3419,-1.3607,-1.386,-1.3553,-1.3232,-1.2909,-1.2632,-1.256,-1.259,-1.259,-1.259,-1.259,-1.259,-1.259,-1.259,-1.259,-1.259,-1.259,-1.259,-1.2775,-1.2867,-1.266,-1.2775,-1.2867,-1.259,0.0,0.0,0.0,0.0,0.0,0.0,0.0,0.0,0.0,0.0,0.0,-0.8249,-0.7619,-0.7443,-0.8102,-0.7839,0.0,0.0,0.0,-0.8853,-0.917,-0.915,-0.9031,-0.8889,-0.8698,-0.8645,-0.8645,-0.8414,-0.841,-0.8568,-0.8032,-0.7683,-0.7511,-0.6731,-0.6289,-0.6135,-0.5955,-0.5912,-0.5939,-0.6062,-0.6297,-0.6531,-0.6596,-0.6963,-0.7453,0.0,0.0,0.0,0.0,0.0,-2.1888,-2.2144,-2.332,-2.4201,-2.4217,-2.4397,-2.436,-2.4043,-2.3991,-2.3991,-2.3991,-2.3991,0.0,0.0,0.0,0.0,-2.4454,-2.4464,-2.4325,-2.411,-2.2721,-2.2022,0.0,-1.9478,-1.8251,-1.8263,-1.7232,-1.6476,0.0,0.0,0.0,-1.4681,-1.4948,0.0,-1.3531,-1.3509,-1.3317,-1.2978,-1.2641,-1.2709,-1.301,-1.301,-1.2927,-1.2762,-1.271,-1.2523,-1.2266,-1.2205,-1.2375,-1.259,-1.259,-1.259,-1.259,-1.259,-1.259,-1.259,-1.259,-1.259,-1.259,-1.259,-1.2652,-1.2652,-1.2598,-1.2652,-1.256,-1.2251,0.0,0.0,0.0,0.0,0.0,0.0,0.0,0.0,0.0,0.0,-0.7768,0.0,-0.7585,-0.7525,-0.7911,0.0,0.0,0.0,0.0,-0.8384,-0.9086,-0.9126,-0.9153,0.0,-0.8938,-0.8775,-0.8775,-0.8601,-0.858,-0.8568,-0.8032,-0.757,-0.7146,-0.664,-0.6212,-0.5935,-0.5931,-0.5961,-0.6067,-0.6237,-0.6426,-0.6677,-0.6981,-0.7285,-0.7542,0.0,0.0,0.0,0.0,0.0,0.0,0.0,-2.1898,-2.229,-2.2129,-2.2984,-2.3404,-2.2822,-2.3423,-2.3604,-2.2985,-2.3156,-2.3097,-2.2673,-2.2639,-2.2639,-2.2639,-2.2639,-2.2517,-2.235,-2.1475,-2.0953,-2.0746,-1.9031,-1.8118,-1.7972,-1.6942,-1.624,-1.5906,0.0,-1.4962,0.0,0.0,-1.3699,-1.3173,-1.2934,-1.2706,-1.2536,-1.2358,-1.2415,-1.2599,-1.2599,-1.2427,-1.2221,-1.2441,-1.2225,-1.184,-1.184,-1.1934,-1.212,-1.2282,-1.2344,-1.2375,-1.256,-1.259,-1.259,-1.259,-1.259,-1.259,-1.259,-1.2652,-1.2683,-1.2621,-1.2652,-1.259,-1.2158,-1.1389,-1.0564,0.0,0.0,0.0,0.0,0.0,0.0,0.0,0.0,0.0,0.0,0.0,0.0,0.0,0.0,0.0,0.0,0.0,-0.8635,0.0,0.0,0.0,-0.9404,0.0,-0.8917,-0.882,-0.8649,-0.8432,-0.8164,-0.7672,-0.7183,-0.67,-0.6326,-0.6028,-0.5912,-0.604,-0.6162,-0.6274,-0.6484,-0.6703,-0.7002,-0.7316,-0.7593,-0.7783,0.0,-2.202,0.0,0.0,-2.0884,-2.0549,-2.0167,-1.9991,-2.0004,-2.0244,-2.1454,-2.2013,-2.1308,-2.2199,-2.2524,-2.153,-2.1794,-2.1646,-2.0792,-2.0747,-2.0792,-2.0836,-2.0802,-2.0722,-2.0561,-2.0228,-1.9842,-1.9352,-1.857,-1.7956,-1.7443,-1.6637,-1.608,0.0,0.0,0.0,0.0,-1.3483,-1.3162,-1.3073,-1.2592,-1.2358,-1.2305,-1.2305,-1.2305,-1.2305,-1.2305,-1.2118,-1.1937,-1.2261,-1.2032,-1.1553,-1.1519,-1.1529,-1.1654,-1.1996,-1.2096,-1.2158,-1.2498,-1.259,-1.259,-1.259,-1.259,-1.259,-1.259,-1.2683,-1.2713,-1.2621,-1.2683,-1.2652,-1.2282,-1.1747,-1.1005,0.0,0.0,0.0,0.0,0.0,0.0,0.0,0.0,0.0,-0.8224,-0.8242,-0.8012,-0.7301,0.0,0.0,-0.829,0.0,-0.8767,-0.9259,-0.93,-0.9367,-0.9404,0.0,-0.9023,-0.8877,-0.8577,-0.8208,-0.776,-0.7228,-0.6757,-0.6436,-0.6042,-0.5931,-0.5996,-0.6214,-0.6407,-0.6489,-0.6742,-0.6992,-0.7291,-0.7543,-0.7793,-0.7988,0.0,0.0,0.0,0.0,0.0,-1.8267,-1.8171,-1.7851,-1.8326,-2.0281,-2.0494,-2.0248,-1.9762,-1.9807,-1.986,-1.9728,-1.9772,-1.9918,-2.0262,-2.0288,-2.0378,-2.0603,-2.0492,-2.0455,-2.0438,-1.9436,-1.8972,0.0,-1.7723,-1.6891,-1.6423,-1.633,-1.5771,0.0,0.0,-1.4385,-1.3598,-1.3554,-1.326,-1.2824,-1.2764,-1.2583,-1.2305,-1.2305,-1.2305,-1.2305,-1.2305,-1.2118,-1.1899,-1.1943,-1.1744,-1.1455,-1.1213,-1.1373,-1.1654,-1.1996,-1.2096,-1.2158,-1.2498,-1.259,-1.259,-1.259,-1.259,-1.259,-1.259,-1.2598,-1.2621,-1.259,-1.2598,-1.2598,-1.2567,-1.1476,-1.047,0.0,0.0,0.0,0.0,0.0,-0.7848,-0.7559,0.0,0.0,-0.7639,-0.8177,-0.8346,-0.7784,-0.756,0.0,0.0,-0.7955,-0.8111,-0.8828,-0.9027,-0.9198,-0.94,-0.9181,-0.9088,-0.9068,-0.8271,-0.7852,-0.776,-0.6874,-0.6499,-0.6572,-0.6082,-0.6029,-0.6292,-0.6369,-0.6528,-0.6742,-0.6795,-0.7095,-0.7547,-0.7596,-0.7793,-0.7988,0.0,0.0,0.0,0.0,0.0,0.0,-1.7232,-1.6905,-1.7033,-1.7894,-1.8792,-1.9082,-1.8254,-1.8957,-1.922,-1.8466,-1.8678,-1.8605,-1.8072,-1.8033,-1.8034,-1.7971,-1.7922,-1.7937,-1.7998,-1.7266,-1.7031,0.0,0.0,0.0,-1.5929,-1.5956,-1.5416,-1.4524,-1.4392,-1.4179,-1.3831,-1.348,-1.3347,-1.3253,-1.2931,-1.2717,-1.2589,-1.2371,-1.2305,-1.2305,-1.2305,-1.2225,-1.2104,-1.196,-1.1701,-1.1404,-1.1137,-1.1139,-1.1265,-1.1462,-1.1498,-1.156,-1.191,-1.1996,-1.1996,-1.1996,-1.1996,-1.2058,-1.2251,-1.2313,-1.2344,-1.2567,-1.259,-1.2529,-1.2344,-1.132,-1.027,-0.9509,0.0,0.0,0.0,0.0,0.0,-0.7231,0.0,0.0,0.0,-0.7972,-0.8371,-0.8282,0.0,0.0,0.0,-0.8376,-0.8605,-0.9154,0.0,-0.8752,-0.9018,-0.886,-0.8779,-0.8775,-0.8246,-0.7865,-0.7633,-0.6863,-0.6489,-0.6406,-0.6216,-0.6217,-0.6374,-0.657,-0.6692,-0.6845,-0.7144,-0.7394,-0.7596,-0.7793,-0.7892,-0.7988,-1.8857,-1.8502,-1.7973,-1.7288,-1.7175,-1.6992,-1.6509,-1.6273,-1.6146,-1.6146,-1.7174,-1.7638,-1.6951,-1.7809,-1.8079,-1.7225,-1.7436,-1.725,-1.644,-1.6346,-1.6261,-1.6102,-1.6043,0.0,-1.6155,-1.5749,-1.5698,-1.6002,-1.5929,0.0,-1.5304,-1.5357,-1.4991,-1.4314,-1.4192,-1.4081,-1.3935,-1.3607,-1.3487,-1.344,-1.3053,-1.2817,-1.263,-1.2385,-1.2305,-1.2305,-1.2305,-1.2305,-1.2271,-1.2064,-1.1857,-1.1617,-1.1236,-1.1062,-1.1014,-1.1159,-1.1161,-1.1185,-1.1498,-1.1591,-1.1591,-1.1591,-1.1591,-1.1654,-1.1903,-1.1934,-1.2027,-1.2251,-1.236,-1.2265,-1.1786,-1.101,-1.0105,-0.9164,0.0,0.0,0.0,-0.718,0.0,0.0,-0.7351,-0.7439,-0.7298,-0.7915,-0.8312,-0.8433,0.0,0.0,0.0,-0.8771,-0.8922,-0.9238,0.0,0.0,-0.8754,-0.85,-0.8349,-0.8345,-0.7927,-0.7574,-0.7349,-0.678,-0.6437,-0.632,-0.6304,-0.6413,-0.6539,-0.6742,-0.6895,-0.7095,-0.7447,-0.7646,-0.7743,-0.7942,-0.7988,-0.7988,-1.8059,-1.7306,-1.6663,-1.6375,-1.6328,-1.6179,-1.5838,-1.5791,-1.5832,-1.5832,-1.5832,-1.5832,-1.5825,-1.5825,-1.5825,-1.5825,-1.5832,-1.5832,-1.5832,-1.5832,-1.5799,0.0,0.0,-1.5613,-1.5619,-1.5451,-1.5333,-1.5104,0.0,0.0,-1.4412,-1.4468,-1.4369,-1.4102,-1.4382,-1.4146,-1.3626,-1.3955,-1.3748,-1.3213,-1.3206,-1.2846,-1.2305,-1.2305,-1.2305,-1.2305,-1.2305,-1.2305,-1.2305,-1.2298,-1.2291,-1.2191,-1.1568,-1.1223,-1.1055,-1.1416,-1.1297,-1.1185,-1.1498,-1.1591,-1.1591,-1.1591,-1.1591,-1.1591,-1.1622,-1.1622,-1.1622,-1.1622,-1.1809,-1.1761,-1.0969,-1.0482,-0.992,-0.9115,0.0,0.0,0.0,-0.7633,0.0,-0.7496,-0.7797,-0.7873,-0.753,-0.7987,0.0,0.0,0.0,0.0,0.0,-0.882,-0.882,-0.8824,-0.8651,0.0,-0.8594,-0.8056,-0.7811,-0.7811,-0.714,-0.6794,-0.68,-0.6452,-0.6314,-0.6322,-0.6385,-0.6537,-0.6795,-0.6795,-0.7095,-0.7596,-0.7596,-0.7743,-0.7988,-0.7988,-0.7988,-0.7988,-1.6869,-1.6441,-1.6079,-1.5985,-1.5972,-1.5939,-1.5798,-1.5784,-1.5784,-1.5784,-1.5784,-1.5784,-1.5784,-1.5784,-1.5784,0.0,-1.5784,-1.5784,0.0,-1.5784,-1.5658,-1.5266,-1.519,-1.5119,-1.4986,-1.467,-1.4622,-1.4824,-1.4841,-1.4729,-1.4462,-1.4476,-1.4213,-1.3746,-1.384,-1.378,-1.3593,-1.3534,-1.3494,-1.3427,-1.306,-1.2817,-1.2623,-1.2378,-1.2305,-1.2305,-1.2305,-1.2305,-1.2305,-1.2305,-1.2305,-1.2271,-1.2084,-1.1824,-1.1584,-1.1485,-1.1357,-1.1302,-1.1202,-1.118,-1.1164,-1.0957,-1.0548,-1.0218,-1.0471,-1.0425,-1.0366,-1.0366,-1.0517,-1.0498,-0.9993,-0.9437,-0.8876,-0.8385,-0.7849,0.0,-0.7391,0.0,-0.7457,-0.7319,-0.7302,-0.731,-0.7302,-0.7796,-0.813,0.0,0.0,0.0,0.0,-0.9079,0.0,0.0,-0.8471,0.0,-0.8213,-0.7668,-0.7372,-0.7368,-0.7133,-0.6831,-0.6455,-0.638,-0.6382,-0.6385,-0.6371,-0.6539,-0.6795,-0.6992,-0.7291,-0.7596,-0.7793,-0.7942,-0.7988,-0.7988,-0.7988,-0.7988,-1.6126,-1.5952,-1.5784,-1.5784,-1.5784,-1.5784,-1.5784,-1.5784,-1.5784,-1.5784,-1.5784,-1.5784,-1.5784,-1.5784,-1.5784,-1.5784,-1.5784,-1.5784,-1.5784,-1.5784,-1.5571,-1.5035,-1.5008,-1.4859,-1.4461,-1.4208,-1.4208,-1.4447,-1.439,-1.4355,-1.4355,-1.4199,-1.3953,-1.36,-1.3487,-1.35,-1.3586,-1.3293,-1.3313,-1.34,-1.2985,-1.2717,-1.2596,-1.2371,-1.2305,-1.2305,-1.2305,-1.2305,-1.2305,-1.2305,-1.2305,-1.2305,-1.2305,-1.1995,-1.1611,-1.1572,-1.1516,-1.1315,-1.0832,-1.0714,-1.0608,-1.0126,-0.9649,-0.9379,-0.9577,-0.9561,-0.9508,-0.9508,-0.9667,-0.9662,-0.9141,-0.8785,-0.8411,-0.7911,-0.7635,-0.7423,-0.7211,0.0,-0.7306,0.0,0.0,-0.7163,-0.7384,-0.7845,-0.8109,0.0,0.0,0.0,0.0,0.0,-0.9303,-0.9099,-0.8304,-0.7845,-0.7686,-0.7185,-0.6886,-0.6886,-0.6854,-0.6672,-0.6333,-0.6404,-0.6387,-0.6387,-0.6489,-0.6689,-0.6992,-0.7241,-0.7494,-0.7743,-0.7942,-0.7988,-0.7988,-0.7988,-0.7988,-0.7998,-1.5838,-1.5784,-1.5784,-1.5784,-1.5784,-1.5784,-1.5784,-1.5784,-1.5784,-1.5784,-1.5784,-1.5784,-1.5784,-1.5784,-1.5771,-1.5751,-1.5751,-1.5744,-1.5772,-1.5718,-1.5518,-1.5001,-1.4981,-1.4713,-1.4095,-1.4088,-1.4088,-1.4088,-1.4068,-1.4068,-1.4082,-1.374,-1.3593,-1.356,-1.3307,-1.3327,-1.3527,-1.3293,-1.3186,-1.3186,-1.2938,-1.265,-1.2365,-1.2365,-1.2365,-1.2365,-1.2345,-1.2331,-1.2325,-1.2311,-1.2261,-1.2231,-1.2231,-1.1669,-1.1137,-1.169,-1.1598,-1.1132,-1.0351,-1.0136,-0.9956,-0.9195,-0.898,-0.891,-0.8875,-0.8855,-0.8865,-0.8865,-0.9118,-0.9134,-0.8378,-0.8473,-0.8379,-0.7654,-0.7512,-0.746,-0.7252,-0.7127,-0.7191,-0.7496,-0.7381,-0.7421,-0.7786,-0.8102,-0.8142,0.0,0.0,0.0,0.0,0.0,-0.9116,-0.8594,-0.821,-0.7739,-0.7188,-0.6686,-0.6387,-0.6387,-0.6387,-0.6387,-0.6387,-0.6387,-0.6387,-0.6437,-0.6692,-0.6942,-0.7238,-0.7494,-0.7743,-0.7988,-0.7988,-0.7988,-0.7992,-0.8002,-0.8005,-0.8025,-1.5798,-1.5784,-1.5784,-1.5784,-1.5784,-1.5784,-1.5784,-1.5784,-1.5784,-1.5784,-1.5784,-1.5784,-1.5784,-1.5784,-1.5738,-1.5518,-1.5498,-1.5404,-1.5184,-1.517,-1.5003,-1.4643,-1.4623,-1.4456,-1.4095,-1.4088,-1.4088,-1.4088,-1.3854,-1.3868,-1.4082,-1.374,-1.3487,-1.326,-1.2993,-1.2931,-1.2991,-1.2924,-1.2993,-1.32,-1.3133,-1.306,-1.2999,-1.2999,-1.2999,-1.2966,-1.2764,-1.2683,-1.2643,-1.2378,-1.1892,-1.1372,-1.1372,-1.0838,-1.034,-1.107,-1.0819,-1.0169,-0.9766,-0.968,-0.9564,-0.9092,-0.8634,-0.8106,-0.7584,-0.7559,-0.7632,-0.7632,-0.7816,-0.7909,-0.7723,-0.788,-0.7971,-0.7774,-0.7805,-0.7829,-0.7698,-0.7707,-0.7771,0.0,-0.7788,-0.7845,-0.7926,-0.8004,-0.8162,0.0,0.0,-0.8877,-0.9196,-0.8957,-0.8735,-0.8594,-0.821,-0.7739,-0.7188,-0.6686,-0.6387,-0.6387,-0.6387,-0.6387,-0.6387,-0.6387,-0.6489,-0.6692,-0.6792,-0.7045,-0.7494,-0.7596,-0.7743,-0.7988,-0.7988,-0.7988,-0.8005,-0.8174,-0.8214,-0.8238,-1.5784,-1.5784,-1.5784,-1.5784,-1.5784,-1.5784,-1.5784,-1.5784,-1.5784,-1.5784,-1.5784,-1.5784,-1.5784,-1.5712,-1.5518,-1.5224,-1.5317,-1.5277,-1.5028,-1.5008,-1.483,-1.4492,-1.4522,-1.4322,-1.3895,-1.3881,-1.3881,-1.3881,-1.368,-1.3753,-1.4075,-1.3647,-1.332,-1.3193,-1.2739,-1.2656,-1.2777,-1.2643,-1.2799,-1.316,-1.2707,-1.2608,-1.2724,-1.2359,-1.2234,-1.2196,-1.1872,-1.1735,-1.1692,-1.134,-1.0913,-1.0539,-1.0539,-1.0013,-0.9448,-0.9868,-0.9938,-0.9793,-0.9261,-0.9119,-0.9015,-0.8456,-0.8029,-0.7666,-0.7306,-0.7273,-0.7342,-0.7342,-0.7419,-0.7547,-0.7633,-0.7731,-0.78,-0.78,-0.7954,-0.7954,-0.7698,-0.7904,-0.7983,-0.7812,-0.7983,-0.8105,-0.802,-0.8235,-0.8398,-0.8438,-0.8788,0.0,-0.8887,-0.8761,-0.8601,-0.8311,-0.7895,-0.7388,-0.6836,-0.6537,-0.6387,-0.6387,-0.6387,-0.6387,-0.6387,-0.6387,-0.6539,-0.6795,-0.6942,-0.7241,-0.7596,-0.7746,-0.7892,-0.7988,-0.7988,-0.7988,-0.8008,-0.8214,-0.8323,-0.835,-1.5784,-1.5784,-1.5784,-1.5784,-1.5784,-1.5784,-1.5784,-1.5784,-1.5784,-1.5784,-1.5784,-1.5784,-1.5784,-1.5611,-1.5331,-1.5035,-1.519,-1.519,-1.4901,-1.4874,-1.4696,-1.4402,-1.4429,-1.4202,-1.3613,-1.36,-1.36,-1.36,-1.36,-1.3733,-1.4008,-1.3467,-1.3186,-1.312,-1.2439,-1.2289,-1.2507,-1.2153,-1.2343,-1.2784,-1.1901,-1.1778,-1.2009,-1.1318,-1.106,-1.1026,-1.0662,-1.0534,-1.0456,-1.0052,-0.9857,-0.9744,-0.9744,-0.9188,-0.8513,-0.8513,-0.8993,-0.941,-0.8699,-0.8513,-0.836,-0.7676,-0.7484,-0.7484,-0.7484,-0.7484,-0.7484,-0.7484,-0.7543,-0.7612,-0.7771,-0.7845,-0.7882,-0.7882,-0.8038,-0.802,-0.7665,-0.7959,-0.812,-0.7922,-0.8237,-0.8349,-0.8191,-0.8568,-0.8718,-0.8471,-0.894,-0.8985,-0.8415,-0.8481,-0.8333,-0.7889,-0.7437,-0.6936,-0.6387,-0.6387,-0.6387,-0.6387,-0.6387,-0.6387,-0.6387,-0.6437,-0.6589,-0.6892,-0.7138,-0.7391,-0.7696,-0.7892,-0.7988,-0.7992,-0.8015,-0.8025,-0.8046,-0.8272,-0.8336,-0.8377,-1.5784,-1.5784,-1.5784,-1.5784,-1.5784,-1.5784,-1.5784,-1.5784,-1.5784,-1.5784,-1.5784,-1.5784,-1.5784,-1.5744,-1.5545,-1.5055,-1.5048,-1.4847,-1.4262,-1.4222,-1.4088,-1.3753,-1.4021,-1.3995,-1.3613,-1.36,-1.36,-1.36,-1.36,-1.3626,-1.3666,-1.3367,-1.3073,-1.2806,-1.174,-1.1322,-1.1334,-1.0818,-1.0903,-1.1335,-1.1044,-1.1179,-1.1464,-1.1006,-1.0842,-1.0809,-1.0662,-1.0573,-1.054,-1.0258,-0.9717,-0.9112,-0.8927,-0.8318,-0.7672,-0.7672,-0.7787,-0.7859,-0.771,-0.7672,-0.7672,-0.7522,-0.7484,-0.7484,-0.7484,-0.7484,-0.7484,-0.7484,-0.7649,-0.7767,-0.7796,-0.8049,-0.8207,-0.8207,-0.8249,-0.8237,-0.817,-0.8367,-0.8529,-0.8486,-0.8755,-0.8962,-0.893,-0.8865,-0.8922,-0.922,-0.8773,-0.8533,-0.8735,-0.7908,-0.7385,-0.7338,-0.7238,-0.6936,-0.6387,-0.6387,-0.6387,-0.6387,-0.6387,-0.6387,-0.6387,-0.6639,-0.6892,-0.7138,-0.7441,-0.7693,-0.7939,-0.7988,-0.7988,-0.8002,-0.8184,-0.8235,-0.8269,-0.854,-0.8642,-0.8665,-1.5784,-1.5784,-1.5635,-1.5112,-1.4968,-1.4968,-1.4968,-1.4444,-1.4204,-1.4782,-1.4369,-1.4037,-1.4037,-1.4007,-1.3919,-1.3665,-1.351,-1.3275,-1.2979,-1.3593,-1.387,-1.3606,-1.3696,-1.342,-1.2685,-1.3002,-1.2844,-1.2203,-1.2673,-1.2743,-1.2413,-1.2147,-1.1948,-1.1812,-1.0968,-1.0663,-1.0743,-1.028,-1.0351,-1.0739,-1.0304,-1.0326,-1.0485,-1.0004,-0.9765,-0.9614,-0.9364,-0.9247,-0.9213,-0.8846,-0.8508,-0.8165,-0.8093,-0.7787,-0.7484,-0.7484,-0.7484,-0.7484,-0.7484,-0.7484,-0.7484,-0.7484,-0.7484,-0.7547,-0.7649,-0.7596,-0.7537,-0.7728,-0.7804,-0.789,-0.8184,-0.8371,-0.8471,-0.856,-0.866,-0.8704,-0.8576,-0.8734,-0.8836,-0.8702,-0.8938,-0.9023,-0.8832,-0.8909,-0.8999,-0.9064,-0.8698,-0.8394,-0.8244,-0.7592,-0.7089,-0.6786,-0.6723,-0.6593,-0.6344,-0.6344,-0.6344,-0.6347,-0.6407,-0.6487,-0.6639,-0.6742,-0.7042,-0.7441,-0.7547,-0.7743,-0.7988,-0.7988,-0.7988,-0.7995,-0.8116,-0.8197,-0.8347,-0.8509,-0.8638,-0.873,-1.5099,-1.5099,-1.486,-1.4046,-1.395,-1.395,-1.395,-1.3149,-1.2836,-1.3596,-1.3049,-1.2573,-1.2573,-1.2581,-1.2588,-1.253,-1.2258,-1.2077,-1.202,-1.2854,-1.329,-1.308,-1.2962,-1.257,-1.1795,-1.2221,-1.2028,-1.1059,-1.1786,-1.1888,-1.1381,-1.1185,-1.1025,-1.0917,-1.0247,-1.0024,-1.0175,-0.9642,-0.9696,-1.011,-0.9506,-0.9384,-0.9499,-0.8922,-0.8626,-0.8447,-0.8141,-0.8046,-0.7985,-0.7687,-0.7599,-0.7638,-0.7603,-0.7599,-0.7638,-0.7603,-0.7522,-0.7484,-0.7484,-0.7484,-0.7484,-0.7484,-0.7484,-0.7571,-0.7755,-0.769,-0.7634,-0.7951,-0.7943,-0.8053,-0.8469,-0.858,-0.8621,-0.8792,-0.8906,-0.8997,-0.882,-0.9026,-0.9109,-0.8889,-0.9084,-0.9116,-0.884,-0.8967,-0.8969,-0.883,-0.8453,-0.8108,-0.7667,-0.7251,-0.6796,-0.6396,-0.6339,-0.6309,-0.6309,-0.6309,-0.6309,-0.6309,-0.6393,-0.6539,-0.6795,-0.6842,-0.7144,-0.7596,-0.7646,-0.7793,-0.7988,-0.7988,-0.7988,-0.7995,-0.8066,-0.8214,-0.8391,-0.8523,-0.8662,-0.8781,-1.292,-1.292,-1.292,-1.2829,-1.2829,-1.2829,-1.2829,-1.2764,-1.2705,-1.2802,-1.2791,-1.2789,-1.2789,-1.2842,-1.2778,-1.2503,-1.2463,-1.231,-1.2032,-1.1846,-1.1686,-1.1485,-1.1286,-1.1212,-1.1341,-1.1433,-1.1433,-1.1267,-1.1577,-1.1583,-1.1295,-1.1278,-1.1101,-1.075,-0.9588,-0.9188,-0.9339,-0.8365,-0.8298,-0.8813,-0.8392,-0.8437,-0.8713,-0.8104,-0.788,-0.788,-0.7829,-0.7825,-0.7821,-0.7808,-0.7915,-0.8025,-0.7838,-0.7915,-0.8025,-0.7838,-0.7642,-0.7484,-0.7484,-0.7484,-0.7484,-0.7484,-0.7484,-0.7571,-0.7755,-0.7788,-0.7833,-0.7975,-0.8142,-0.8264,-0.8304,-0.8494,-0.8621,-0.8792,-0.882,-0.882,-0.882,-0.9151,-0.9302,-0.9096,-0.938,-0.953,-0.9551,-0.9125,-0.8833,-0.8822,-0.7855,-0.7273,-0.7223,-0.6677,-0.6331,-0.6331,-0.6374,-0.6373,-0.6373,-0.6373,-0.6373,-0.6373,-0.6381,-0.6539,-0.6795,-0.7042,-0.7341,-0.7596,-0.7842,-0.7988,-0.7988,-0.7988,-0.7988,-0.8015,-0.8343,-0.8459,-0.8503,-0.8798,-0.8858,-0.8868,-1.2678,-1.2678,-1.2484,-1.1901,-1.1755,-1.1755,-1.1755,-1.1114,-1.089,-1.1514,-1.1047,-1.0729,-1.0743,-1.0905,-1.0938,-1.0905,-1.089,-1.081,-1.0726,-1.0471,-1.0562,-1.097,-1.0927,-1.0735,-1.043,-1.1133,-1.1053,-1.005,-1.074,-1.0735,-1.005,-0.9928,-0.9802,-0.9637,-0.8884,-0.862,-0.8693,-0.8199,-0.8099,-0.8323,-0.8286,-0.83,-0.8323,-0.8209,-0.8102,-0.7953,-0.7842,-0.7876,-0.7953,-0.7842,-0.7915,-0.8102,-0.803,-0.803,-0.8068,-0.7991,-0.7949,-0.7834,-0.7723,-0.7603,-0.7484,-0.7484,-0.7484,-0.7561,-0.7849,-0.7877,-0.7914,-0.8272,-0.8414,-0.8495,-0.8601,-0.8771,-0.8917,-0.8982,-0.8995,-0.8995,-0.8995,-0.9108,-0.9169,-0.9104,-0.9028,-0.8933,-0.8821,-0.8423,-0.815,-0.8007,-0.7411,-0.707,-0.707,-0.6605,-0.6372,-0.6372,-0.6365,-0.6401,-0.6333,-0.6333,-0.6333,-0.6333,-0.6401,-0.6637,-0.7042,-0.7138,-0.7441,-0.7842,-0.7939,-0.8096,-0.8174,-0.8029,-0.8147,-0.8316,-0.834,-0.8462,-0.8638,-0.8754,-0.8804,-0.8885,-1.1712,-1.1712,-1.1517,-1.0837,-1.069,-1.069,-1.069,-0.9998,-0.9728,-1.0399,-0.9897,-0.9524,-0.957,-0.9751,-0.9848,-0.9924,-0.995,-0.995,-0.995,-0.9713,-0.9799,-1.0204,-1.0176,-0.9986,-0.964,-1.0314,-1.0196,-0.9188,-0.9866,-0.9855,-0.9282,-0.9164,-0.9078,-0.9055,-0.8626,-0.8444,-0.8435,-0.8239,-0.8206,-0.8282,-0.8395,-0.8399,-0.8282,-0.8321,-0.8282,-0.813,-0.7934,-0.7934,-0.8047,-0.7894,-0.8008,-0.8203,-0.8186,-0.8169,-0.8169,-0.8169,-0.8125,-0.8047,-0.7894,-0.7772,-0.7634,-0.762,-0.761,-0.7728,-0.8032,-0.8008,-0.8106,-0.8548,-0.8649,-0.8702,-0.8877,-0.9011,-0.9116,-0.9169,-0.9133,-0.907,-0.8938,-0.8946,-0.8898,-0.8706,-0.852,-0.8378,-0.8218,-0.7821,-0.7547,-0.7407,-0.7052,-0.6795,-0.6806,-0.6523,-0.6371,-0.6385,-0.6368,-0.6399,-0.6323,-0.6323,-0.6323,-0.6323,-0.6539,-0.6849,-0.7305,-0.7446,-0.7721,-0.818,-0.818,-0.8238,-0.8326,-0.8174,-0.8258,-0.8472,-0.8374,-0.8489,-0.8716,-0.8764,-0.8794,-0.8885,-0.9579,-0.9579,-0.9579,-0.9579,-0.9579,-0.9579,-0.9579,-0.9579,-0.9579,-0.9579,-0.966,-0.9711,-0.9808,-0.9853,-0.9924,-0.9975,-1.0004,-1.0004,-0.9999,-0.9762,-0.9423,-0.9009,-0.8822,-0.8807,-0.8985,-0.8817,-0.8812,-0.899,-0.8985,-0.9089,-0.9286,-0.9286,-0.928,-0.9268,-0.8898,-0.8645,-0.86,-0.8394,-0.8435,-0.8595,-0.8595,-0.8595,-0.8595,-0.8394,-0.8312,-0.8271,-0.8057,-0.8012,-0.8012,-0.8012,-0.8177,-0.8378,-0.8335,-0.8312,-0.8312,-0.8312,-0.8143,-0.8012,-0.8012,-0.8012,-0.7975,-0.7845,-0.789,-0.8061,-0.8251,-0.8292,-0.8394,-0.8747,-0.8824,-0.8881,-0.9064,-0.91,-0.9157,-0.9371,-0.921,-0.8973,-0.8664,-0.859,-0.8397,-0.7859,-0.7897,-0.7988,-0.7988,-0.7487,-0.7188,-0.7188,-0.6686,-0.6388,-0.6325,-0.6377,-0.6388,-0.6325,-0.638,-0.6387,-0.6389,-0.6387,-0.6387,-0.6389,-0.6873,-0.7244,-0.7503,-0.79,-0.8223,-0.8482,-0.8482,-0.8482,-0.8472,-0.8381,-0.8357,-0.8486,-0.8482,-0.8577,-0.873,-0.8828,-0.8885,-0.8885,-0.9579,-0.9579,-0.9579,-0.9579,-0.9579,-0.9579,-0.9579,-0.9579,-0.9579,-0.9579,-0.9629,-0.9668,-0.972,-0.9723,-0.9697,-0.9779,-0.9808,-0.9837,-0.9929,-0.9713,-0.955,-0.9428,-0.9357,-0.9352,-0.9418,-0.9357,-0.9352,-0.9418,-0.9268,-0.9301,-0.9507,-0.9164,-0.9108,-0.926,-0.8815,-0.8546,-0.8379,-0.8459,-0.8467,-0.8394,-0.8554,-0.8595,-0.8595,-0.8513,-0.8513,-0.8476,-0.8267,-0.8308,-0.839,-0.8267,-0.8352,-0.8517,-0.8537,-0.8513,-0.8513,-0.8513,-0.8472,-0.8386,-0.8267,-0.8317,-0.8325,-0.802,-0.8102,-0.8313,-0.8457,-0.8613,-0.8756,-0.8988,-0.9112,-0.9173,-0.9112,-0.9198,-0.9302,-0.9185,-0.8843,-0.85,-0.8408,-0.8177,-0.7959,-0.7811,-0.7599,-0.7437,-0.7437,-0.6936,-0.6637,-0.6637,-0.6487,-0.6408,-0.651,-0.6545,-0.6589,-0.6641,-0.6592,-0.6605,-0.6692,-0.647,-0.643,-0.6564,-0.6916,-0.7242,-0.7589,-0.7944,-0.8223,-0.8482,-0.8482,-0.8543,-0.8632,-0.8479,-0.857,-0.8791,-0.8682,-0.8733,-0.8821,-0.8865,-0.8885,-0.8885,-0.9579,-0.9579,-0.9579,-0.9579,-0.9579,-0.9579,-0.9579,-0.9579,-0.9628,-0.9723,-0.9776,-0.98,-0.9857,-0.9845,-0.9789,-0.9737,-0.9746,-0.9793,-0.9885,-0.9825,-0.9767,-0.9767,-0.9767,-0.9653,-0.9362,-0.9354,-0.9317,-0.9238,-0.9105,-0.9142,-0.9301,-0.9043,-0.8977,-0.9143,-0.8834,-0.8593,-0.842,-0.8537,-0.8551,-0.8408,-0.8531,-0.8615,-0.8615,-0.8615,-0.8615,-0.8573,-0.8451,-0.8493,-0.8573,-0.8451,-0.8493,-0.8602,-0.8605,-0.8593,-0.8615,-0.8615,-0.8624,-0.8662,-0.8552,-0.8677,-0.8736,-0.8549,-0.8508,-0.8574,-0.8661,-0.8857,-0.9034,-0.9188,-0.9331,-0.9392,-0.9311,-0.9393,-0.9377,-0.9032,-0.8672,-0.827,-0.7897,-0.7649,-0.7446,-0.7254,-0.7038,-0.6886,-0.6886,-0.6587,-0.6406,-0.6454,-0.6554,-0.6613,-0.6687,-0.6793,-0.6804,-0.673,-0.6807,-0.6859,-0.6942,-0.6784,-0.677,-0.6845,-0.7319,-0.7703,-0.789,-0.8264,-0.8505,-0.8662,-0.8662,-0.8716,-0.8791,-0.8635,-0.8716,-0.8868,-0.8771,-0.8804,-0.8885,-0.8885,-0.8885,-0.8885,-0.9579,-0.9579,-0.9579,-0.9579,-0.9579,-0.9579,-0.9579,-0.9579,-0.9677,-0.992,-0.9969,-1.0009,-1.0031,-1.0062,-0.9992,-0.9809,-0.9834,-0.9894,-0.994,-0.9995,-0.9994,-0.9994,-0.9994,-0.9719,-0.9051,-0.9058,-0.8946,-0.8768,-0.8684,-0.8732,-0.8912,-0.8869,-0.8878,-0.8904,-0.8874,-0.8771,-0.8619,-0.8582,-0.8612,-0.8612,-0.8612,-0.8612,-0.8612,-0.8612,-0.8612,-0.8612,-0.8612,-0.8612,-0.8612,-0.8612,-0.8612,-0.8584,-0.8596,-0.8624,-0.8637,-0.8653,-0.8723,-0.8853,-0.892,-0.903,-0.9102,-0.9158,-0.9038,-0.8869,-0.8869,-0.8999,-0.9216,-0.9392,-0.9429,-0.9477,-0.9596,-0.9575,-0.9377,-0.8874,-0.8608,-0.8174,-0.7319,-0.7039,-0.6813,-0.6423,-0.6387,-0.6387,-0.6387,-0.6395,-0.6505,-0.6624,-0.6738,-0.6806,-0.687,-0.7079,-0.7083,-0.6722,-0.7022,-0.7188,-0.7145,-0.7238,-0.7287,-0.729,-0.7949,-0.8291,-0.8307,-0.8711,-0.8885,-0.8885,-0.8885,-0.8885,-0.8871,-0.8788,-0.8811,-0.8868,-0.8784,-0.8815,-0.8885,-0.8885,-0.8885,-0.8885,-0.9579,-0.9579,-0.9579,-0.9579,-0.9579,-0.9579,-0.9579,-0.9579,-0.9628,-0.9677,-0.9677,-0.971,-0.9723,-0.9719,-0.9702,-0.9661,-0.9738,-0.991,-1.014,-1.007,-0.9994,-0.9994,-0.9994,-0.9857,-0.9475,-0.947,-0.9391,-0.9183,-0.8977,-0.8894,-0.8912,-0.8747,-0.8743,-0.8896,-0.8719,-0.8632,-0.8595,-0.8592,-0.8612,-0.8612,-0.8612,-0.8612,-0.8612,-0.8612,-0.8612,-0.8612,-0.8612,-0.8612,-0.8612,-0.8612,-0.8612,-0.8629,-0.8718,-0.878,-0.8792,-0.8942,-0.9007,-0.9031,-0.9037,-0.9086,-0.9088,-0.914,-0.9184,-0.9286,-0.9286,-0.9409,-0.9583,-0.958,-0.9567,-0.9579,-0.9571,-0.9274,-0.8924,-0.8825,-0.8054,-0.7453,-0.7232,-0.6816,-0.6509,-0.6434,-0.6387,-0.6387,-0.6387,-0.6473,-0.6681,-0.7064,-0.689,-0.7054,-0.7633,-0.7478,-0.7459,-0.7692,-0.7462,-0.7408,-0.7483,-0.7678,-0.7744,-0.7744,-0.8104,-0.8339,-0.8443,-0.8754,-0.8885,-0.8885,-0.8885,-0.8885,-0.8881,-0.8848,-0.8854,-0.8878,-0.8848,-0.8854,-0.8885,-0.8885,-0.8885,-0.8885,-0.9579,-0.9579,-0.9579,-0.9579,-0.9579,-0.9579,-0.9579,-0.9579,-0.9628,-0.9776,-0.992,-0.9969,-0.9969,-0.9969,-0.992,-0.9826,-0.9905,-0.9978,-1.0115,-1.0017,-0.9938,-0.9935,-0.9974,-0.992,-0.9795,-0.979,-0.9572,-0.9094,-0.9001,-0.8879,-0.8759,-0.8634,-0.8638,-0.8733,-0.8655,-0.8652,-0.874,-0.8656,-0.8657,-0.8682,-0.8645,-0.8612,-0.8612,-0.8612,-0.8612,-0.8612,-0.8612,-0.8612,-0.8612,-0.8612,-0.8612,-0.8641,-0.8767,-0.882,-0.8857,-0.9043,-0.9157,-0.9249,-0.9257,-0.9265,-0.9332,-0.938,-0.9448,-0.9462,-0.942,-0.9518,-0.9657,-0.9608,-0.9579,-0.9579,-0.9579,-0.9175,-0.8726,-0.8482,-0.7736,-0.7089,-0.6836,-0.6587,-0.6458,-0.6723,-0.6732,-0.6751,-0.6756,-0.682,-0.6964,-0.7091,-0.7158,-0.7271,-0.7552,-0.7503,-0.7509,-0.7512,-0.7615,-0.7725,-0.7731,-0.805,-0.8266,-0.8378,-0.8491,-0.8639,-0.8712,-0.8826,-0.8885,-0.8885,-0.8885,-0.8885,-0.8885,-0.8885,-0.8885,-0.8885,-0.8885,-0.8885,-0.8885,-0.8885,-0.8885,-0.8885,-0.9579,-0.9579,-0.9579,-0.9579,-0.9579,-0.9579,-0.9579,-0.9579,-0.9677,-0.9969,-1.0167,-1.0314,-1.0314,-1.0314,-1.0167,-1.0019,-0.9995,-1.0036,-1.0084,-0.9896,-0.9841,-0.9876,-0.9912,-0.995,-0.9999,-0.9994,-0.9645,-0.8964,-0.8961,-0.8823,-0.8612,-0.8612,-0.8613,-0.8593,-0.8582,-0.8712,-0.887,-0.8664,-0.8666,-0.8804,-0.8633,-0.8629,-0.8657,-0.8657,-0.8657,-0.8657,-0.8657,-0.8657,-0.8657,-0.8657,-0.8673,-0.8735,-0.8857,-0.8913,-0.895,-0.9133,-0.9291,-0.9416,-0.9411,-0.9497,-0.9587,-0.9675,-0.9657,-0.9587,-0.9437,-0.9518,-0.9579,-0.9579,-0.9579,-0.9579,-0.9476,-0.905,-0.8517,-0.7975,-0.7444,-0.6953,-0.655,-0.6497,-0.669,-0.7058,-0.7176,-0.7162,-0.7156,-0.7237,-0.7298,-0.7137,-0.7405,-0.7517,-0.7401,-0.7517,-0.7471,-0.7205,-0.7703,-0.799,-0.7985,-0.8317,-0.8598,-0.8826,-0.8881,-0.8885,-0.8885,-0.8885,-0.8885,-0.8885,-0.8885,-0.8885,-0.8885,-0.8885,-0.8885,-0.8885,-0.8885,-0.8885,-0.8885,-0.8885,-0.8885,-0.8885,-0.9579,-0.9579,-0.9579,-0.9579,-0.9579,-0.9579,-0.9579,-0.9579,-0.9677,-0.9969,-1.0019,-1.0068,-1.0068,-0.9826,-0.9772,-0.9969,-0.9845,-0.9836,-1.0084,-0.9896,-0.9841,-0.9876,-0.9912,-0.995,-0.9999,-0.9994,-0.9767,-0.9261,-0.9244,-0.9043,-0.8612,-0.8612,-0.8596,-0.8619,-0.86,-0.8694,-0.882,-0.8673,-0.8666,-0.8804,-0.8633,-0.8658,-0.8787,-0.8787,-0.8787,-0.8787,-0.8787,-0.8787,-0.8787,-0.8787,-0.8893,-0.9056,-0.9277,-0.9331,-0.9367,-0.9502,-0.9571,-0.9587,-0.9563,-0.9592,-0.962,-0.9596,-0.9608,-0.9571,-0.9596,-0.9612,-0.9579,-0.9579,-0.9579,-0.9476,-0.8977,-0.8589,-0.8119,-0.7569,-0.7151,-0.6804,-0.6752,-0.6959,-0.7122,-0.7191,-0.7463,-0.7419,-0.6907,-0.7425,-0.7822,-0.7789,-0.7536,-0.7657,-0.8148,-0.7711,-0.7651,-0.8123,-0.8032,-0.8146,-0.84,-0.8475,-0.854,-0.8543,-0.8771,-0.8885,-0.8885,-0.8885,-0.8885,-0.8885,-0.8885,-0.8885,-0.8885,-0.8885,-0.8885,-0.8885,-0.8885,-0.8885,-0.8885,-0.8885,-0.8885,-0.8885,-0.9579,-0.9579,-0.9579,-0.9579,-0.9579,-0.9579,-0.9579,-0.9579,-0.9628,-0.9776,-0.992,-1.0068,-1.0216,-1.0265,-1.0265,-1.0216,-0.9992,-0.9994,-1.0241,-0.9917,-0.9737,-0.9779,-0.9813,-0.989,-0.9958,-0.9969,-0.982,-0.9476,-0.9345,-0.913,-0.8784,-0.8652,-0.8612,-0.8612,-0.8612,-0.8662,-0.8816,-0.8739,-0.8812,-0.897,-0.8893,-0.8909,-0.8974,-0.8974,-0.8974,-0.8974,-0.8974,-0.8974,-0.8974,-0.8974,-0.9031,-0.9129,-0.9347,-0.9404,-0.9437,-0.9571,-0.9579,-0.9579,-0.9579,-0.9579,-0.9579,-0.9579,-0.9579,-0.9579,-0.9579,-0.9579,-0.9579,-0.9579,-0.9579,-0.9458,-0.8998,-0.8512,-0.8023,-0.7596,-0.7136,-0.6854,-0.7009,-0.7009,-0.7034,-0.7265,-0.7758,-0.7814,-0.7169,-0.7529,-0.763,-0.7304,-0.7304,-0.7392,-0.7576,-0.7308,-0.7394,-0.7904,-0.7962,-0.8156,-0.8484,-0.8654,-0.8712,-0.8716,-0.8962,-0.9015,-0.8885,-0.8885,-0.8885,-0.8885,-0.8885,-0.8885,-0.8885,-0.8885,-0.8885,-0.8885,-0.8885,-0.8885,-0.8885,-0.8885,-0.8885,-0.8885]},{"header":{"parameterUnit":"m.s-1","parameterCategory":1,"la1":30.6,"la2":28.766,"lo1":-90.7593,"lo2":-88.6598,"dy":0.0162,"dx":0.0183,"nx":116,"ny":114,"refTime":"2023-10-27T06:00:00:Z","depth":0,"parameterNumber":3,"parameterNumberName":"V-component_of_WINDS"},"data":[0.0,0.0,0.0,0.0,0.0,0.0,0.0,0.0,0.0,0.0,0.0,0.0,0.0,0.0,0.0,0.0,0.0,0.0,0.0,0.0,0.0,0.0,0.0,0.0,0.0,0.0,0.0,0.0,0.0,0.0,0.0,0.0,0.0,0.0,0.0,0.0,0.0,0.0,0.0,0.0,0.0,0.0,0.0,0.0,0.0,0.0,0.0,0.0,0.0,0.0,0.0,0.0,0.0,0.0,0.0,0.0,0.0,0.0,0.0,0.0,0.0,0.0,0.0,0.0,0.0,0.0,0.0,0.0,0.0,0.0,0.0,0.0,0.0,0.0,0.0,0.0,0.0,0.0,0.0,0.0,0.0,0.0,0.0,0.0,0.0,0.0,0.0,0.0,0.0,0.0,0.0,0.0,0.0,0.0,0.0,0.0,0.0,0.0,0.0,0.0,0.0,0.0,0.0,0.0,0.0,0.0,0.0,0.0,0.0,0.0,0.0,0.0,0.0,0.0,0.0,0.0,0.0,0.0,0.0,0.0,0.0,0.0,0.0,0.0,0.0,0.0,0.0,0.0,0.0,0.0,0.0,0.0,0.0,0.0,0.0,0.0,0.0,0.0,0.0,0.0,0.0,0.0,0.0,0.0,0.0,0.0,0.0,0.0,0.0,0.0,0.0,0.0,0.0,0.0,0.0,0.0,0.0,0.0,0.0,0.0,0.0,0.0,0.0,0.0,0.0,0.0,0.0,0.0,0.0,0.0,0.0,0.0,0.0,0.0,0.0,0.0,0.0,0.0,0.0,0.0,0.0,0.0,0.0,0.0,0.0,0.0,0.0,0.0,0.0,0.0,0.0,0.0,0.0,0.0,0.0,0.0,0.0,0.0,0.0,0.0,0.0,0.0,0.0,0.0,0.0,0.0,0.0,0.0,0.0,0.0,0.0,0.0,0.0,0.0,0.0,0.0,0.0,0.0,0.0,0.0,0.0,0.0,0.0,0.0,0.0,0.0,0.0,0.0,0.0,0.0,0.0,0.0,0.0,0.0,0.0,0.0,0.0,0.0,0.0,0.0,0.0,0.0,0.0,0.0,0.0,0.0,0.0,0.0,0.0,0.0,0.0,0.0,0.0,0.0,0.0,0.0,0.0,0.0,0.0,0.0,0.0,0.0,0.0,0.0,0.0,0.0,0.0,0.0,0.0,0.0,0.0,0.0,0.0,0.0,0.0,0.0,0.0,0.0,0.0,0.0,0.0,0.0,0.0,0.0,0.0,0.0,0.0,0.0,0.0,0.0,0.0,0.0,0.0,0.0,0.0,0.0,0.0,0.0,0.0,0.0,0.0,0.0,0.0,0.0,0.0,0.0,0.0,0.0,0.0,0.0,0.0,0.0,0.0,0.0,0.0,0.0,0.0,0.0,0.0,0.0,0.0,0.0,0.0,0.0,0.0,0.0,0.0,0.0,0.0,0.0,0.0,0.0,0.0,0.0,0.0,0.0,0.0,0.0,0.0,0.0,0.0,0.0,0.0,0.0,0.0,0.0,0.0,0.0,0.0,0.0,0.0,0.0,0.0,0.0,0.0,0.0,0.0,0.0,0.0,0.0,0.0,0.0,0.0,0.0,0.0,0.0,0.0,0.0,0.0,0.0,0.0,0.0,0.0,0.0,0.0,0.0,0.0,0.0,0.0,0.0,0.0,0.0,0.0,0.0,0.0,0.0,0.0,0.0,0.0,0.0,0.0,0.0,0.0,0.0,0.0,0.0,0.0,0.0,0.0,0.0,0.0,0.0,0.0,0.0,0.0,0.0,0.0,0.0,0.0,0.0,0.0,0.0,0.0,0.0,0.0,0.0,0.0,0.0,0.0,0.0,0.0,0.0,0.0,0.0,0.0,0.0,0.0,0.0,0.0,0.0,0.0,0.0,0.0,0.0,0.0,0.0,0.0,0.0,0.0,0.0,0.0,0.0,0.0,0.0,0.0,0.0,0.0,0.0,0.0,0.0,0.0,0.0,0.0,0.0,0.0,0.0,0.0,0.0,0.0,0.0,0.0,0.0,0.0,0.0,0.0,0.0,0.0,0.0,0.0,0.0,0.0,0.0,0.0,0.0,0.0,0.0,0.0,0.0,0.0,0.0,0.0,0.0,0.0,0.0,0.0,0.0,0.0,0.0,0.0,0.0,0.0,0.0,0.0,0.0,0.0,0.0,0.0,0.0,0.0,0.0,0.0,0.0,0.0,0.0,0.0,0.0,0.0,0.0,0.0,0.0,0.0,0.0,0.0,0.0,0.0,0.0,0.0,0.0,0.0,0.0,0.0,0.0,0.0,0.0,0.0,0.0,0.0,0.0,0.0,0.0,0.0,0.0,0.0,0.0,0.0,0.0,0.0,0.0,0.0,0.0,0.0,0.0,0.0,0.0,0.0,0.0,0.0,0.0,0.0,0.0,0.0,0.0,0.0,0.0,0.0,0.0,0.0,0.0,0.0,0.0,0.0,0.0,0.0,0.0,0.0,0.0,0.0,0.0,0.0,0.0,0.0,0.0,0.0,0.0,0.0,0.0,0.0,0.0,0.0,0.0,0.0,0.0,0.0,0.0,0.0,0.0,0.0,0.0,0.0,0.0,0.0,0.0,0.0,0.0,0.0,0.0,0.0,0.0,0.0,0.0,0.0,0.0,0.0,0.0,0.0,0.0,0.0,0.0,0.0,0.0,0.0,0.0,0.0,0.0,0.0,0.0,0.0,0.0,0.0,0.0,0.0,0.0,0.0,0.0,0.0,0.0,0.0,0.0,0.0,0.0,0.0,0.0,0.0,0.0,0.0,0.0,0.0,0.0,0.0,0.0,0.0,0.0,0.0,0.0,0.0,0.0,0.0,0.0,0.0,0.0,0.0,0.0,0.0,0.0,0.0,0.0,0.0,0.0,0.0,0.0,0.0,0.0,0.0,0.0,0.0,0.0,0.0,0.0,0.0,0.0,0.0,0.0,0.0,0.0,0.0,0.0,0.0,0.0,0.0,0.0,0.0,0.0,0.0,0.0,0.0,0.0,0.0,0.0,0.0,0.0,0.0,0.0,0.0,0.0,0.0,0.0,0.0,0.0,0.0,0.0,0.0,0.0,0.0,0.0,0.0,0.0,0.0,0.0,0.0,0.0,0.0,0.0,0.0,0.0,0.0,0.0,0.0,0.0,0.0,0.0,0.0,0.0,0.0,0.0,0.0,0.0,0.0,0.0,0.0,0.0,0.0,0.0,0.0,0.0,0.0,0.0,0.0,0.0,0.0,0.0,0.0,0.0,0.0,0.0,0.0,0.0,0.0,0.0,0.0,0.0,0.0,0.0,0.0,0.0,0.0,0.0,0.0,0.0,0.0,0.0,0.0,0.0,0.0,0.0,0.0,0.0,0.0,0.0,0.0,0.0,0.0,0.0,0.0,0.0,0.0,0.0,0.0,0.0,0.0,0.0,0.0,0.0,0.0,0.0,0.0,0.0,0.0,0.0,0.0,0.0,0.0,0.0,0.0,0.0,0.0,0.0,0.0,0.0,0.0,0.0,0.0,0.0,0.0,0.0,0.0,0.0,0.0,0.0,0.0,0.0,0.0,0.0,0.0,0.0,0.0,0.0,0.0,0.0,0.0,0.0,0.0,0.0,0.0,0.0,0.0,0.0,0.0,0.0,0.0,0.0,0.0,0.0,0.0,0.0,0.0,0.0,0.0,0.0,0.0,0.0,0.0,0.0,0.0,0.0,0.0,0.0,0.0,0.0,0.0,0.0,0.0,0.0,0.0,0.0,0.0,0.0,0.0,0.0,0.0,0.0,0.0,0.0,0.0,0.0,0.0,0.0,0.0,0.0,0.0,0.0,0.0,0.0,0.0,0.0,0.0,0.0,0.0,0.0,0.0,0.0,0.0,0.0,0.0,0.0,0.0,0.0,0.0,0.0,0.0,0.0,0.0,0.0,0.0,0.0,0.0,0.0,0.0,0.0,0.0,0.0,0.0,0.0,0.0,0.0,0.0,0.0,0.0,0.0,0.0,0.0,0.0,0.0,0.0,0.0,0.0,0.0,0.0,0.0,0.0,0.0,0.0,0.0,0.0,0.0,0.0,0.0,0.0,0.0,0.0,0.0,0.0,0.0,0.0,0.0,0.0,0.0,0.0,0.0,0.0,0.0,0.0,0.0,0.0,0.0,0.0,0.0,0.0,0.0,0.0,0.0,0.0,0.0,0.0,0.0,0.0,0.0,0.0,0.0,0.0,0.0,0.0,0.0,0.0,0.0,0.0,0.0,0.0,0.0,0.0,0.0,0.0,0.0,0.0,0.0,0.0,0.0,0.0,0.0,0.0,0.0,0.0,0.0,0.0,0.0,0.0,0.0,0.0,0.0,0.0,0.0,0.0,0.0,0.0,0.0,0.0,0.0,0.0,0.0,0.0,0.0,0.0,0.0,0.0,0.0,0.0,0.0,0.0,0.0,0.0,0.0,0.0,0.0,0.0,0.0,0.0,0.0,0.0,0.0,0.0,0.0,0.0,0.0,0.0,0.0,0.0,0.0,0.0,0.0,0.0,0.0,0.0,0.0,0.0,0.0,0.0,0.0,0.0,0.0,0.0,0.0,0.0,0.0,0.0,0.0,0.0,0.0,0.0,0.0,0.0,0.0,0.0,0.0,0.0,0.0,0.0,0.0,0.0,0.0,0.0,0.0,0.0,0.0,0.0,0.0,0.0,0.0,0.0,0.0,0.0,0.0,0.0,0.0,0.0,0.0,0.0,0.0,0.0,0.0,0.0,0.0,0.0,0.0,0.0,0.0,0.0,0.0,0.0,0.0,0.0,0.0,0.0,0.0,0.0,0.0,0.0,0.0,0.0,0.0,0.0,0.0,0.0,0.0,0.0,0.0,0.0,0.0,0.0,0.0,0.0,0.0,0.0,0.0,0.0,0.0,0.0,0.0,0.0,0.0,0.0,0.0,0.0,0.0,0.0,0.0,0.0,0.0,0.0,0.0,0.0,0.0,0.0,0.0,0.0,0.0,0.0,0.0,0.0,0.0,0.0,0.0,0.0,0.0,0.0,0.0,0.0,0.0,0.0,0.0,0.0,0.0,0.0,0.0,0.0,0.0,0.0,0.0,0.0,0.0,0.0,0.0,0.0,0.0,0.0,0.0,0.0,0.0,0.0,0.0,0.0,0.0,0.0,0.0,0.0,0.0,0.0,0.0,0.0,0.0,0.0,0.0,0.0,0.0,0.0,0.0,0.0,0.0,0.0,0.0,0.0,0.0,0.0,0.0,0.0,0.0,0.0,0.0,0.0,0.0,0.0,0.0,0.0,0.0,0.0,0.0,0.0,0.0,0.0,0.0,0.0,0.0,0.0,0.0,0.0,0.0,0.0,0.0,0.0,0.0,0.0,0.0,0.0,0.0,0.0,0.0,0.0,0.0,0.0,0.0,0.0,0.0,0.0,0.0,0.0,0.0,0.0,0.0,0.0,0.0,0.0,0.0,0.0,0.0,0.0,0.0,0.0,0.0,0.0,0.0,0.0,0.0,0.0,0.0,0.0,0.0,0.0,0.0,0.0,0.0,0.0,0.0,0.0,0.0,0.0,0.0,0.0,0.0,0.0,0.0,0.0,0.0,0.0,0.0,0.0,0.0,0.0,0.0,0.0,0.0,0.0,0.0,0.0,0.0,0.0,0.0,0.0,0.0,0.0,0.0,0.0,0.0,0.0,0.0,0.0,0.0,0.0,0.0,0.0,0.0,0.0,0.0,0.0,0.0,0.0,0.0,0.0,0.0,0.0,0.0,0.0,0.0,0.0,0.0,0.0,0.0,0.0,0.0,0.0,0.0,0.0,0.0,0.0,0.0,0.0,0.0,0.0,0.0,0.0,0.0,0.0,0.0,0.0,0.0,0.0,0.0,0.0,0.0,0.0,0.0,0.0,0.0,0.0,0.0,0.0,0.0,0.0,0.0,0.0,0.0,0.0,0.0,0.0,0.0,0.0,0.0,0.0,0.0,0.0,0.0,0.0,0.0,0.0,0.0,0.0,0.0,0.0,0.0,0.0,0.0,0.0,0.0,0.0,0.0,0.0,0.0,0.0,0.0,0.0,0.0,0.0,0.0,2.8354,2.4596,0.0,0.0,0.0,0.0,0.0,0.0,0.0,0.0,0.0,0.0,0.0,0.0,0.0,0.0,0.0,0.0,0.0,0.0,0.0,0.0,0.0,0.0,0.0,0.0,0.0,0.0,0.0,0.0,0.0,0.0,0.0,0.0,0.0,0.0,0.0,0.0,0.0,2.3035,2.3428,2.3849,2.4266,2.2899,2.1223,1.9347,0.0,0.0,0.0,0.0,0.0,0.0,0.0,0.0,0.0,0.0,0.0,0.0,0.0,0.0,0.0,0.0,0.0,0.0,0.0,0.0,0.0,0.0,0.0,0.0,0.0,0.0,0.0,0.0,0.0,0.0,0.0,0.0,0.0,0.0,0.0,0.0,0.0,0.0,0.0,0.0,0.0,0.0,0.0,0.0,0.0,0.0,0.0,0.0,0.0,0.0,0.0,0.0,0.0,0.0,0.0,0.0,0.0,0.0,0.0,0.0,0.0,0.0,0.0,0.0,0.0,0.0,0.0,0.0,0.0,0.0,3.2525,3.017,0.0,0.0,0.0,0.0,0.0,0.0,0.0,0.0,0.0,0.0,0.0,0.0,0.0,0.0,0.0,0.0,0.0,0.0,0.0,0.0,0.0,0.0,0.0,2.736,2.8395,2.9425,2.8957,2.8627,0.0,0.0,0.0,0.0,0.0,0.0,0.0,2.5534,2.5279,2.5236,2.5812,2.6793,2.8138,2.7314,2.564,2.3307,2.2412,0.0,0.0,0.0,0.0,0.0,0.0,0.0,0.0,0.0,0.0,0.0,0.0,0.0,0.0,0.0,0.0,0.0,0.0,0.0,0.0,0.0,0.0,0.0,0.0,0.0,0.0,0.0,0.0,0.0,0.0,0.0,0.0,0.0,0.0,0.0,0.0,0.0,0.0,0.0,0.0,0.0,0.0,0.0,0.0,0.0,0.0,0.0,0.0,0.0,0.0,0.0,0.0,0.0,0.0,0.0,0.0,0.0,0.0,0.0,0.0,0.0,0.0,0.0,4.0757,4.0913,3.945,4.0645,4.087,4.0249,3.7246,3.6636,3.7491,3.3197,0.0,0.0,0.0,0.0,0.0,0.0,0.0,0.0,0.0,0.0,0.0,0.0,0.0,0.0,0.0,0.0,0.0,0.0,0.0,0.0,0.0,2.9139,3.0681,3.2614,3.2193,3.199,3.2467,0.0,0.0,0.0,0.0,0.0,2.871,2.8347,2.8067,2.7797,2.898,3.019,3.1475,3.1387,3.1146,3.0616,2.6812,2.5114,2.4988,0.0,0.0,0.0,0.0,0.0,0.0,0.0,0.0,0.0,0.0,0.0,0.0,0.0,0.0,0.0,0.0,0.0,0.0,0.0,0.0,0.0,0.0,0.0,0.0,0.0,0.0,0.0,0.0,0.0,0.0,0.0,0.0,0.0,0.0,0.0,0.0,0.0,0.0,0.0,0.0,0.0,3.1905,3.2695,0.0,0.0,0.0,0.0,0.0,0.0,0.0,0.0,0.0,0.0,0.0,0.0,0.0,3.8925,3.9176,4.2807,4.4586,4.46,4.7376,4.8576,4.8263,4.7345,4.7036,4.7237,4.5831,0.0,3.8215,3.6893,0.0,0.0,0.0,0.0,0.0,0.0,0.0,0.0,0.0,0.0,0.0,0.0,0.0,0.0,0.0,0.0,0.0,0.0,0.0,0.0,0.0,3.1735,3.3418,3.5205,3.5329,3.5059,3.4416,3.3435,0.0,0.0,0.0,3.0828,3.0678,3.0628,3.1082,3.2079,3.2999,3.3973,3.4957,3.4103,3.4085,3.4624,3.2023,2.997,2.8403,2.6889,0.0,0.0,0.0,0.0,0.0,0.0,0.0,0.0,0.0,0.0,0.0,0.0,0.0,0.0,0.0,0.0,0.0,0.0,0.0,0.0,0.0,0.0,0.0,0.0,0.0,0.0,0.0,0.0,0.0,0.0,0.0,0.0,0.0,0.0,0.0,0.0,0.0,0.0,0.0,3.1841,3.3954,3.3356,3.3611,3.2975,0.0,0.0,0.0,0.0,0.0,0.0,0.0,0.0,0.0,4.0242,4.2066,4.3589,4.4734,4.7007,4.7866,4.7376,4.9262,4.9646,4.8657,4.8703,4.8438,4.7842,4.7485,4.59,4.3428,4.1339,3.9648,3.8086,0.0,0.0,0.0,0.0,3.4112,3.4458,0.0,0.0,0.0,0.0,0.0,0.0,0.0,0.0,0.0,0.0,0.0,0.0,3.2105,3.3924,3.5661,3.7345,3.7499,3.7069,3.6114,3.484,3.3902,3.3375,3.2692,3.233,3.2367,3.2847,3.3906,3.5561,3.6238,3.6966,3.7676,3.65,3.6654,3.7843,3.6851,3.4743,3.1889,3.0594,2.8515,2.5975,0.0,0.0,0.0,0.0,0.0,0.0,0.0,0.0,0.0,0.0,0.0,0.0,0.0,0.0,0.0,0.0,0.0,0.0,0.0,0.0,0.0,0.0,0.0,0.0,0.0,0.0,0.0,0.0,0.0,0.0,0.0,0.0,0.0,0.0,0.0,0.0,0.0,3.4576,3.6478,3.4632,3.6756,3.6905,0.0,0.0,0.0,0.0,0.0,0.0,4.0022,4.1389,4.3116,4.5307,4.6986,4.8568,5.014,5.0777,5.0719,5.0024,5.072,5.0321,4.9013,4.9729,4.948,4.8542,4.8526,4.849,4.8254,4.5019,4.3583,4.3027,3.9621,3.8199,3.8124,3.8387,3.8457,3.8826,0.0,0.0,0.0,0.0,0.0,0.0,0.0,0.0,0.0,0.0,0.0,3.0727,3.3751,3.5191,3.682,3.8974,3.7904,3.7382,3.7994,3.551,3.4187,3.4586,3.403,3.3758,3.388,3.5156,3.6227,3.708,3.7767,3.8428,3.9101,3.8888,3.9629,4.1044,4.0656,3.8818,3.5869,3.3909,3.2143,3.0383,2.7023,0.0,0.0,0.0,0.0,0.0,0.0,0.0,0.0,0.0,0.0,0.0,0.0,0.0,0.0,0.0,0.0,0.0,0.0,0.0,0.0,0.0,0.0,0.0,0.0,0.0,0.0,0.0,0.0,0.0,0.0,0.0,0.0,0.0,0.0,0.0,0.0,0.0,0.0,3.8582,4.2463,0.0,0.0,0.0,0.0,4.0981,4.2871,4.4863,4.6722,4.8142,4.9823,5.1755,5.3154,5.393,5.401,5.3979,5.3955,5.3906,5.3261,5.2907,5.281,5.222,5.1914,5.1833,5.121,5.0903,5.0639,4.704,4.509,4.4183,4.2705,4.1773,4.1444,4.276,4.3506,4.4055,0.0,0.0,0.0,0.0,0.0,0.0,0.0,0.0,2.9089,3.0162,3.1863,3.418,3.7327,3.8527,4.0022,4.2364,4.107,4.0051,3.9891,3.8,3.6558,3.5774,3.5227,3.5326,3.611,3.6498,3.7379,3.8747,3.8461,3.843,3.8611,3.7941,3.8181,3.91,3.8894,3.8951,3.9183,3.7726,3.5737,3.338,3.0997,2.8253,0.0,0.0,0.0,0.0,0.0,0.0,0.0,0.0,0.0,0.0,0.0,0.0,0.0,0.0,0.0,0.0,0.0,0.0,0.0,0.0,0.0,0.0,0.0,0.0,0.0,0.0,0.0,0.0,0.0,0.0,0.0,0.0,0.0,0.0,0.0,0.0,0.0,4.2628,4.6062,0.0,4.2977,4.4434,4.5323,4.45,4.72,4.8929,4.9034,5.0822,5.1942,5.2161,5.3062,5.3524,5.3524,5.3048,5.2462,5.1885,5.1252,5.0672,5.0123,5.0031,5.016,5.0424,4.9227,4.9243,5.0016,4.8244,4.7972,4.8616,4.768,4.6884,4.626,4.6359,4.6171,4.5961,0.0,0.0,0.0,0.0,0.0,0.0,0.0,0.0,3.0207,3.1547,3.3645,3.6114,3.902,3.9963,4.1156,4.2991,4.1626,4.0468,4.0012,3.8572,3.7262,3.6287,3.6463,3.7095,3.8164,3.8359,3.8916,3.9886,3.9084,3.8603,3.8368,3.7513,3.7744,3.8843,3.8881,3.9829,4.1376,4.0672,3.9064,3.6843,3.4682,3.2199,2.9476,0.0,0.0,0.0,0.0,0.0,0.0,0.0,0.0,0.0,0.0,0.0,0.0,0.0,0.0,0.0,0.0,0.0,0.0,0.0,0.0,0.0,0.0,0.0,0.0,0.0,0.0,0.0,0.0,0.0,0.0,0.0,0.0,0.0,0.0,0.0,4.6952,4.4846,4.893,5.0451,4.6641,4.8451,4.9501,4.8728,5.101,5.2155,5.1556,5.3206,5.3914,5.342,5.3655,5.377,5.377,5.2778,5.198,5.133,5.0714,5.0138,4.9573,4.9482,4.9595,4.9782,4.8603,4.8585,4.9438,4.8997,4.9478,5.0472,4.985,4.932,4.8849,4.8411,4.7927,4.7506,0.0,0.0,0.0,0.0,0.0,0.0,0.0,2.8862,3.0476,3.282,3.4474,3.6313,3.8636,3.9294,3.9909,4.0706,3.9318,3.8393,3.841,3.7077,3.6239,3.6167,3.7662,3.8968,3.9925,4.0659,4.0856,4.0479,3.9626,3.8968,3.8501,3.781,3.8606,4.0594,4.1077,4.1678,4.2353,4.2589,4.2066,4.0814,3.8021,3.6081,3.4378,0.0,0.0,0.0,0.0,0.0,0.0,0.0,0.0,0.0,0.0,0.0,0.0,0.0,0.0,0.0,0.0,0.0,0.0,0.0,0.0,0.0,0.0,0.0,0.0,0.0,0.0,0.0,0.0,0.0,0.0,0.0,0.0,0.0,4.0833,4.5636,4.8359,4.5492,5.1259,5.4063,5.0349,5.2806,5.4296,5.3518,5.4194,5.46,5.4515,5.5416,5.5927,5.5893,5.5314,5.4989,5.4989,5.3504,5.2704,5.2686,5.195,5.1558,5.1523,5.0806,5.0438,5.0314,4.9602,4.9265,4.9195,4.9282,4.9342,4.9328,4.8966,4.8838,4.8862,4.8862,4.8906,4.8801,0.0,0.0,0.0,0.0,0.0,0.0,2.8362,2.9727,3.1402,3.3233,3.5056,3.7331,4.029,3.9787,4.0039,4.2042,3.9672,3.8294,3.8863,3.7951,3.7503,3.7834,3.8402,3.9461,4.1031,4.0093,3.9748,4.0057,3.8092,3.7037,3.6883,3.7259,3.7536,3.7814,3.9725,4.0672,4.0948,4.2169,4.2702,4.2575,4.0462,3.8952,3.7764,0.0,0.0,0.0,0.0,0.0,0.0,0.0,0.0,0.0,0.0,0.0,0.0,0.0,0.0,0.0,0.0,0.0,0.0,0.0,0.0,0.0,0.0,0.0,0.0,0.0,0.0,0.0,0.0,0.0,0.0,0.0,0.0,4.6888,4.5913,4.9558,5.2445,5.2661,5.4448,5.5211,5.4169,5.4884,5.4634,5.2773,5.45,5.4907,5.3227,5.4022,5.4274,5.3695,5.3009,5.2616,5.2616,5.1677,5.0943,5.0397,4.9676,4.9009,4.8416,4.8211,4.8404,4.8818,4.7551,4.7585,4.8498,4.7995,4.8143,4.8711,4.9001,4.8791,4.8324,4.82,4.776,4.7194,0.0,0.0,0.0,0.0,0.0,0.0,2.8608,2.9885,3.151,3.3537,3.543,3.7433,3.9641,3.9157,3.9127,4.0226,3.8253,3.7,3.7161,3.7301,3.7839,3.8872,3.9627,4.054,4.1642,4.0382,3.9811,3.9995,3.8167,3.7133,3.6914,3.7345,3.7503,3.7549,3.9307,4.0217,4.0556,4.1995,4.2704,4.2816,4.2219,4.171,4.1051,3.928,3.8653,3.8497,3.6862,3.6369,3.6244,3.4743,0.0,0.0,0.0,0.0,0.0,0.0,0.0,0.0,0.0,0.0,0.0,0.0,0.0,0.0,0.0,0.0,0.0,0.0,0.0,0.0,0.0,0.0,0.0,0.0,4.677,4.9083,4.9191,5.1933,5.416,5.4718,5.5309,5.548,5.4854,5.4838,5.4178,5.2551,5.353,5.3629,5.2301,5.2819,5.2948,5.2469,5.1795,5.1449,5.1449,5.0712,4.9958,4.9203,4.8757,4.8169,4.7403,4.7077,4.7152,4.7404,4.6295,4.645,4.7421,4.6741,4.7245,4.8473,0.0,0.0,0.0,0.0,4.7043,4.6266,0.0,0.0,0.0,0.0,0.0,0.0,2.8506,2.946,3.1047,3.3746,3.5452,3.6811,3.7809,3.7951,3.7654,3.6845,3.606,3.5418,3.494,3.6285,3.7866,3.9558,4.0979,4.1773,4.1911,4.1111,4.0509,4.0162,3.898,3.8208,3.7796,3.7792,3.8003,3.8456,3.9497,4.0152,4.0555,4.1824,4.2207,4.2111,4.3211,4.3794,4.3727,4.0953,4.0769,4.1773,3.9783,3.9513,3.9943,3.8825,0.0,0.0,0.0,0.0,0.0,0.0,0.0,0.0,0.0,0.0,0.0,0.0,0.0,0.0,0.0,0.0,0.0,0.0,0.0,0.0,0.0,0.0,0.0,0.0,4.8849,5.0764,5.1417,5.3278,5.4245,5.3416,5.443,5.4718,5.3484,5.3431,5.3189,5.2425,5.1972,5.1705,5.1713,5.1867,0.0,0.0,0.0,5.1135,5.1065,5.0408,4.9602,4.8672,4.8739,4.8335,4.7506,4.693,4.6531,4.6347,4.5814,4.5874,4.633,4.5797,4.669,4.8441,4.838,4.8306,4.8134,4.7318,4.6493,4.5779,0.0,0.0,0.0,0.0,0.0,0.0,2.7681,2.8624,3.0398,3.3672,3.4433,3.5547,3.7796,3.7499,3.682,3.6091,3.5813,3.6164,3.733,3.8403,3.942,4.0414,4.1319,4.1815,4.1902,4.1057,4.0587,4.0495,3.8363,3.7255,3.7192,3.7869,3.7655,3.6811,3.9669,4.025,3.9203,4.0715,4.1435,4.1613,4.2405,4.3074,4.3586,4.3855,4.4553,4.5282,4.4574,4.4636,4.4707,4.2645,4.1683,4.1112,3.9381,3.833,0.0,0.0,0.0,0.0,0.0,0.0,0.0,0.0,0.0,0.0,0.0,0.0,0.0,0.0,0.0,0.0,0.0,0.0,0.0,4.9204,5.1726,5.3666,5.4438,5.4403,5.3742,5.2287,5.2101,5.2198,5.2503,5.2255,5.1782,5.1049,5.1579,5.1864,5.1709,5.1846,5.2127,5.2555,5.1864,5.1308,5.0867,5.0717,4.9729,4.7924,4.8292,0.0,4.6492,4.6718,4.6814,4.6779,4.6661,4.6678,4.6779,4.6661,4.7187,4.8087,4.8035,4.7662,4.709,4.6291,4.5566,4.5052,0.0,0.0,0.0,0.0,0.0,0.0,2.7578,2.8515,3.005,3.275,3.3161,3.3855,3.5574,3.5101,3.4319,3.3513,3.3814,3.5071,3.7481,3.8584,3.9894,4.1581,4.1647,4.1673,4.1748,4.0794,4.0309,4.0351,3.8973,3.83,3.8319,3.8713,3.8534,3.7915,3.9611,3.9848,3.9093,4.0536,4.1089,4.1114,4.2491,4.3027,4.3107,4.4092,4.5306,4.6531,4.6351,4.6667,4.7012,4.6011,4.5373,4.4692,4.3237,4.2069,4.0912,0.0,0.0,0.0,0.0,0.0,0.0,0.0,0.0,0.0,0.0,0.0,0.0,0.0,0.0,4.4829,0.0,0.0,4.9597,5.1417,5.2744,5.3421,5.3046,5.2947,5.28,5.2536,5.2291,5.2032,5.1724,5.1906,5.1754,5.1004,5.1476,5.1768,5.1661,5.1723,5.1881,5.2121,5.1772,5.1272,5.06,5.06,4.9676,4.7838,4.808,4.7628,4.6578,4.6794,4.6908,4.6908,4.6908,4.71,4.7515,4.8178,4.843,4.8416,4.8656,4.8217,4.7386,4.6991,4.6425,4.5877,0.0,0.0,0.0,0.0,0.0,0.0,0.0,2.8476,2.9858,3.1817,3.2144,3.2514,3.3371,3.2987,3.232,3.1476,3.2329,3.4216,3.7311,3.8619,4.0271,4.2522,4.1887,4.1459,4.1366,4.0482,4.0072,4.0139,3.9707,3.949,3.9512,3.9467,3.941,3.9359,3.9529,3.9495,3.936,4.0399,4.0675,4.0608,4.2554,4.301,4.2655,4.3794,4.5138,4.6467,4.6772,4.7149,4.7537,4.8001,4.7771,4.7105,4.6148,4.4998,4.3608,4.1276,4.1235,0.0,0.0,0.0,0.0,0.0,0.0,0.0,0.0,0.0,4.5096,4.7718,4.8477,4.9161,5.0858,5.1388,5.1927,5.3051,5.3182,5.2766,5.1644,5.1688,5.2236,5.3283,5.2987,5.2296,5.121,5.1783,5.1985,5.1406,5.1508,5.1644,5.175,5.1607,5.1585,5.1682,5.1538,5.1095,5.033,5.0312,4.9549,4.8003,4.8097,4.7755,4.7026,4.7115,4.716,4.716,4.716,4.7519,4.8147,4.9231,4.9274,4.8756,4.9179,4.8816,4.8048,4.7957,4.7382,4.6676,0.0,0.0,0.0,0.0,0.0,0.0,0.0,0.0,2.9794,3.1675,3.2086,3.2572,3.3563,3.359,3.3254,3.2503,3.383,3.5827,3.8451,4.0128,4.1522,4.2632,4.1933,4.1208,4.0558,4.0307,4.0215,4.0277,3.9523,3.9147,3.9157,3.9207,3.9082,3.8811,3.959,3.9694,3.9317,3.9445,3.9651,4.0038,4.169,4.2359,4.2586,4.4875,4.5501,4.5305,4.6681,4.6646,4.6058,4.6756,4.6959,4.6929,4.725,4.7085,4.6522,4.5274,4.3906,4.2381,4.0526,4.0551,4.1702,4.4413,4.4863,4.573,0.0,0.0,5.1214,5.2227,5.2955,5.3301,5.2913,5.3441,5.3938,5.4054,5.405,5.4186,5.4644,5.3525,5.3026,5.3982,5.2451,5.1255,5.1104,5.146,5.1665,5.1576,5.1576,5.1817,5.2291,5.1628,5.147,5.1938,5.1263,5.0614,5.0051,5.0051,4.9356,4.8003,4.8421,4.8226,4.7527,4.7955,4.8132,4.8132,4.8132,4.8187,4.8279,4.8429,4.8449,4.8357,4.8415,4.8376,4.8221,4.7798,4.687,4.5833,0.0,0.0,0.0,0.0,0.0,0.0,0.0,0.0,0.0,3.047,3.0752,3.108,3.1603,3.1283,3.088,3.0545,3.2931,3.5533,3.8042,3.9941,4.1567,4.2922,4.1853,4.1065,4.0759,4.0578,4.0498,4.0465,4.005,3.985,3.9804,3.9789,3.9705,3.9586,3.9829,3.9743,3.9446,3.997,4.043,4.0991,4.2599,4.3422,4.3851,4.5343,4.5171,4.4296,4.5488,4.545,0.0,4.5358,4.5488,4.5532,4.5858,4.558,4.475,4.2984,4.2489,4.2663,4.3119,4.3425,0.0,0.0,4.7351,4.818,5.0551,5.0873,5.1191,5.3114,5.3893,5.4253,5.4444,5.474,5.481,0.0,5.4147,5.392,5.3423,5.313,5.2785,5.2278,5.232,5.2363,5.233,5.2019,5.1833,5.1833,5.1415,5.1227,5.1441,5.1152,5.1054,5.1298,5.0986,5.0483,4.9766,4.9766,4.9245,4.8182,4.8368,4.8306,4.8015,4.821,4.8306,4.8306,4.8306,4.8306,4.8306,4.8306,4.8343,4.8401,4.8325,4.8363,4.8326,4.7582,4.6964,4.644,0.0,0.0,0.0,0.0,0.0,0.0,0.0,0.0,0.0,0.0,2.9581,2.9942,3.0168,2.973,2.9422,2.9384,3.225,3.5049,3.7348,3.9483,4.1422,4.3131,4.2223,4.1574,4.1336,4.1179,4.097,4.0701,4.0578,4.0518,4.0496,4.0419,4.0342,4.0258,4.0348,4.0317,4.0253,4.1098,4.1768,4.2407,4.4283,4.4807,4.4627,4.5862,4.5003,4.3282,4.4228,4.381,4.2926,4.3293,4.3247,4.3149,4.3646,4.3371,4.2535,4.1047,4.1137,4.2153,4.4208,0.0,0.0,4.8095,4.9482,5.055,5.1281,5.1357,5.1728,5.3499,5.4214,5.4594,5.4814,5.5012,5.4921,5.4207,5.3769,5.3265,5.2477,5.2443,5.2238,5.1536,5.2332,5.3015,5.3188,5.2674,5.2142,5.1701,5.1334,5.1041,5.082,5.0582,5.0472,5.0472,5.0233,4.9829,4.9262,4.9243,4.8912,4.8306,4.8306,4.8306,4.8363,4.8363,4.8234,4.8032,4.8252,4.8382,4.8382,4.8382,4.8438,4.8457,4.8162,4.8051,4.7978,4.6856,4.6581,4.6636,0.0,0.0,0.0,0.0,0.0,0.0,0.0,0.0,0.0,0.0,0.0,0.0,0.0,3.0247,3.0292,3.0348,3.2583,3.4791,3.6607,3.9155,4.1371,4.3124,4.3341,4.3034,4.2183,4.2165,4.1776,4.0982,4.0912,4.0912,4.0974,4.0907,4.0717,4.0423,4.128,4.175,4.1986,4.2787,4.3432,4.4135,4.6605,4.616,4.4286,4.6719,4.5337,4.2264,4.3066,4.1706,3.9655,4.0243,4.0,3.9655,4.0913,4.1107,4.0994,4.1499,4.094,4.0641,4.2858,0.0,4.6011,4.8915,5.1194,5.2907,5.3709,5.4474,5.4843,5.415,5.4716,5.4901,5.3439,5.3931,5.4312,5.3627,5.2851,5.2553,5.3171,5.1937,5.1511,5.2949,5.2472,5.2344,0.0,5.3167,5.2527,5.0949,5.1536,5.161,5.0839,5.005,4.9647,4.9647,4.882,4.8361,4.8343,4.8343,4.8343,4.8306,4.8306,4.8363,4.8476,4.8476,4.8071,4.7371,4.8163,4.8532,4.8587,4.8587,4.855,4.8421,4.7629,4.7261,4.6947,4.5351,4.5278,4.5828,0.0,0.0,0.0,0.0,0.0,0.0,0.0,0.0,0.0,0.0,0.0,0.0,0.0,0.0,0.0,0.0,3.2239,3.4145,3.5921,3.8482,4.0715,4.2452,4.3204,4.3417,4.3062,4.254,4.2404,4.2654,4.2099,4.211,4.2665,4.3092,4.2879,4.2154,4.2804,4.2989,4.2849,4.3563,4.3769,4.3776,4.5729,4.5342,4.3686,4.443,4.3087,4.0725,0.0,3.8976,3.8255,3.8151,3.79,3.7757,3.8411,3.8156,3.7654,3.7856,3.9162,4.0944,4.2661,0.0,4.742,4.9404,5.0832,5.1814,5.2082,5.209,5.1949,5.1725,5.1216,5.068,5.0264,5.0797,5.1277,5.1135,5.2147,5.2862,5.2565,5.2108,5.1775,5.163,5.1873,0.0,0.0,0.0,0.0,5.1591,5.0325,4.9903,5.0765,4.9481,4.9003,4.9574,4.8746,4.8086,4.7647,4.818,4.82,4.7702,4.7647,4.7666,4.7684,4.7684,4.7574,4.7388,4.7665,4.748,4.7,4.7,4.7017,4.7016,4.6687,4.6576,4.6427,4.5324,4.5068,4.5178,0.0,0.0,0.0,0.0,0.0,0.0,0.0,0.0,0.0,0.0,0.0,0.0,0.0,0.0,0.0,0.0,0.0,3.3341,3.5088,3.7355,3.9412,4.1163,4.2136,4.247,4.2107,4.1621,4.163,4.2149,4.1948,4.225,4.3054,4.3796,4.3729,4.3038,4.3905,4.4215,4.4144,4.4826,4.4857,4.45,4.5639,4.4833,4.2968,4.2864,4.1467,0.0,3.7951,3.7312,3.6972,3.6173,3.5839,3.5796,3.5996,3.608,3.616,3.6449,3.8421,4.0984,4.3306,4.5272,4.7168,4.9204,5.0173,5.0547,5.0235,5.0143,4.9958,4.9397,4.8638,4.7997,4.7758,4.8329,4.8882,4.8956,5.0449,5.1606,5.1663,5.1499,5.1443,5.163,5.2149,5.2279,0.0,0.0,0.0,5.1573,5.0383,4.9722,4.9903,4.9207,4.8786,4.8787,4.8197,4.7702,4.7334,4.75,4.7371,4.6945,4.7259,4.7075,4.6486,4.6798,4.6814,4.6589,4.6885,4.6755,4.6309,4.6309,4.6308,4.6269,4.5942,4.5813,4.5736,4.4873,4.4596,4.4521,0.0,0.0,0.0,0.0,0.0,0.0,0.0,0.0,0.0,0.0,0.0,0.0,0.0,0.0,0.0,0.0,0.0,0.0,3.4035,3.583,3.7597,3.9295,4.0357,4.05,3.9685,3.9688,3.971,3.9753,4.055,4.1362,4.2218,4.3083,4.3311,4.3058,4.4499,4.5296,4.5612,4.6345,4.64,4.5983,4.6143,4.4549,4.2021,4.2022,4.0472,3.8218,3.7455,3.6656,3.5793,3.4444,3.4042,3.4084,3.4054,3.5165,3.6633,3.7456,3.8869,4.095,4.4564,4.526,4.5608,4.836,4.9322,4.9353,4.8398,4.8838,4.8985,4.7314,4.7004,4.6764,0.0,0.0,4.7242,4.7279,4.8108,4.9305,5.0851,5.0354,5.0645,0.0,0.0,0.0,0.0,0.0,0.0,5.0912,0.0,5.0977,4.8563,4.9192,4.8918,4.7334,4.7132,4.7095,4.7276,4.6323,4.5919,4.6063,4.6996,4.6623,4.5023,4.5864,4.5823,4.5138,4.5916,4.63,4.6364,4.6364,4.6296,4.6101,4.5342,4.4996,4.4873,4.4098,4.3851,4.3881,0.0,0.0,0.0,0.0,0.0,0.0,0.0,0.0,0.0,0.0,0.0,0.0,0.0,0.0,0.0,0.0,0.0,0.0,3.2069,3.4469,3.6356,3.7434,3.9619,4.0735,4.0576,3.9946,3.9932,4.0597,4.0165,4.0708,4.2144,4.2923,4.3185,4.3038,4.38,4.4072,4.3955,4.4535,4.4066,4.2976,4.3506,4.2159,3.9806,3.9588,3.8581,3.7259,3.711,3.6562,3.5882,3.5677,3.608,0.0,3.7272,3.8157,3.9145,4.0016,4.1785,4.3699,4.4726,4.6654,4.8104,4.7001,4.8176,4.906,4.6985,4.715,4.7278,4.5645,4.4396,4.333,0.0,0.0,0.0,4.7058,4.9887,0.0,5.3377,5.2293,0.0,5.3059,0.0,5.1646,5.2252,5.1756,0.0,0.0,5.1006,5.0861,5.0196,4.9206,4.8197,4.7187,4.6544,4.5974,4.5473,4.5357,4.5317,4.5284,4.5588,4.5492,4.5086,4.5288,4.5356,4.5254,4.5459,4.5215,4.4636,4.4636,4.4621,4.4568,4.4363,4.4273,4.4239,4.4016,4.3958,4.3958,0.0,0.0,0.0,0.0,0.0,0.0,0.0,0.0,0.0,0.0,0.0,0.0,0.0,0.0,0.0,0.0,0.0,0.0,0.0,3.3348,3.4618,3.5488,3.743,3.8489,3.8537,3.8471,3.8695,3.9185,3.9466,4.0073,4.097,4.1712,4.1959,4.1794,4.2302,4.2527,4.2506,4.2731,4.2235,0.0,0.0,4.0167,3.8366,3.8218,3.7738,3.7127,3.7231,3.7581,3.8211,0.0,0.0,3.9209,3.9606,4.0543,4.1513,4.1654,0.0,4.4267,4.4651,4.5809,4.6673,4.5626,4.6416,4.6893,4.48,4.4947,4.5057,4.3443,4.2121,0.0,4.0671,4.3204,0.0,0.0,0.0,0.0,5.2766,5.2032,5.1775,0.0,5.1885,0.0,5.1958,5.1903,5.172,0.0,5.1338,5.0714,4.9201,4.8986,4.8014,4.6104,4.5608,4.5002,4.4228,4.4784,4.487,4.4487,4.4903,4.4932,4.4612,4.4612,4.4663,4.4729,4.4729,4.4451,4.4005,4.4005,4.4005,4.4005,4.4005,4.4005,4.4005,4.4005,4.4005,4.3989,0.0,0.0,0.0,0.0,0.0,0.0,0.0,0.0,0.0,0.0,0.0,0.0,0.0,0.0,0.0,0.0,0.0,0.0,0.0,0.0,3.2797,3.3665,3.4726,3.5335,3.5464,3.6325,3.6778,3.676,3.8252,3.9019,3.9057,3.9674,3.9914,3.9814,4.0192,4.0528,4.0828,4.0609,4.028,3.9822,3.9259,3.8347,3.7342,0.0,3.7429,3.7373,3.7558,3.8887,4.0975,0.0,4.337,4.1756,4.1866,4.2782,4.368,4.2983,4.3204,4.3809,4.4525,4.4268,4.392,4.4415,4.4709,4.4415,4.269,4.291,4.3039,4.1425,0.0,4.0029,3.9918,4.2433,4.4415,4.403,0.0,5.0857,5.1518,5.1316,5.1426,5.2215,5.2032,5.1793,5.1703,5.2215,5.227,5.1555,5.1564,5.0257,4.7184,4.8491,4.7868,4.4635,4.4544,4.4213,4.3515,4.4368,4.4471,4.3788,4.4554,4.4615,4.3989,4.3989,4.3989,4.4005,4.3989,4.3989,4.4005,4.3989,4.3989,4.4005,4.4005,4.4005,4.4005,4.4005,4.4005,4.4005,0.0,0.0,0.0,0.0,0.0,0.0,0.0,0.0,0.0,0.0,2.7886,2.9012,0.0,0.0,0.0,0.0,0.0,0.0,0.0,0.0,0.0,3.2627,3.3633,3.4519,3.5243,3.5475,3.554,3.5423,3.5737,3.6162,3.6693,3.6644,3.7029,3.7701,3.7512,3.7405,3.7362,3.7084,3.6664,3.6145,3.6416,3.6263,3.5924,3.6531,0.0,0.0,3.7649,3.865,4.0212,4.3504,4.482,4.5186,4.5847,4.5792,4.5461,4.5314,4.4911,4.4525,4.4672,4.5076,4.5204,4.4011,4.4709,4.5094,4.2818,4.291,0.0,0.0,4.0985,4.0689,4.001,4.1974,4.4323,4.6159,0.0,0.0,0.0,0.0,5.3078,0.0,0.0,0.0,0.0,0.0,0.0,0.0,4.8949,4.8398,4.7149,4.7388,4.6379,4.379,4.3717,4.3626,4.3515,4.3729,4.3763,4.3634,4.39,4.3999,4.3913,4.3913,4.3961,4.4005,4.3945,0.0,4.4005,4.3945,4.3961,4.4005,4.4005,4.4005,4.4005,4.4005,4.4005,4.4005,0.0,0.0,0.0,0.0,0.0,0.0,0.0,2.3354,2.4769,2.6435,2.8391,2.9781,3.0182,3.1024,3.1624,0.0,0.0,0.0,0.0,0.0,0.0,0.0,3.2182,3.2968,3.3411,3.4039,3.4327,3.4264,0.0,3.5058,3.5256,3.5036,3.5056,3.5304,3.4929,3.4867,3.4978,3.4817,3.4972,3.5363,3.5524,3.5712,3.5948,0.0,0.0,0.0,0.0,0.0,4.0039,4.2887,4.4656,4.5937,4.7277,4.7462,4.6911,4.5645,4.5002,4.4617,4.4195,4.436,4.447,4.3698,4.4066,4.4121,4.2139,0.0,0.0,0.0,3.9848,3.9735,3.935,4.1589,0.0,4.5039,0.0,0.0,0.0,0.0,0.0,0.0,0.0,0.0,0.0,0.0,4.8306,4.8306,4.7901,4.7296,4.647,4.5627,4.4655,4.3551,4.3515,4.3515,4.3515,4.3531,4.3565,4.3599,4.3667,4.3753,4.3851,4.3851,4.3867,4.3881,4.3867,4.3867,4.3881,4.3867,4.3867,4.3897,4.3945,4.3961,4.3942,4.3989,4.4005,4.4005,0.0,0.0,0.0,0.0,0.0,0.0,0.0,2.3251,2.4788,2.6762,2.8841,3.0501,3.1523,3.223,3.2739,0.0,0.0,0.0,0.0,0.0,0.0,0.0,0.0,0.0,3.1688,0.0,0.0,3.3502,3.4331,0.0,0.0,0.0,0.0,0.0,3.2996,3.2967,3.3247,3.3196,3.3819,0.0,0.0,3.5332,0.0,0.0,0.0,0.0,0.0,0.0,3.9587,4.192,4.3523,4.4818,4.6634,4.7461,4.7352,4.5112,4.4452,4.4305,4.3663,4.3515,4.3551,4.3699,4.3643,4.3112,4.168,4.1224,0.0,0.0,3.8964,3.9019,3.9184,4.113,4.2947,0.0,4.6838,4.9884,0.0,0.0,0.0,0.0,0.0,0.0,0.0,0.0,0.0,4.7905,4.7151,4.636,4.559,4.4198,4.3446,4.3497,4.3515,4.3515,4.3515,4.3515,4.3532,4.3582,4.3582,4.3634,4.3771,4.3771,4.3769,4.3804,4.3771,4.3769,4.3804,4.3771,4.3769,4.3804,4.3851,4.3899,4.3897,4.3958,4.3989,4.4005,0.0,0.0,0.0,0.0,0.0,0.0,0.0,2.2774,2.4525,2.7651,2.9157,3.0762,3.3026,3.3148,3.3236,0.0,0.0,0.0,0.0,0.0,0.0,0.0,0.0,0.0,0.0,0.0,0.0,3.3492,3.4191,0.0,0.0,0.0,0.0,0.0,0.0,3.2109,3.2143,3.2089,0.0,0.0,0.0,0.0,0.0,0.0,0.0,0.0,0.0,0.0,0.0,0.0,0.0,4.1518,4.3141,4.4803,4.5792,4.4085,0.0,0.0,4.3533,4.3515,4.368,4.4415,4.4048,4.3276,4.2396,0.0,0.0,3.9974,3.979,4.001,4.0728,4.0524,4.1185,0.0,0.0,4.5993,0.0,0.0,0.0,0.0,0.0,0.0,0.0,4.7959,4.7356,4.6633,4.5834,4.522,4.4819,4.3975,4.3497,4.3515,4.3515,4.3515,4.3515,4.3515,4.3496,4.3515,4.3515,4.3566,4.3615,4.3615,4.3684,4.3788,4.3667,4.3703,0.0,4.3667,4.3684,4.3804,4.3804,4.3851,4.3897,4.3897,4.3961,4.4005,0.0,0.0,0.0,0.0,0.0,0.0,2.067,2.1879,2.3813,2.7125,2.8725,3.0472,3.2924,3.3273,3.3456,3.3756,0.0,0.0,0.0,0.0,0.0,0.0,0.0,0.0,0.0,0.0,3.175,3.3011,3.3158,0.0,0.0,0.0,0.0,0.0,0.0,3.165,3.1334,3.1047,0.0,0.0,0.0,0.0,0.0,0.0,0.0,0.0,0.0,0.0,3.6913,0.0,0.0,0.0,4.0105,4.146,0.0,0.0,4.3515,4.3625,4.4085,4.3864,4.3681,4.4507,4.3369,4.2103,4.2268,0.0,3.957,3.9239,3.9184,3.9276,3.9606,3.9386,3.9918,4.2159,4.2671,0.0,4.8471,0.0,0.0,0.0,0.0,0.0,0.0,0.0,4.5835,4.4509,4.4451,4.4424,4.4278,4.3783,4.3515,4.3515,4.3515,4.3515,4.3515,4.3515,4.3515,4.3515,4.3515,4.3496,4.3531,4.3531,4.3566,4.3618,4.3548,4.3566,0.0,4.3566,4.3566,4.3617,4.3651,4.3701,4.3716,4.3849,4.3913,4.3945,0.0,0.0,0.0,0.0,0.0,1.8824,2.0267,2.1357,2.3121,2.6285,2.7986,2.9692,3.1816,3.2678,3.3103,3.3159,3.2938,0.0,0.0,0.0,0.0,0.0,0.0,0.0,0.0,0.0,3.0852,3.2442,3.2473,3.3192,0.0,0.0,3.3301,3.2495,0.0,0.0,0.0,0.0,0.0,0.0,0.0,0.0,0.0,0.0,0.0,0.0,0.0,0.0,0.0,0.0,0.0,0.0,0.0,3.9162,4.0681,0.0,4.313,4.368,4.4488,4.447,4.4397,4.5223,4.359,4.1974,0.0,0.0,3.9001,3.8762,3.8707,3.8781,3.9019,3.8854,3.9237,4.0885,4.1587,4.3001,4.603,0.0,0.0,0.0,0.0,4.8282,0.0,4.6059,4.4557,4.3448,4.3441,4.3604,4.3866,4.3565,4.3422,4.3496,4.3515,4.3515,4.3515,4.3515,4.3515,4.3515,4.3515,4.3515,4.3515,4.3515,4.3515,4.3515,4.3515,4.3515,0.0,4.3515,4.3515,4.3496,4.3548,4.3582,4.3615,4.3767,4.3851,4.3883,0.0,0.0,0.0,0.0,0.0,0.0,2.0817,2.1357,2.2538,2.545,2.7033,2.8387,2.9693,3.1214,3.2056,3.1931,3.2044,0.0,0.0,0.0,0.0,0.0,0.0,0.0,0.0,0.0,3.0332,3.1805,3.24,3.3276,3.4382,3.3525,3.2943,3.2558,0.0,0.0,0.0,0.0,0.0,0.0,0.0,0.0,0.0,0.0,0.0,0.0,0.0,0.0,0.0,0.0,0.0,0.0,0.0,3.833,3.9545,4.0775,4.2249,4.368,4.4488,4.5278,4.6067,4.6874,4.5259,4.3478,0.0,0.0,3.9662,3.8854,3.8707,3.8946,3.9735,3.9239,3.9268,4.1006,4.119,4.2005,4.4568,0.0,0.0,0.0,0.0,4.7441,4.6775,4.4836,4.3719,4.3967,4.2954,0.0,4.3557,4.3282,4.3226,4.3495,4.3515,4.3515,4.3515,4.3515,4.3515,4.3515,4.3515,4.3515,4.3515,4.3515,4.3515,4.3515,4.3515,4.3515,0.0,4.3515,4.3515,4.3515,4.3515,4.3531,4.3599,4.3599,4.3684,4.3804,0.0,0.0,0.0,0.0,0.0,0.0,0.0,2.0016,2.136,2.439,2.6006,2.7583,2.9463,3.0557,3.1174,3.129,3.1893,0.0,0.0,0.0,0.0,0.0,0.0,0.0,0.0,0.0,3.11,3.2061,3.2138,3.2842,3.4119,3.37,3.3187,3.2572,3.1861,3.1385,0.0,0.0,0.0,0.0,0.0,0.0,0.0,0.0,0.0,0.0,0.0,0.0,0.0,0.0,0.0,0.0,0.0,0.0,0.0,3.93,4.0699,4.2047,4.2837,4.2837,4.2801,4.3626,4.2011,4.0506,4.1607,0.0,3.8355,3.8634,3.8707,3.8781,3.9038,3.8946,3.9571,4.1825,4.1761,4.2307,0.0,0.0,0.0,0.0,0.0,4.6999,0.0,0.0,4.3685,4.3204,4.3194,4.3538,4.4383,4.4156,4.3936,4.3844,4.3846,4.3732,4.3496,4.3515,4.3515,4.3515,4.3515,4.3515,4.3515,4.3515,4.3515,4.3515,4.3515,4.3515,4.3515,4.3515,4.3515,4.3515,4.3515,4.3496,4.3549,4.3582,4.3634,4.3667,0.0,0.0,0.0,0.0,0.0,0.0,0.0,1.9578,2.0674,2.331,2.496,2.6553,2.835,2.9617,3.0375,3.0421,3.1244,0.0,0.0,0.0,0.0,0.0,0.0,0.0,2.8848,3.0257,3.1212,3.1677,3.1757,3.2351,3.3465,3.3298,3.2946,3.2494,3.1993,3.1659,0.0,0.0,0.0,0.0,0.0,0.0,3.5167,0.0,0.0,0.0,0.0,0.0,0.0,0.0,0.0,0.0,0.0,0.0,0.0,0.0,3.9065,4.0189,4.1732,4.1987,4.1986,4.2567,4.0897,0.0,0.0,3.9221,3.7731,3.8524,3.8735,3.8872,3.9182,3.908,3.9711,4.195,4.1924,4.2378,0.0,0.0,0.0,0.0,0.0,0.0,0.0,4.371,4.3348,4.2832,4.3099,4.3639,4.4456,4.4333,4.4271,4.4303,4.4109,4.391,4.3699,4.3565,4.3515,4.3515,4.3515,4.3515,4.3515,4.3515,4.3515,4.3515,4.3515,4.3515,0.0,4.3515,4.3515,4.3515,4.3515,4.3515,4.3515,4.3566,4.3565,4.3565,0.0,0.0,0.0,0.0,0.0,0.0,0.0,1.9845,2.0438,2.2339,2.3983,2.5437,2.6657,2.8524,2.9639,2.9487,0.0,0.0,0.0,0.0,0.0,0.0,0.0,0.0,2.8656,3.0055,3.0798,3.0793,3.1326,3.1913,3.2566,3.2453,3.2398,3.2367,3.1736,3.1459,0.0,0.0,0.0,0.0,0.0,0.0,0.0,0.0,0.0,0.0,0.0,0.0,0.0,0.0,0.0,0.0,0.0,0.0,0.0,0.0,0.0,0.0,0.0,4.2159,4.2796,0.0,0.0,0.0,0.0,0.0,0.0,3.8542,3.881,3.915,3.9956,3.961,3.9821,4.1684,4.1847,4.2435,0.0,4.6107,0.0,0.0,4.6317,0.0,4.3914,4.326,4.287,4.2794,4.2851,4.3233,4.4045,4.4083,4.4293,4.473,4.4299,4.4033,4.4005,4.3666,4.3515,4.3515,4.3515,4.3515,4.3515,4.3515,4.3478,0.0,4.3478,4.3478,4.3423,4.3478,4.3515,4.3496,4.3441,4.3423,4.3423,4.3423,4.3423,4.3423,0.0,0.0,0.0,0.0,0.0,0.0,0.0,0.0,0.0,0.0,2.3664,2.5135,2.6627,2.8056,2.8894,0.0,0.0,0.0,0.0,0.0,0.0,0.0,0.0,0.0,2.9067,3.0162,3.0667,3.057,3.1171,3.1697,3.2122,3.233,3.2398,3.2382,3.2228,3.2151,0.0,0.0,0.0,0.0,0.0,0.0,0.0,0.0,0.0,0.0,3.5245,3.5331,0.0,0.0,0.0,0.0,0.0,0.0,0.0,0.0,3.6919,3.7351,3.8402,0.0,3.9432,3.9501,3.9114,3.8812,0.0,0.0,0.0,0.0,0.0,0.0,0.0,4.0193,4.1049,4.3465,4.3415,4.3911,4.6365,0.0,0.0,4.9622,4.8227,4.6088,4.333,4.3493,4.3522,4.2851,4.3426,4.4153,4.4953,4.4991,4.476,4.4219,4.4454,4.4416,4.3986,4.3666,4.3515,4.3515,4.3515,4.3515,4.3515,4.3515,4.3149,4.2616,4.3222,4.3149,4.2635,4.324,4.3515,4.3441,4.2818,4.258,4.258,4.258,4.258,4.2671,0.0,0.0,0.0,0.0,0.0,0.0,0.0,0.0,0.0,0.0,0.0,2.4547,2.6001,2.7367,0.0,0.0,0.0,0.0,0.0,0.0,0.0,0.0,0.0,2.9309,2.911,3.0421,3.0863,3.0507,3.1296,3.1728,3.1868,3.2163,3.233,3.2315,3.237,3.2398,0.0,0.0,0.0,0.0,3.299,0.0,0.0,0.0,0.0,0.0,3.4899,3.5088,0.0,3.5111,3.4885,3.4664,0.0,0.0,0.0,0.0,3.6716,3.7052,3.7522,3.8133,3.8683,3.875,3.8543,3.8494,3.8953,0.0,0.0,0.0,0.0,0.0,0.0,0.0,4.2521,4.4384,4.472,0.0,0.0,0.0,0.0,4.9196,4.7739,4.5816,0.0,4.3789,4.3846,4.3386,4.4152,4.4831,4.5288,4.5307,4.4895,4.4025,4.452,4.4397,4.3587,4.3672,4.3649,4.3515,4.313,4.2947,4.2928,4.2561,4.2158,4.1791,4.2598,4.2488,4.1809,4.2616,4.2727,4.2359,4.1919,4.1754,4.1754,4.1754,4.1754,4.1864,0.0,0.0,0.0,0.0,0.0,0.0,0.0,0.0,0.0,0.0,0.0,0.0,0.0,0.0,0.0,0.0,0.0,0.0,0.0,0.0,0.0,0.0,2.8986,2.9421,2.9098,3.054,3.1038,3.0459,3.1439,3.1811,3.1567,3.2072,3.2344,3.2372,3.2361,3.237,0.0,0.0,3.2721,3.3198,3.2783,0.0,0.0,0.0,0.0,0.0,0.0,0.0,0.0,3.5111,3.5138,3.5163,3.5148,0.0,0.0,0.0,0.0,0.0,3.7646,3.8707,3.9608,3.9335,3.8985,3.89,3.9705,0.0,0.0,0.0,0.0,0.0,0.0,4.3466,0.0,0.0,0.0,0.0,4.9044,4.8761,4.8282,4.8097,4.6708,0.0,4.4141,4.4141,4.415,4.4006,4.4829,4.526,4.5126,4.5126,4.4668,4.3693,4.4208,4.3963,4.2808,4.3461,4.3659,4.3379,4.2522,4.2121,4.2084,4.1407,4.1022,4.0967,4.1901,0.0,4.1001,4.195,4.1893,4.114,4.1059,4.1038,4.1054,4.1183,4.122,4.1348,0.0,0.0,0.0,0.0,0.0,0.0,0.0,0.0,0.0,0.0,0.0,0.0,0.0,0.0,0.0,0.0,0.0,0.0,0.0,0.0,0.0,2.8091,2.8315,2.878,2.9492,3.0151,3.0435,3.0318,3.1174,3.135,3.0984,3.2269,3.2989,3.32,3.252,3.2287,3.2398,3.2398,3.2459,3.2564,3.2597,0.0,0.0,0.0,0.0,0.0,0.0,0.0,0.0,3.5268,3.4941,3.4628,3.5171,0.0,0.0,0.0,0.0,0.0,3.8342,4.0435,4.1738,3.9716,3.9818,4.0478,4.0743,0.0,0.0,0.0,0.0,0.0,0.0,4.3958,4.4212,0.0,0.0,4.8403,0.0,0.0,4.9687,4.9004,0.0,4.6541,4.4306,4.4756,4.4851,4.4064,4.486,4.5063,4.4326,4.4268,4.3599,4.2095,4.2785,4.2619,4.1416,4.2394,4.2872,4.2811,4.179,4.1279,4.1279,4.115,4.0728,4.0175,0.0,4.146,4.0226,4.1915,4.2153,4.1386,4.0943,4.0772,4.0846,4.1528,4.1771,4.1996,0.0,0.0,0.0,0.0,0.0,0.0,0.0,0.0,0.0,0.0,0.0,0.0,0.0,0.0,0.0,0.0,0.0,0.0,0.0,0.0,2.836,2.8112,2.815,2.8538,2.932,2.9913,3.0189,3.0189,3.0807,3.1087,3.0984,3.1984,3.272,3.3169,3.2566,3.2342,3.2398,3.2398,3.2398,3.2425,0.0,0.0,0.0,0.0,0.0,0.0,0.0,0.0,0.0,0.0,3.4672,3.4766,3.5424,0.0,0.0,0.0,0.0,0.0,3.8096,3.9932,4.1397,4.0817,4.205,4.325,4.2462,0.0,0.0,0.0,0.0,0.0,0.0,0.0,4.7246,4.9482,0.0,4.9086,5.073,4.9453,4.8192,0.0,0.0,4.6046,4.486,4.5109,4.4994,4.4114,4.444,4.4336,4.3494,4.3417,4.2871,4.1738,4.2459,4.2365,4.1378,4.1721,4.1943,4.204,4.111,4.0588,4.0432,4.001,3.9682,3.9534,0.0,4.0641,3.9775,4.1078,4.1152,4.0395,4.0152,4.0315,4.0741,4.1129,4.1542,4.1999,0.0,0.0,0.0,0.0,0.0,0.0,0.0,0.0,0.0,0.0,0.0,0.0,0.0,0.0,0.0,0.0,0.0,0.0,0.0,2.8317,2.8235,2.8164,2.8131,2.8425,2.8972,2.9369,2.9624,2.97,3.011,3.0629,3.1205,3.1541,3.2145,3.2939,3.2497,3.2315,3.2342,3.2398,3.2398,3.2398,0.0,0.0,0.0,0.0,0.0,0.0,0.0,0.0,0.0,0.0,0.0,0.0,0.0,0.0,0.0,3.6992,3.7203,3.7444,3.8026,3.9607,4.127,4.2014,4.3689,0.0,0.0,0.0,0.0,0.0,0.0,0.0,0.0,4.7308,0.0,5.1575,5.0329,4.9395,5.0264,4.8586,4.7084,4.6621,4.6028,4.5559,4.5326,4.5126,4.4764,4.4144,4.3924,4.3474,4.2669,4.2564,4.22,4.1431,4.1932,4.1943,4.1311,4.1121,4.115,4.1404,4.0528,4.0016,3.9782,3.9172,3.9007,3.9248,4.0035,4.0045,3.9589,4.0641,4.049,3.9649,4.0104,4.075,4.1479,4.1479,4.1976,4.2693,0.0,0.0,0.0,0.0,0.0,0.0,0.0,0.0,0.0,0.0,0.0,0.0,0.0,0.0,0.0,0.0,0.0,0.0,0.0,2.7991,2.83,2.83,2.83,2.8398,2.8619,2.8251,2.8215,2.8521,2.8733,2.9797,3.1562,3.0964,3.1471,3.2778,3.2256,3.2094,3.2219,3.2342,3.2398,3.2398,3.2398,0.0,0.0,0.0,0.0,0.0,0.0,0.0,0.0,0.0,0.0,0.0,0.0,0.0,3.6568,3.6992,3.7203,3.7551,3.8689,4.089,4.2867,4.3069,4.3341,0.0,4.6342,4.6517,0.0,4.7372,0.0,0.0,0.0,4.7682,4.82,4.9204,4.922,4.9377,5.0187,0.0,4.8326,4.6691,4.6462,4.6118,4.5383,4.4611,4.4163,4.4087,4.3407,4.2649,4.1834,4.1777,4.1384,4.0522,4.056,4.0532,4.0494,4.0466,4.0692,4.1116,4.0051,3.954,3.9527,3.9471,3.9446,3.9514,4.0314,4.0234,3.9639,4.1432,4.126,4.0054,4.1852,4.3049,4.3755,4.3755,4.4308,4.5063,0.0,0.0,0.0,0.0,0.0,0.0,0.0,0.0,0.0,0.0,0.0,0.0,0.0,0.0,0.0,0.0,0.0,0.0,0.0,2.7533,2.7878,2.817,2.8164,2.8074,2.7872,2.8019,2.795,2.7714,2.836,2.948,3.0997,3.1327,3.2078,3.3156,3.2964,3.2658,3.2315,3.237,3.2398,3.2398,3.2398,3.2425,0.0,0.0,0.0,0.0,0.0,0.0,0.0,0.0,3.4436,3.4743,3.6183,3.6708,3.6891,3.728,3.7448,3.763,3.8347,4.0383,4.2341,4.2431,4.3323,0.0,0.0,4.7094,4.735,4.6887,4.765,0.0,0.0,0.0,4.828,4.9737,4.9491,4.9217,4.9507,4.8356,4.7245,4.6577,4.5623,4.4889,4.4583,4.38,4.3092,4.2641,4.2287,4.1741,4.0924,4.0849,4.0706,4.0407,4.0407,4.0407,4.0407,4.0407,4.0479,4.0606,4.0019,3.9656,3.9514,3.9514,3.9599,3.977,4.0079,4.0121,4.0053,4.0764,4.0699,4.0338,4.2115,4.3291,4.4006,4.4006,4.4197,4.4494,0.0,0.0,0.0,0.0,0.0,0.0,0.0,0.0,0.0,0.0,0.0,0.0,0.0,0.0,0.0,0.0,0.0,0.0,2.6436,2.6868,2.7382,2.7948,2.7723,2.7573,2.7503,2.7465,2.7347,2.7143,2.8082,2.9119,3.0224,3.1397,3.2181,3.2661,3.3131,3.2944,3.2342,3.237,3.2398,3.2398,3.2398,3.2398,0.0,0.0,0.0,0.0,0.0,0.0,0.0,0.0,3.4179,3.4556,3.6277,3.6908,3.7106,3.7429,3.7792,3.8151,3.8486,4.0217,4.2048,4.2493,0.0,0.0,4.6754,4.7642,4.8031,4.7704,4.8198,4.8613,4.8329,0.0,0.0,0.0,4.8936,4.8605,4.8354,4.7259,4.6309,4.5795,4.4745,4.3981,4.3743,4.2948,4.2239,4.1738,4.1414,4.1003,4.0409,4.0325,4.0316,4.037,4.037,4.0264,4.0021,4.0298,4.0253,3.9923,4.0015,3.995,3.9739,3.9739,3.9848,4.0027,4.0027,4.0118,4.032,4.0578,4.0845,4.1189,4.2049,4.2889,4.3643,4.3911,4.4006,4.4045,0.0,0.0,0.0,0.0,0.0,0.0,0.0,0.0,0.0,0.0,0.0,0.0,0.0,0.0,0.0,0.0,0.0,0.0,2.5388,2.6069,2.687,2.7633,2.6924,2.6883,2.7691,2.6524,2.6199,2.6779,2.7745,2.8584,2.9355,3.1024,3.1513,3.1073,3.2549,3.2817,3.2219,3.2342,3.2398,3.2398,3.2398,3.2398,3.2508,0.0,0.0,0.0,0.0,0.0,0.0,0.0,3.4465,3.4706,3.6457,3.7048,3.7147,3.7354,3.8203,3.9139,3.9352,4.0687,4.2315,0.0,0.0,0.0,4.8067,4.8376,4.8734,5.061,4.9296,4.7548,4.6671,4.6514,0.0,4.6574,4.7259,4.7505,4.6708,4.6513,4.5891,4.4297,4.4028,4.3684,4.2966,4.2151,4.1681,4.1681,4.0957,4.0441,4.0307,4.0307,4.0307,4.0288,4.0288,3.993,3.9188,4.006,4.0016,3.9112,3.9985,4.0354,4.0301,4.0301,4.0301,4.0301,4.0301,4.0301,4.0358,4.1151,4.1991,4.2698,4.1839,4.203,4.2908,4.3682,4.3987,4.4121,0.0,0.0,0.0,0.0,0.0,0.0,0.0,0.0,0.0,0.0,0.0,0.0,0.0,0.0,0.0,0.0,0.0,0.0,2.4866,2.5545,2.616,2.6689,2.7019,2.7281,2.7418,2.77,2.7379,2.6378,2.7026,2.808,2.9529,3.1085,3.1823,3.1871,3.2875,3.2972,3.2342,3.237,3.2398,3.2398,3.2398,3.2398,3.2465,0.0,0.0,0.0,0.0,0.0,0.0,0.0,0.0,0.0,3.6517,3.7535,3.8024,3.7701,3.8349,3.921,3.942,4.0903,0.0,4.3648,0.0,0.0,0.0,4.8545,0.0,0.0,4.9048,4.7742,4.7515,4.695,0.0,4.584,4.5913,4.5967,4.5781,4.5175,4.4571,4.4084,4.3015,4.2221,4.2001,4.1225,4.0708,4.0708,4.0498,4.0337,4.0291,4.031,4.0032,3.9475,3.9453,3.9084,3.8284,3.909,3.938,3.9108,3.9945,4.031,4.0301,4.0301,4.0301,4.0301,4.0301,4.0301,4.032,4.0559,4.1132,4.1858,4.159,4.203,4.2832,4.308,4.351,4.3949,0.0,0.0,0.0,0.0,0.0,0.0,0.0,0.0,0.0,0.0,2.2657,2.263,0.0,0.0,0.0,0.0,0.0,0.0,0.0,2.4981,2.5767,2.6573,2.6888,2.719,2.7485,2.8294,2.8282,2.7392,2.7961,2.8813,2.9915,3.1405,3.2064,3.2049,3.2989,3.2875,3.1982,3.1982,3.1982,3.1982,3.1982,3.2249,3.266,0.0,0.0,0.0,0.0,0.0,0.0,0.0,0.0,0.0,3.6644,3.754,3.8103,3.8222,3.9012,4.0013,4.0575,4.1957,0.0,4.4953,4.6205,4.7313,4.8099,0.0,0.0,0.0,4.8735,4.7608,4.6983,4.6407,0.0,4.4557,4.4593,4.4687,4.4422,4.3875,4.3405,4.3081,4.2183,4.1456,4.1148,4.0335,3.9962,4.0288,3.9993,3.9966,4.0282,3.9995,3.9602,3.912,3.8799,3.823,3.7386,3.8211,3.8616,3.8593,3.9066,3.946,3.9804,4.0129,4.0301,4.0301,4.0301,4.0301,4.0301,4.0301,4.0597,4.1017,4.1017,4.1342,4.1858,4.2163,4.2584,4.2985,0.0,0.0,0.0,0.0,0.0,0.0,0.0,0.0,0.0,0.0,2.2544,2.2378,0.0,0.0,0.0,0.0,0.0,0.0,0.0,2.4492,2.5607,2.6957,2.6794,2.7097,2.8006,2.8586,2.9062,2.9359,2.9829,3.0162,3.0387,3.1797,3.218,3.1754,3.2769,3.2536,3.1409,3.1347,3.1305,3.1305,3.1305,3.1851,3.271,3.3129,0.0,0.0,0.0,0.0,0.0,0.0,0.0,0.0,3.6804,3.7333,3.7735,3.8726,3.9925,4.1183,4.2297,4.3424,0.0,4.6972,4.7599,0.0,4.7877,4.9041,4.9824,4.8938,0.0,4.7092,4.5468,4.5182,4.4668,4.3073,4.3416,4.3645,4.29,4.267,4.2288,4.1571,4.1351,4.0978,4.0236,3.951,3.935,4.0011,3.9388,3.9294,4.0024,3.9363,3.8939,3.8861,3.8159,3.7351,3.6485,3.7348,3.7745,3.7677,3.7753,3.8167,3.8916,3.9785,4.0225,4.0301,4.0225,4.0225,4.0301,4.0301,4.0301,4.0301,4.0301,4.0301,4.0377,4.1113,4.1437,4.159,0.0,0.0,0.0,0.0,0.0,0.0,0.0,0.0,0.0,0.0,0.0,0.0,0.0,0.0,0.0,0.0,0.0,0.0,0.0,2.4549,2.5416,2.6342,2.7804,2.8907,2.9592,3.0188,3.0543,3.0602,3.006,3.0148,3.0881,3.1717,3.2033,3.1938,3.1861,3.1659,3.1378,3.0843,3.0602,3.0602,3.0602,3.0746,3.099,3.1489,3.1822,0.0,0.0,0.0,0.0,0.0,0.0,0.0,3.6973,3.7969,3.8726,3.8346,3.9688,4.1502,4.2424,4.3681,0.0,0.0,4.9017,4.9537,4.8953,4.8563,4.7933,4.6424,4.5965,4.5526,4.4465,4.4274,4.3959,4.2957,4.2957,4.3004,4.2833,4.1667,4.0769,4.0606,3.9947,3.9211,3.835,3.8732,3.8819,3.8303,3.8093,3.8074,3.8247,3.8096,3.7712,3.7072,3.6842,3.6345,3.5587,3.6397,3.6793,3.6784,3.7424,3.7816,3.8018,3.8877,3.9652,4.0263,3.9584,3.968,4.0301,4.0301,4.0301,4.0301,4.0301,4.0301,4.032,4.0492,4.096,4.1437,0.0,0.0,0.0,0.0,0.0,0.0,0.0,0.0,0.0,0.0,0.0,0.0,0.0,0.0,0.0,0.0,0.0,0.0,0.0,0.0,2.5893,2.7577,2.9068,3.0085,3.0538,3.0822,3.1087,3.1248,3.0936,3.1037,3.1481,3.184,3.2066,3.216,3.1636,3.1213,3.0889,3.0202,2.991,2.994,3.0263,3.049,3.0706,3.1797,3.2207,3.2367,3.3773,0.0,0.0,0.0,0.0,0.0,0.0,0.0,3.8474,3.8596,3.9644,4.1093,4.2537,0.0,0.0,4.8192,0.0,4.9511,4.8706,4.7201,4.5642,4.4451,4.4509,4.4403,4.3168,4.3235,4.3082,4.1893,4.1674,4.1503,4.1083,3.9915,3.9094,3.9049,3.8648,3.819,3.7731,3.7769,3.7769,3.7712,3.6967,3.6852,3.7655,3.6967,3.6536,3.6504,3.6097,3.566,3.5267,3.5668,3.6071,3.6447,3.6491,3.6937,3.7785,3.8619,3.926,3.9652,3.9202,3.926,3.968,3.968,3.9919,4.0301,4.0301,4.0301,4.0301,4.0301,4.0578,4.0864,0.0,0.0,0.0,0.0,0.0,0.0,0.0,0.0,0.0,0.0,0.0,0.0,0.0,0.0,0.0,0.0,0.0,0.0,0.0,0.0,0.0,2.897,3.0057,3.0717,3.0999,3.1058,3.1263,3.1581,3.191,3.2127,3.2233,3.2127,3.2191,3.2367,3.1567,3.092,3.0356,2.9679,2.9387,2.9448,3.0125,3.0464,3.0735,3.2326,3.2634,3.2401,3.3796,3.4746,3.5431,3.5752,0.0,0.0,0.0,0.0,3.7829,3.8811,3.9601,4.0525,4.2285,0.0,4.5565,4.8213,4.8869,0.0,4.786,4.5896,4.402,4.3186,4.3297,4.3137,4.1811,4.2076,4.2051,4.0712,4.0329,3.9934,3.9224,3.8246,3.7581,3.7517,3.7509,3.7443,3.7273,3.6787,3.671,3.7234,3.5974,3.5821,3.7196,3.6018,3.5597,3.6252,3.5627,3.5248,3.5189,3.5196,3.5512,3.6183,3.552,3.6039,3.7583,3.839,3.8858,3.9001,3.8706,3.8648,3.8782,3.8935,3.9431,4.0091,4.0244,4.0301,4.0301,4.0301,4.0301,4.0301,0.0,0.0,0.0,0.0,0.0,0.0,0.0,0.0,0.0,0.0,2.1711,2.2197,0.0,0.0,0.0,0.0,0.0,0.0,0.0,0.0,0.0,2.8555,2.9885,3.0717,3.0999,3.1277,3.161,3.1925,3.2219,3.2634,3.3203,3.2619,3.237,3.2336,3.1105,3.0479,3.0356,2.9679,2.9387,2.9448,3.0125,3.0074,2.9728,3.0992,3.1318,3.1381,3.3462,3.464,3.5362,3.6278,3.6801,0.0,0.0,0.0,3.7845,3.816,3.9252,4.0449,4.0846,0.0,4.5548,0.0,4.796,4.7753,0.0,0.0,4.4806,0.0,4.1929,4.0852,4.0712,4.075,4.075,4.0535,3.9858,3.9323,3.9208,3.7851,3.6822,3.6746,3.6757,3.6419,3.5619,3.6118,3.6233,3.5592,3.5324,3.5305,3.5515,3.5329,3.5253,3.5373,3.5219,3.5153,3.5193,3.5145,3.5204,3.5353,3.5247,3.5685,3.6629,3.7484,3.8312,3.9006,3.75,3.7234,3.7922,3.8686,3.9069,3.926,4.0014,4.0301,4.0301,4.0301,4.0301,4.0301,0.0,0.0,0.0,0.0,0.0,0.0,0.0,0.0,0.0,0.0,0.0,2.2089,0.0,0.0,0.0,0.0,0.0,0.0,0.0,0.0,0.0,2.8929,2.9842,3.0631,3.1277,3.1249,3.1546,3.2219,3.1643,3.1921,3.2956,3.2276,3.2326,3.2906,3.1567,3.0966,3.092,3.0233,2.9956,3.0017,3.0689,3.0644,3.0353,3.1813,3.2367,3.2524,3.4172,3.5208,3.5911,3.6498,3.6788,3.697,3.722,0.0,0.0,0.0,3.8776,3.9974,4.1832,4.3694,4.5521,0.0,4.7425,4.701,4.6771,0.0,4.4583,4.4052,4.2499,4.1112,4.0749,4.0612,4.0424,4.0003,3.9171,3.8404,3.791,3.6838,3.6041,3.5933,3.5902,3.5703,3.53,3.5578,3.5602,3.5229,3.4789,3.4713,3.519,3.4773,3.4735,3.519,3.5168,3.5179,3.5206,3.5179,3.5179,3.5196,3.5196,3.5651,3.6517,3.6356,3.6784,3.7632,3.732,3.712,3.7101,3.7922,3.8553,3.9088,3.9957,4.0301,4.0301,4.0301,4.0301,4.0301,0.0,0.0,0.0,0.0,0.0,0.0,0.0,0.0,0.0,0.0,0.0,0.0,0.0,0.0,0.0,0.0,0.0,0.0,0.0,0.0,0.0,2.8886,2.9533,3.0211,3.0971,3.08,3.1128,3.1944,3.1047,3.13,3.2645,3.1924,3.2272,3.3409,3.2025,3.1316,3.112,3.0797,3.0648,3.072,3.1477,3.1497,3.1232,3.2933,3.3557,3.366,3.491,0.0,0.0,0.0,3.6684,3.6829,3.7163,3.7299,0.0,0.0,0.0,0.0,0.0,0.0,4.4241,4.6067,4.6224,4.6,0.0,0.0,4.4551,0.0,4.3501,4.2277,4.1293,4.0861,4.0404,3.963,3.8736,3.781,3.6948,3.6124,3.5578,3.5451,3.5376,3.5311,3.5289,3.5239,3.5209,3.5209,3.4636,3.456,3.5171,3.4636,3.4579,3.519,3.5209,3.5193,3.5198,3.5196,3.5176,3.516,3.5176,3.5572,3.6209,3.5744,3.5755,3.6194,3.6806,3.6835,3.654,3.7351,3.8219,3.9088,3.9957,4.0301,4.0301,4.0301,4.0301,4.0301,0.0,0.0,0.0,0.0,0.0,0.0,0.0,0.0,0.0,0.0,0.0,0.0,2.2101,2.168,2.1257,2.0945,2.1222,0.0,0.0,0.0,0.0,2.777,2.8668,0.0,2.9597,2.9837,3.0208,3.0686,3.0624,3.1353,3.2765,3.1962,3.2354,3.3609,3.2079,3.1043,3.0479,3.1089,3.1362,3.1424,3.2419,3.2387,3.1941,3.367,3.4109,3.3954,3.5295,0.0,0.0,0.0,0.0,0.0,0.0,3.7167,3.732,0.0,0.0,0.0,0.0,4.0173,0.0,4.2592,4.3655,0.0,0.0,0.0,4.5304,4.4558,4.4448,4.3942,4.2252,4.1306,4.05,3.9636,3.8779,3.7883,3.7013,3.6201,3.5662,3.5598,3.5477,3.5364,3.5315,3.5239,3.5209,3.5209,3.5171,3.5171,3.5209,3.5171,3.5171,3.5209,3.5209,3.5201,3.5201,3.5206,3.5138,3.5011,3.5147,3.5183,3.5205,3.6046,3.6003,3.5259,3.5321,3.5734,3.6478,3.7345,3.8211,3.9088,3.9957,4.0301,4.0301,4.0301,4.0301,4.0301,0.0,0.0,0.0,0.0,0.0,0.0,0.0,0.0,0.0,0.0,0.0,0.0,0.0,2.1898,2.1528,2.1023,2.1675,0.0,0.0,0.0,0.0,2.8275,2.9131,2.9939,3.0761,3.0403,3.056,3.1228,3.0027,3.0189,3.1628,3.0904,3.0842,3.1357,3.1836,3.1905,3.1705,3.1936,0.0,0.0,0.0,0.0,0.0,0.0,0.0,0.0,0.0,0.0,0.0,0.0,0.0,0.0,0.0,0.0,0.0,0.0,0.0,0.0,0.0,0.0,0.0,4.1686,4.2661,4.3388,4.3857,4.4814,4.5541,4.5348,4.4928,4.4246,4.3053,4.1712,4.0332,3.8895,3.7928,3.7077,3.6245,3.5878,3.5698,3.5676,3.6047,3.6093,3.554,3.637,3.6695,3.6139,3.6542,3.6585,3.6061,3.6023,3.5774,3.5229,3.5209,3.5209,3.5209,3.5193,3.5187,3.5134,3.5181,3.5189,3.5179,3.5503,3.5512,3.5225,3.5762,3.6126,3.6469,3.7345,3.8193,3.9023,3.9929,4.0301,4.0301,4.0301,4.0301,4.0301,0.0,0.0,0.0,0.0,0.0,0.0,0.0,0.0,0.0,2.2161,0.0,0.0,0.0,0.0,2.2602,2.202,2.2971,2.4095,2.526,2.6321,2.7451,2.8637,2.9359,3.0048,3.0806,3.0365,3.0443,3.1093,2.968,2.9667,3.099,3.0473,3.033,3.0567,3.1524,3.1893,0.0,0.0,0.0,3.3085,0.0,0.0,3.4327,0.0,0.0,0.0,0.0,0.0,0.0,0.0,0.0,0.0,0.0,0.0,0.0,0.0,0.0,0.0,3.9914,0.0,0.0,0.0,4.136,4.1893,4.3173,4.4124,4.491,4.5565,4.5309,4.4706,4.3808,4.2305,4.0539,3.8522,3.7967,3.729,3.5897,3.5936,3.5994,3.5723,3.6348,3.6595,3.6061,3.7147,3.7651,3.7044,3.7466,3.7366,3.6538,3.65,3.6099,3.5229,3.5209,3.5209,3.5209,3.5209,3.5201,3.5204,3.5206,3.5187,3.5204,3.5198,3.5208,3.5236,3.6021,3.6555,3.6897,3.7745,3.8594,3.9423,4.0062,4.0301,4.0301,4.0301,4.0492,4.074,0.0,0.0,0.0,0.0,0.0,0.0,0.0,0.0,2.3019,2.3599,0.0,0.0,0.0,0.0,0.0,2.4066,2.5245,2.6045,2.6086,2.7582,2.8568,2.8738,0.0,0.0,2.9579,2.9654,2.9824,3.0148,2.9609,2.9906,3.0965,3.0764,3.0949,3.143,3.1186,3.092,3.0691,0.0,3.2394,3.2523,0.0,3.3937,3.4509,0.0,0.0,0.0,3.7092,3.7353,0.0,3.7138,0.0,0.0,0.0,0.0,0.0,0.0,0.0,0.0,0.0,0.0,0.0,0.0,0.0,0.0,4.3316,4.3517,4.344,4.512,4.5571,4.5387,4.4479,4.3076,4.1248,3.8715,3.8934,3.8572,3.611,3.6439,3.6651,3.5858,3.6445,3.689,3.6832,3.7538,3.7936,3.7846,3.7857,3.7487,3.6615,3.6538,3.6099,3.5229,3.5209,3.5209,3.5209,3.5209,3.5204,3.52,3.5204,3.5204,3.52,3.52,3.5206,3.5239,3.6004,3.6861,3.7764,3.8565,3.9442,4.0301,4.0301,4.0301,4.0301,4.032,4.0883,4.1598,0.0,0.0,0.0,0.0,0.0,2.6278,2.6367,2.5821,2.5441,0.0,0.0,0.0,2.506,2.4956,2.5398,2.662,2.668,2.7031,2.7893,2.8393,2.9025,2.9819,3.0225,3.0794,3.1567,3.143,3.1322,3.1262,3.0721,3.0447,3.0419,3.0282,3.0269,3.0435,3.0683,3.0759,3.0704,3.1171,0.0,3.3478,3.3275,3.4182,0.0,0.0,0.0,0.0,0.0,3.6753,3.7119,0.0,3.7686,3.8184,0.0,0.0,0.0,0.0,0.0,0.0,3.7405,0.0,0.0,0.0,0.0,0.0,4.1006,4.1797,4.2567,4.4333,4.4705,4.4619,4.4346,4.3994,4.3118,4.1188,3.9032,3.7599,3.7522,3.7666,3.7699,3.7535,3.8762,3.9122,3.7867,3.902,3.9542,0.0,3.9282,3.9237,3.8343,3.7149,3.6099,3.5229,3.5209,3.5209,3.5209,3.5209,3.5201,3.5204,3.5206,3.5206,3.5204,3.5198,3.5206,3.5278,3.6693,3.7457,3.7752,3.8575,3.9424,4.0244,4.0272,4.0301,4.0358,4.096,4.1313,4.1523,0.0,0.0,0.0,0.0,2.8554,2.8131,2.8343,2.7668,2.7247,0.0,0.0,0.0,2.6875,2.6782,2.7129,2.8011,2.8054,2.8297,2.8958,2.9291,2.971,3.0156,3.0861,3.1475,3.1967,3.2201,3.218,3.1869,3.1401,3.1134,3.0978,3.0575,3.0481,3.0674,3.057,0.0,0.0,0.0,0.0,0.0,3.325,0.0,0.0,3.4771,3.4887,0.0,0.0,0.0,3.741,3.7501,3.817,0.0,0.0,0.0,0.0,0.0,0.0,0.0,0.0,0.0,0.0,0.0,0.0,0.0,4.0383,4.076,4.1175,4.3307,4.3717,4.3717,4.3691,4.347,4.3111,4.2452,4.0128,3.8582,3.9129,3.9174,3.9154,3.916,4.0014,4.0239,3.9241,4.0037,4.0331,3.9693,4.0089,3.9789,3.8542,3.6871,3.5717,3.5229,3.5209,3.5209,3.5209,3.5209,3.5209,3.5209,3.5204,3.5204,3.5201,3.5198,3.5397,3.5812,3.7122,3.7905,3.8304,3.9137,3.9786,4.0244,4.0272,4.0511,4.0864,4.1323,4.1724,4.2049,0.0,0.0,3.0434,3.1439,3.0844,3.0243,3.0238,2.9317,2.8774,0.0,2.8824,2.8668,2.9245,2.9326,2.9245,2.8958,2.9392,2.9725,2.9752,3.0276,3.0498,3.0277,3.1309,3.183,3.1639,3.2526,3.2773,3.232,3.204,3.1971,3.2113,3.1372,3.1211,3.1501,3.0733,0.0,0.0,0.0,0.0,3.257,3.3156,3.3775,0.0,0.0,3.4745,3.5656,3.589,3.6727,3.7711,3.7612,3.8007,0.0,0.0,0.0,0.0,0.0,3.6689,0.0,0.0,0.0,0.0,0.0,3.8118,0.0,4.0462,3.9975,3.9527,4.1906,4.2441,4.2496,4.2536,4.2145,4.2035,4.2763,4.1703,4.082,4.086,4.0868,4.0838,4.0781,4.0849,4.0865,4.0723,4.0719,4.0631,4.0408,4.0304,3.9506,3.7797,3.6203,3.5305,3.5209,3.5209,3.5209,3.5209,3.5209,3.5209,3.5209,3.5209,3.5209,3.5201,3.5302,3.576,3.6557,3.7439,3.8268,3.9069,3.9938,4.0301,4.0301,4.0396,4.0864,4.1514,4.1609,4.2193,4.2929,0.0,3.0793,3.1119,3.2115,3.2048,3.1789,3.1616,3.1309,3.0959,3.0511,3.0289,3.0558,3.1674,3.0926,3.0696,3.1654,3.0916,3.0829,3.1826,3.109,3.1012,3.1961,3.2034,3.2388,3.3087,3.3799,3.3988,3.3624,3.3718,3.3253,3.2253,3.1999,3.1614,3.1096,3.0881,0.0,0.0,0.0,0.0,3.2012,3.2618,0.0,3.4783,3.4404,3.4107,3.3946,3.4291,3.484,3.5505,3.649,3.6481,3.6182,0.0,0.0,0.0,3.6397,0.0,0.0,0.0,0.0,0.0,0.0,0.0,0.0,3.8288,3.8191,3.8322,3.9562,3.9828,4.0074,4.0811,4.1412,4.1894,4.2147,4.2459,4.2638,4.2544,4.2541,4.2524,4.2503,4.3073,4.2932,4.1543,4.1453,4.1159,4.0376,3.9659,3.8809,3.775,3.6776,3.5927,3.5229,3.5209,3.5209,3.5209,3.5209,3.5209,3.5209,3.5209,3.5209,3.522,3.5919,3.6339,3.6576,3.8085,3.8849,3.9069,3.9938,4.0301,4.0358,4.1017,4.1361,4.159,4.2297,4.3061,4.3578,3.1876,3.2132,3.261,3.38,3.3399,3.2855,3.2685,3.2313,3.1897,3.1469,3.1829,3.223,3.2483,3.2222,3.2181,3.2452,3.1917,3.1816,3.2452,3.1861,3.1753,3.2279,3.2576,3.2909,3.3283,3.4292,3.4528,3.3999,3.4264,3.4074,3.3393,3.2587,3.2188,3.2109,3.1308,3.1093,0.0,0.0,3.2326,3.2994,3.2895,0.0,3.3489,3.2951,3.279,3.2893,3.3282,3.3862,3.4547,3.5166,3.5566,0.0,0.0,3.59,3.6023,0.0,3.5645,3.5548,0.0,0.0,0.0,3.7835,0.0,0.0,0.0,3.7585,3.7401,3.877,3.872,3.8736,3.9638,3.9818,4.0165,4.1106,4.1894,4.253,4.2934,4.3354,4.3722,4.4106,4.3781,4.3177,4.2324,4.1526,4.0865,4.0392,3.9116,3.8172,3.7712,3.6521,3.5643,3.5201,3.5209,3.5209,3.5209,3.5209,3.5209,3.5209,3.5209,3.5209,3.5229,3.6099,3.671,3.7177,3.8457,3.926,3.9671,4.011,4.0301,4.0339,4.075,4.1151,4.1609,4.2488,4.3061,4.3291,3.2995,3.33,3.3918,3.52,3.4496,3.3673,3.3476,3.2954,3.2506,3.2353,3.3091,3.3459,3.2919,3.3238,3.3452,3.3273,3.2908,3.2881,3.3343,3.3034,3.2806,3.2741,3.3469,3.3771,3.3527,3.4728,3.5001,3.4284,3.4571,3.4573,3.4269,3.3224,3.2857,3.306,3.1793,3.1614,0.0,0.0,0.0,3.3745,0.0,3.2734,3.2232,3.1749,3.1739,3.209,3.2413,3.3024,3.3659,3.3694,3.451,3.5374,3.4518,3.5102,0.0,0.0,0.0,0.0,0.0,0.0,0.0,0.0,0.0,3.7167,0.0,0.0,0.0,3.7982,3.7729,3.7523,3.8248,3.7996,3.8124,3.9561,0.0,0.0,0.0,4.3373,0.0,4.4764,4.3759,4.2995,4.2899,4.1365,4.0436,4.0572,3.88,3.7781,3.7913,3.6351,3.5512,3.5687,3.5381,3.5286,3.545,3.545,3.545,3.545,3.5611,3.5687,3.5706,3.6576,3.7349,3.7999,3.8877,3.9661,4.0301,4.0301,4.0301,4.032,4.0473,4.1036,4.182,4.2354,4.2756,4.2947,3.3376,3.3376,3.3856,3.5023,3.4949,3.4555,3.4011,3.3689,3.3548,3.3516,3.3532,3.3692,3.4138,0.0,0.0,0.0,0.0,0.0,3.633,0.0,3.4608,3.5015,3.5447,3.5495,3.5073,3.5834,3.5951,3.5328,3.5431,3.4805,3.3541,3.4015,3.3592,3.2408,3.2239,0.0,0.0,0.0,3.2711,0.0,3.289,3.3048,0.0,3.283,3.2064,3.111,3.1506,3.1677,3.1768,0.0,3.2458,3.2967,0.0,3.4057,3.3787,3.6542,0.0,0.0,0.0,0.0,0.0,0.0,3.6468,0.0,0.0,0.0,3.6084,3.5632,0.0,3.5556,3.5779,0.0,0.0,3.7186,3.9191,4.0761,4.0942,4.2217,4.3155,4.3177,4.3589,4.3597,4.2872,4.1292,4.0586,4.1236,3.9097,3.8074,3.8727,3.7219,3.6672,3.7387,3.5974,3.5564,3.6347,3.6347,3.6347,3.6366,3.7082,3.7426,3.7445,3.8323,3.8763,3.8897,3.9766,4.0205,4.0301,4.0301,4.0301,4.0358,4.1094,4.1896,4.2565,4.1896,4.2584,4.3548,3.3909,3.4167,0.0,3.5488,3.5113,3.453,3.4152,3.4221,3.4142,3.3747,3.4228,3.4709,0.0,0.0,0.0,0.0,0.0,3.5778,0.0,0.0,3.5867,3.6122,3.64,3.6495,3.6463,3.6404,3.631,3.6154,3.5774,3.5278,3.467,3.4556,3.4172,3.3563,3.3373,0.0,3.3308,0.0,3.3332,0.0,0.0,0.0,0.0,3.196,3.1366,3.0834,3.1235,3.1334,3.1319,0.0,3.2281,0.0,0.0,0.0,0.0,0.0,0.0,0.0,0.0,0.0,0.0,0.0,0.0,0.0,3.4952,0.0,3.531,0.0,0.0,0.0,0.0,0.0,0.0,0.0,3.797,3.9008,3.9131,0.0,4.1805,4.2836,4.2784,4.2326,4.1436,4.158,4.1485,4.0807,3.9795,3.9127,3.8965,3.7362,3.6818,3.7674,3.6069,3.5621,3.6481,3.65,3.65,3.6519,3.733,3.7693,3.7731,3.861,3.9011,3.9049,3.9919,4.0301,4.0301,4.0301,4.0301,4.032,4.0673,4.1036,4.1361,4.1457,4.1953,4.2393,3.5021,0.0,0.0,0.0,3.5437,3.4885,3.4711,3.4774,3.4725,3.4239,0.0,0.0,3.5605,3.5844,0.0,0.0,3.7684,3.7595,0.0,0.0,3.7347,0.0,0.0,0.0,0.0,3.7082,3.6716,3.6639,3.5949,3.56,3.5583,3.5064,3.4793,3.4798,0.0,3.4298,3.4075,0.0,3.4199,3.39,3.372,3.2954,3.1857,3.1197,3.0915,3.0918,3.1411,3.1374,3.124,3.2074,3.2386,0.0,3.2945,0.0,0.0,0.0,0.0,0.0,3.6345,0.0,0.0,0.0,0.0,0.0,0.0,0.0,0.0,0.0,0.0,0.0,0.0,0.0,0.0,0.0,0.0,3.7477,0.0,3.8764,0.0,4.1791,4.1818,0.0,0.0,4.1762,4.1963,4.0731,4.0387,3.9957,3.9356,3.7916,3.7505,3.84,3.6776,3.6298,3.7169,3.7188,3.7188,3.7188,3.7789,3.8171,3.8438,3.882,3.9126,3.9374,3.9766,3.9957,3.9975,3.9965,3.9831,3.965,4.0137,4.0176,4.0034,4.0864,4.1457,4.182,3.6993,3.62,0.0,0.0,0.0,3.6071,3.5882,3.5578,0.0,0.0,0.0,0.0,0.0,0.0,0.0,0.0,0.0,3.9886,3.9919,0.0,3.9324,0.0,0.0,3.9154,0.0,0.0,3.7381,3.6795,3.5994,3.56,3.56,3.5566,3.5566,3.5566,3.5554,3.5737,3.5985,3.5616,3.5437,3.5322,3.4038,3.2781,3.1656,0.0,3.1162,3.1372,3.202,0.0,0.0,3.2179,3.237,0.0,0.0,0.0,0.0,0.0,0.0,0.0,0.0,0.0,0.0,3.3989,0.0,0.0,0.0,0.0,3.4166,0.0,0.0,0.0,0.0,0.0,0.0,0.0,0.0,0.0,0.0,3.7378,3.8346,3.9288,4.0768,0.0,0.0,4.1644,4.1589,4.1466,4.0739,4.0262,4.0167,3.9366,3.9308,4.0186,3.8534,3.8037,3.8916,3.8916,3.8916,3.8916,3.8954,3.9412,4.0186,3.9374,3.947,4.0205,3.9412,3.9075,3.9144,3.9142,3.8643,3.8041,3.9744,3.9846,3.9145,4.0014,4.138,4.2641,0.0,0.0,0.0,0.0,0.0,0.0,0.0,3.7187,0.0,0.0,0.0,0.0,0.0,3.7701,3.8639,0.0,0.0,4.0474,4.1444,4.0798,0.0,0.0,0.0,3.9577,0.0,0.0,0.0,0.0,3.7009,3.6383,3.6366,3.5859,3.5329,3.4895,3.5715,3.5501,0.0,0.0,0.0,0.0,0.0,3.2851,3.2231,0.0,3.1545,3.1638,3.2109,3.2127,0.0,3.2573,3.2286,3.1748,3.2193,3.1943,3.1608,3.2301,3.2491,3.2614,0.0,0.0,3.1635,3.2955,0.0,0.0,0.0,0.0,0.0,0.0,0.0,0.0,0.0,0.0,0.0,0.0,0.0,0.0,0.0,3.6386,3.7102,3.7464,3.9476,0.0,0.0,4.0992,4.113,3.9993,4.0147,4.0301,4.0263,3.9461,3.9412,4.0263,3.861,3.8113,3.8992,3.9011,3.8706,3.8151,3.9317,3.9412,3.8591,3.8877,3.9164,3.9431,3.9169,3.9412,3.9964,4.0002,3.9821,3.9572,4.0175,4.0172,3.99,4.0186,4.0664,4.1266,3.8292,0.0,0.0,0.0,0.0,0.0,0.0,0.0,0.0,0.0,3.807,0.0,3.8348,0.0,3.928,0.0,4.0704,4.0838,4.1465,4.0834,0.0,4.0227,3.9876,0.0,0.0,0.0,0.0,0.0,0.0,3.6939,3.6996,3.6207,3.5752,3.5651,3.6427,3.607,3.4967,3.6435,3.6407,0.0,0.0,3.3547,0.0,0.0,3.1985,3.186,0.0,3.242,3.2317,3.2433,3.2054,3.1479,3.1319,3.1006,3.0716,3.0838,3.1046,3.1293,3.1579,3.0903,3.0422,3.1706,3.126,0.0,3.2085,0.0,3.2381,0.0,0.0,0.0,0.0,0.0,0.0,0.0,0.0,0.0,0.0,3.5643,3.6168,3.6514,3.8572,0.0,0.0,4.0596,4.0994,4.046,4.0328,4.0424,4.0711,3.9928,3.9709,4.0282,3.9221,3.8897,3.947,3.9145,3.8877,3.8629,3.9126,3.9107,3.8629,3.8897,3.9011,3.8992,3.907,3.9262,3.9572,3.9946,3.9888,3.9631,4.0246,4.0246,3.9942,4.0195,4.0692,4.1427,0.0,0.0,0.0,0.0,3.886,0.0,0.0,0.0,3.9116,0.0,3.8602,3.8857,3.8665,3.9401,4.0026,4.038,4.0972,4.1021,4.0226,4.0143,0.0,0.0,3.9659,3.9755,3.9901,0.0,0.0,0.0,0.0,3.7288,3.7456,3.6663,3.6727,3.749,3.7542,0.0,3.6989,3.7346,3.7529,3.7434,3.5845,3.4757,3.4025,3.3219,3.2571,3.2127,3.2687,3.262,3.221,3.1829,3.1653,3.1439,3.0689,2.9925,2.9351,2.9351,2.8802,2.8374,2.9123,2.9351,2.953,3.0261,3.0443,0.0,0.0,0.0,3.0818,0.0,0.0,0.0,0.0,0.0,0.0,0.0,0.0,0.0,0.0,0.0,3.5522,3.6402,3.7959,0.0,0.0,4.031,4.094,4.2498,4.1092,4.0557,0.0,4.0788,4.0368,4.0358,4.0358,4.0358,4.0358,3.9508,3.947,4.0225,3.861,3.8648,4.0129,3.9355,3.8992,3.9001,3.9078,3.8727,3.8195,3.9101,3.8974,3.8376,3.9977,4.0082,3.9415,4.0067,4.1417,4.3022,3.9901,3.9995,3.9995,0.0,3.9687,3.9625,0.0,0.0,0.0,0.0,3.9398,3.9471,3.9433,3.952,3.9862,4.0497,4.0713,0.0,0.0,0.0,0.0,4.0461,3.9979,3.9703,3.9755,3.9876,0.0,3.971,0.0,3.8333,3.8343,3.7067,3.6322,3.6138,0.0,0.0,3.6374,3.7173,3.7362,3.7063,3.5887,3.4957,3.4181,0.0,3.3008,3.2705,3.2834,3.2444,3.1831,3.1729,3.0939,2.9958,2.9762,2.9141,2.8517,2.8517,2.8356,2.8249,2.8445,2.8517,2.8695,2.9494,2.969,2.9847,3.051,3.0576,0.0,0.0,0.0,0.0,0.0,0.0,0.0,0.0,0.0,0.0,0.0,0.0,0.0,3.6385,0.0,0.0,3.7574,3.7594,3.8276,3.993,3.9061,3.9352,4.139,4.1351,4.1246,4.1189,4.1189,4.1189,4.1189,4.0387,3.9747,3.9336,3.9546,3.9183,3.8381,3.882,3.9028,3.9078,3.9149,3.9465,3.9949,4.0295,4.0256,3.9997,4.044,4.0815,4.1085,4.0614,4.1511,4.3,4.0696,0.0,0.0,4.0756,0.0,0.0,3.9977,4.0118,0.0,3.9675,3.9936,0.0,3.9554,3.9458,3.9588,4.0003,4.002,0.0,4.07,0.0,0.0,4.0234,3.9833,3.9625,3.9703,3.9986,0.0,3.9966,0.0,3.8608,3.8432,3.7373,3.6707,3.64,0.0,3.6977,3.6827,3.7077,3.7106,3.6854,3.5582,3.4776,0.0,3.3653,3.3289,3.3119,3.3119,3.2524,3.1653,3.1296,3.0386,2.9351,2.898,2.8552,2.8196,2.8196,2.8196,2.8196,2.8196,2.8196,2.832,2.8748,2.8873,2.8994,2.9497,2.9472,2.9286,0.0,2.9293,2.9458,2.925,0.0,0.0,0.0,0.0,0.0,0.0,0.0,0.0,0.0,3.647,3.6646,3.7009,3.6779,3.7597,4.0015,3.8716,3.8884,0.0,4.1543,4.1533,4.1466,4.1848,4.1896,4.1495,4.0711,4.0053,3.9565,3.9671,3.9431,3.8858,3.9362,3.9414,3.9139,3.9611,3.9916,4.0139,4.0978,4.1274,4.126,4.1621,4.203,4.2345,4.1863,4.2499,4.3615,4.1475,0.0,0.0,0.0,0.0,0.0,0.0,4.0542,0.0,3.9594,0.0,4.0231,3.9276,3.9166,3.9166,3.9166,0.0,3.9252,3.9458,3.9352,3.9352,3.9475,3.9475,3.9537,3.9677,3.991,3.9915,0.0,0.0,3.8667,3.8295,3.7687,3.743,3.7503,0.0,0.0,0.0,3.7049,3.6823,3.6685,3.5165,3.4564,3.4489,3.3742,3.3437,3.3422,3.3422,3.2649,3.15,3.0802,2.9983,2.9165,2.8455,2.8209,2.8196,2.8196,2.8196,2.8196,2.8196,2.8196,2.8196,2.8196,2.8196,2.8196,2.8196,2.8112,2.8071,2.8186,2.8112,2.8071,2.8196,0.0,0.0,0.0,0.0,0.0,0.0,0.0,0.0,0.0,0.0,0.0,3.7402,3.7037,3.8068,4.1203,3.9184,0.0,0.0,0.0,4.1428,4.1579,4.2363,4.2488,4.182,4.0922,4.0454,4.0454,3.9584,3.9565,4.031,4.0381,3.9991,3.9328,4.0222,4.0274,3.9863,4.139,4.2067,4.226,4.3131,4.3432,4.3378,4.3487,4.3964,4.4537,0.0,0.0,0.0,0.0,0.0,4.2046,4.1757,4.0595,3.9687,3.9518,3.9521,3.9269,3.8477,3.8394,3.8394,3.8394,3.8394,0.0,0.0,0.0,0.0,3.9325,3.9342,3.9405,3.9537,4.0262,4.0559,0.0,3.9937,3.9589,3.939,3.8143,3.7667,0.0,0.0,0.0,3.7271,3.6997,0.0,3.6311,3.5192,3.4805,3.4828,3.4037,3.3657,3.3563,3.3563,3.2504,3.1096,3.097,2.9863,2.8551,2.8407,2.8291,2.8196,2.8196,2.8196,2.8196,2.8196,2.8196,2.8196,2.8196,2.8196,2.8196,2.8196,2.8168,2.8168,2.8213,2.8168,2.8209,2.8345,0.0,0.0,0.0,0.0,0.0,0.0,0.0,0.0,0.0,0.0,3.6547,0.0,3.7283,3.849,4.0464,0.0,0.0,0.0,0.0,4.1207,4.2517,4.2708,4.3061,0.0,4.2049,4.1285,4.1285,4.0463,4.0148,4.031,4.0381,4.0351,4.0269,4.0494,4.0957,4.1571,4.1867,4.2415,4.3169,4.4033,4.4322,4.4344,4.5028,4.5356,4.5373,0.0,0.0,0.0,0.0,0.0,0.0,0.0,4.1953,4.0947,4.0546,4.0112,3.9732,3.9529,3.9176,3.909,3.9412,3.9312,3.9505,4.0177,4.0218,4.0218,4.0218,4.0218,4.0309,4.0424,4.0388,4.0683,4.1271,4.0238,3.9757,3.9781,3.8849,3.8258,3.7933,0.0,3.7622,0.0,0.0,3.6039,3.6193,3.4824,3.4325,3.4325,3.3954,3.3766,3.3698,3.3698,3.2908,3.1732,3.1184,2.9881,2.8497,2.8497,2.8458,2.838,2.8331,2.8304,2.8291,2.8209,2.8196,2.8196,2.8196,2.8196,2.8196,2.8196,2.8168,2.8154,2.8182,2.8168,2.8196,2.8384,2.8639,2.9223,0.0,0.0,0.0,0.0,0.0,0.0,0.0,0.0,0.0,0.0,0.0,0.0,0.0,0.0,0.0,0.0,0.0,4.1514,0.0,0.0,0.0,4.4006,0.0,4.1953,4.1495,4.0692,4.0319,4.0354,4.0411,4.0481,4.0583,4.1098,4.1577,4.2067,4.2976,4.3846,4.4639,4.5063,4.5189,4.5163,4.5549,4.5682,4.559,0.0,4.578,0.0,0.0,4.5301,4.496,4.4125,4.3239,4.2414,4.1736,4.0995,4.0542,4.0608,4.0151,4.0014,4.0491,4.035,4.0496,4.1138,4.1161,4.1138,4.1115,4.0936,4.0889,4.1014,4.0241,4.0346,4.1382,4.0281,3.9745,3.976,3.9554,3.894,0.0,0.0,0.0,0.0,3.6183,3.5677,3.5917,3.4596,3.3954,3.3807,3.3807,3.3807,3.3807,3.3807,3.3293,3.2465,3.1632,3.0254,2.8868,2.8692,2.8625,2.8574,2.8432,2.8411,2.8384,2.8237,2.8196,2.8196,2.8196,2.8196,2.8196,2.8196,2.8154,2.814,2.8182,2.8154,2.8168,2.8331,2.8536,2.9144,0.0,0.0,0.0,0.0,0.0,0.0,0.0,0.0,0.0,3.6907,3.8163,3.8312,3.6703,0.0,0.0,3.9211,0.0,4.1246,4.2419,4.3289,4.3834,4.4006,0.0,4.245,4.1762,4.0788,4.0345,4.0394,4.0473,4.0653,4.0923,4.1674,4.2202,4.2667,4.4214,4.5232,4.5812,4.5795,4.5758,4.5711,4.569,4.5648,4.5594,0.0,0.0,0.0,0.0,0.0,4.5072,4.414,4.3364,4.2783,4.252,4.1788,4.106,4.0407,4.0276,4.0272,4.0336,4.0315,4.0613,4.1314,4.1367,4.1323,4.1211,4.0436,4.0038,4.0113,3.9631,3.9444,0.0,4.0042,3.9913,3.9283,4.004,3.9655,0.0,0.0,3.8348,3.6369,3.6989,3.6431,3.5114,3.4949,3.4454,3.3807,3.3807,3.3807,3.3807,3.3807,3.3293,3.2583,3.2483,3.1307,2.9745,2.9022,2.8687,2.8574,2.8432,2.8411,2.8384,2.8237,2.8196,2.8196,2.8196,2.8196,2.8196,2.8196,2.8213,2.8182,2.8196,2.8213,2.8213,2.8227,2.8583,2.9464,0.0,0.0,0.0,0.0,0.0,3.653,3.4274,0.0,0.0,3.4636,3.7078,3.824,3.6623,3.7368,0.0,0.0,3.8882,3.9209,4.1533,4.2469,4.3271,4.3987,4.3195,4.2756,4.266,4.111,4.0396,4.0394,4.0534,4.1031,4.1791,4.1944,4.2899,4.442,4.5316,4.5728,4.5795,4.5807,4.5762,4.5709,4.5701,4.5648,4.5594,0.0,0.0,0.0,0.0,0.0,0.0,4.5185,4.4473,4.3943,4.3874,4.2708,4.1872,4.1857,4.1478,4.1336,4.1721,4.1584,4.1787,4.2446,4.2483,4.2228,4.1703,4.1341,4.0887,4.0305,3.9709,3.9641,0.0,0.0,0.0,4.018,4.0506,3.9899,3.8462,3.8366,3.8049,3.7616,3.7037,3.667,3.6413,3.5408,3.4821,3.4472,3.399,3.3807,3.3807,3.3807,3.3587,3.3256,3.2748,3.1823,3.0705,2.9887,2.9594,2.9442,2.882,2.8637,2.8612,2.8489,2.8432,2.8432,2.8432,2.8432,2.8406,2.8345,2.8318,2.8304,2.8227,2.8196,2.8223,2.8304,2.8645,2.9204,3.0158,0.0,0.0,0.0,0.0,0.0,3.3306,0.0,0.0,0.0,3.6523,3.8355,3.8754,0.0,0.0,0.0,3.9832,4.0702,4.2162,0.0,4.3503,4.4824,4.4039,4.3637,4.3618,4.1931,4.1428,4.1948,4.1566,4.216,4.3515,4.3543,4.4233,4.5355,4.5662,4.5803,4.58,4.5754,4.5714,4.5701,4.5648,4.5631,4.5594,4.5949,4.5651,4.5337,4.5331,4.5332,4.5297,4.5205,4.4709,4.436,4.436,4.3321,4.2713,4.3032,4.2599,4.2464,4.2902,4.2753,4.2829,4.325,4.3286,4.2921,4.2083,4.1792,0.0,4.0237,3.9474,3.9347,3.9857,4.018,0.0,4.013,4.0402,3.9831,3.8541,3.8211,3.8169,3.8285,3.7386,3.7055,3.7052,3.5862,3.5096,3.4582,3.4027,3.3807,3.3807,3.3807,3.3807,3.3715,3.3146,3.2577,3.1916,3.087,3.0393,3.0057,2.9357,2.898,2.8761,2.8637,2.86,2.86,2.86,2.86,2.8574,2.8471,2.8458,2.8419,2.8345,2.851,2.8721,2.89,2.935,2.9984,3.0815,0.0,0.0,0.0,3.3597,0.0,0.0,3.368,3.408,3.3971,3.6455,3.8487,3.9461,0.0,0.0,0.0,4.0826,4.1753,4.2324,0.0,0.0,4.5036,4.4508,4.4238,4.4219,4.2768,4.2415,4.3049,4.2806,4.3392,4.4613,4.4852,4.5271,4.5805,4.5795,4.5792,4.5762,4.5726,4.5693,4.5657,4.5622,4.5594,4.5594,4.5555,4.5679,4.5627,4.4838,4.4709,4.4452,4.3662,4.3533,4.3497,4.3497,4.3497,4.3497,4.3479,4.3479,4.3479,4.3479,4.3497,4.3497,4.3497,4.3497,4.3114,0.0,0.0,4.0409,3.9526,3.8605,3.8189,3.8343,0.0,0.0,3.8546,3.9483,3.9478,3.8744,3.9515,3.8998,3.7566,3.834,3.7771,3.6303,3.6285,3.5293,3.3807,3.3807,3.3807,3.3807,3.3807,3.3807,3.3807,3.3788,3.377,3.3495,3.1892,3.0834,3.0167,3.0032,2.943,2.8761,2.8637,2.86,2.86,2.86,2.86,2.86,2.8587,2.8587,2.8587,2.8587,2.9228,2.9857,3.0136,3.099,3.232,3.4318,0.0,0.0,0.0,3.5717,0.0,3.3988,3.6101,3.6644,3.414,3.6979,0.0,0.0,0.0,0.0,0.0,4.1495,4.1495,4.1514,4.3245,0.0,4.4211,4.4273,4.4297,4.4297,4.3539,4.3199,4.3238,4.416,4.4574,4.4632,4.5432,4.5786,4.5807,4.5807,4.5762,4.5701,4.5701,4.5657,4.5594,4.5594,4.5594,4.5594,4.4967,4.4564,4.4176,4.392,4.3883,4.3791,4.3551,4.3515,4.3515,4.3515,4.3515,4.3515,4.3515,4.3515,4.3515,0.0,4.3515,4.3515,0.0,4.3515,4.2875,4.1521,4.1174,4.0304,3.8787,3.8595,3.8467,3.8368,3.9303,3.9658,3.9465,3.9772,3.9182,3.7896,3.8153,3.7988,3.7474,3.7184,3.7074,3.7015,3.5881,3.5096,3.4564,3.4009,3.3807,3.3807,3.3807,3.3807,3.3807,3.3807,3.3807,3.3715,3.3201,3.2485,3.172,3.1132,3.0784,3.043,2.9862,2.9704,2.9564,2.9016,2.898,2.9056,2.8966,2.9439,2.9894,2.9894,3.0545,3.115,3.1336,3.1732,3.2278,3.3014,3.3828,0.0,3.477,0.0,3.4896,3.4066,3.417,3.4208,3.399,3.6481,3.8247,0.0,0.0,0.0,0.0,4.2258,0.0,0.0,4.3579,0.0,4.5138,4.5214,4.5263,4.5244,4.4411,4.4063,4.4179,4.5039,4.5413,4.5432,4.5691,4.5805,4.5807,4.5758,4.5711,4.5701,4.5648,4.5622,4.5594,4.5594,4.5594,4.5594,4.4305,4.3828,4.3515,4.3515,4.3515,4.3515,4.3515,4.3515,4.3515,4.3515,4.3515,4.3515,4.3515,4.3515,4.3515,4.3515,4.3515,4.3515,4.3515,4.3515,4.2782,4.1168,4.1095,4.0276,3.8549,3.8643,3.8643,3.8512,3.9137,3.9441,3.9441,3.9145,3.8465,3.7492,3.718,3.7217,3.7456,3.6648,3.6578,3.6942,3.5555,3.4821,3.4491,3.399,3.3807,3.3807,3.3807,3.3807,3.3807,3.3807,3.3807,3.3807,3.3807,3.3524,3.3018,3.212,3.1641,3.1299,3.0911,3.0787,3.0699,3.0265,3.0256,3.0321,3.0259,3.0673,3.1099,3.1099,3.1744,3.2358,3.2549,3.293,3.327,3.3432,3.4437,3.4923,3.4109,0.0,3.4189,0.0,0.0,3.352,3.4372,3.671,3.8151,0.0,0.0,0.0,0.0,0.0,4.3768,4.3272,4.4267,4.5064,4.5627,4.5688,4.5734,4.5734,4.5186,4.4977,4.5065,4.5568,4.5807,4.5807,4.5812,4.5783,4.5758,4.5719,4.5698,4.5657,4.5622,4.5594,4.5594,4.5594,4.5594,4.5652,4.3662,4.3515,4.3515,4.3515,4.3515,4.3515,4.3515,4.3515,4.3515,4.3515,4.3515,4.3515,4.3515,4.3515,4.3478,4.3423,4.3423,4.3404,4.3332,4.3331,4.2635,4.1077,4.1022,4.0288,3.8726,3.8707,3.8707,3.8707,3.8652,3.8652,3.8689,3.7878,3.7474,3.7382,3.656,3.6615,3.729,3.6523,3.6229,3.6229,3.5426,3.4637,3.3972,3.3972,3.3972,3.3972,3.3917,3.388,3.3862,3.3825,3.3802,3.3834,3.3834,3.4011,3.4024,3.3011,3.2193,3.1654,3.1857,3.1905,3.1941,3.2067,3.2108,3.2127,3.2137,3.2203,3.2241,3.2241,3.288,3.3504,3.3761,3.4462,3.5068,3.5253,3.5343,3.5095,3.43,3.3528,3.3295,3.3988,3.4173,3.4544,3.5304,3.7514,3.8304,0.0,0.0,0.0,0.0,0.0,4.4067,4.4211,4.5118,4.5637,4.5708,4.5764,4.5807,4.5807,4.5807,4.5807,4.5807,4.5807,4.5807,4.58,4.5803,4.5765,4.57,4.5698,4.5657,4.5594,4.5594,4.5594,4.5614,4.5671,4.5691,4.5806,4.3551,4.3515,4.3515,4.3515,4.3515,4.3515,4.3515,4.3515,4.3515,4.3515,4.3515,4.3515,4.3515,4.3515,4.324,4.2635,4.258,4.2323,4.1717,4.168,4.1222,4.023,4.0175,3.9717,3.8726,3.8707,3.8707,3.8707,3.8065,3.8102,3.8689,3.7878,3.718,3.6556,3.5697,3.5408,3.5573,3.5389,3.5697,3.6266,3.6083,3.5881,3.5716,3.5716,3.5716,3.5624,3.4949,3.4729,3.4619,3.4009,3.3934,3.4111,3.4111,3.4244,3.4357,3.3944,3.3799,3.3653,3.3101,3.2943,3.2814,3.2238,3.2223,3.236,3.2526,3.3073,3.3557,3.3557,3.4196,3.4776,3.4838,3.5543,3.6143,3.6186,3.6719,3.6833,3.6023,3.626,3.6366,0.0,3.6443,3.691,3.7092,3.7655,3.84,0.0,0.0,4.1542,4.3032,4.3781,4.4164,4.4211,4.5118,4.5637,4.5708,4.5764,4.5807,4.5807,4.5807,4.5807,4.5807,4.5807,4.5812,4.5803,4.5788,4.577,4.5698,4.5701,4.5657,4.5594,4.5594,4.5594,4.5691,4.6355,4.6586,4.6721,4.3515,4.3515,4.3515,4.3515,4.3515,4.3515,4.3515,4.3515,4.3515,4.3515,4.3515,4.3515,4.3515,4.3167,4.2635,4.1827,4.2084,4.1974,4.115,4.1095,4.0744,3.9953,3.99,3.935,3.8175,3.8138,3.8138,3.8138,3.7713,3.7915,3.867,3.7496,3.6721,3.6248,3.5,3.4656,3.4986,3.4619,3.5165,3.6281,3.6007,3.6104,3.6436,3.6541,3.6562,3.6451,3.5612,3.5328,3.5199,3.4389,3.422,3.4337,3.4337,3.4494,3.4653,3.4556,3.4516,3.4435,3.4117,3.4034,3.394,3.3601,3.3605,3.3709,3.3829,3.4216,3.4541,3.4541,3.4904,3.5316,3.5717,3.6175,3.65,3.65,3.6827,3.6827,3.6023,3.6597,3.696,3.6557,3.7559,3.8132,3.7731,3.8744,3.9508,3.9699,4.1122,0.0,4.3436,4.4298,4.4767,4.4842,4.5353,4.5676,4.5742,4.5786,4.5807,4.5807,4.5807,4.5807,4.5807,4.5807,4.5805,4.5807,4.5765,4.5719,4.5701,4.5676,4.5631,4.5594,4.5594,4.5594,4.571,4.6586,4.6904,4.7058,4.3515,4.3515,4.3515,4.3515,4.3515,4.3515,4.3515,4.3515,4.3515,4.3515,4.3515,4.3515,4.3515,4.2892,4.2121,4.1168,4.1735,4.1735,4.0802,4.0728,4.0377,3.957,3.9643,3.9019,3.7529,3.7492,3.7492,3.7492,3.7492,3.786,3.8487,3.7,3.6229,3.6046,3.4527,3.4228,3.4834,3.4318,3.4976,3.6353,3.5829,3.6116,3.6822,3.6876,3.6893,3.6781,3.5993,3.5705,3.5585,3.4767,3.4518,3.4551,3.4551,3.4743,3.4955,3.4955,3.4774,3.4663,3.4889,3.4955,3.4992,3.5168,3.5209,3.5209,3.5209,3.5209,3.5209,3.5209,3.5297,3.5621,3.6366,3.671,3.6882,3.6882,3.6828,3.6552,3.587,3.6466,3.701,3.7073,3.8544,3.9279,3.8534,4.031,4.1017,3.9852,4.2288,4.3675,4.3291,4.4671,4.5513,4.5612,4.5668,4.5727,4.5807,4.5807,4.5807,4.5807,4.5807,4.5807,4.5807,4.58,4.5798,4.5773,4.5715,4.5695,4.5684,4.5631,4.5594,4.5614,4.5748,4.5806,4.5922,4.6913,4.7278,4.7509,4.3515,4.3515,4.3515,4.3515,4.3515,4.3515,4.3515,4.3515,4.3515,4.3515,4.3515,4.3515,4.3515,4.3404,4.2708,4.1224,4.1205,4.0655,3.9184,3.9074,3.8707,3.7915,3.8524,3.845,3.7529,3.7492,3.7492,3.7492,3.7492,3.7566,3.7676,3.6725,3.5917,3.5183,3.4461,3.421,3.4371,3.5109,3.5941,3.6789,3.6694,3.7143,3.7792,3.7154,3.6897,3.6785,3.5993,3.5693,3.5581,3.4768,3.4599,3.4763,3.4831,3.4982,3.5149,3.5149,3.5124,3.5088,3.5141,3.5149,3.5149,3.5201,3.5209,3.5209,3.5209,3.5209,3.5209,3.5209,3.5793,3.6347,3.6481,3.7665,3.861,3.861,3.8601,3.8544,3.8438,3.9155,3.97,3.9709,4.1189,4.2163,4.2011,4.1705,4.1972,4.3147,4.312,4.3646,4.494,4.543,4.5657,4.5684,4.57,4.5727,4.5807,4.5807,4.5807,4.5807,4.5807,4.5807,4.5807,4.5791,4.5773,4.5715,4.5687,4.5665,4.5603,4.5594,4.5594,4.5671,4.6413,4.6701,4.6894,4.8432,4.9009,4.9144,4.3515,4.3515,4.3548,4.3732,4.3781,4.3781,4.3781,4.3484,4.3234,4.3081,4.2788,4.2569,4.2569,4.2168,4.16,4.0841,4.0378,3.9818,3.9073,3.8387,3.7851,3.7511,3.7374,3.6997,3.6325,3.6213,3.627,3.647,3.6805,3.7008,3.7099,3.6303,3.571,3.5303,3.4653,3.434,3.4335,3.4843,3.5514,3.6255,3.6382,3.6923,3.7649,3.7335,3.7257,3.7175,3.6372,3.608,3.5947,3.5154,3.4936,3.5018,3.5054,3.5124,3.5209,3.5209,3.5209,3.5209,3.5209,3.5209,3.5209,3.5209,3.5209,3.5316,3.5793,3.5545,3.5458,3.6356,3.6519,3.692,3.8295,3.9174,3.9852,4.0272,4.0311,4.0301,4.0348,4.0654,4.0912,4.0941,4.2049,4.245,4.1552,4.1915,4.2335,4.2641,4.3235,4.3952,4.4755,4.5365,4.5723,4.5749,4.5324,4.5126,4.5142,4.5142,4.5142,4.5162,4.5587,4.5793,4.5791,4.5795,4.575,4.5687,4.5709,4.5657,4.5594,4.5594,4.5594,4.5633,4.6028,4.649,4.7038,4.8259,4.899,4.951,4.3695,4.3695,4.3777,4.4045,4.4075,4.4075,4.4075,4.3689,4.3334,4.3122,4.2515,4.2108,4.2108,4.131,4.0695,4.0509,3.9938,3.9504,3.9317,3.8002,3.7272,3.7325,3.6476,3.5869,3.5638,3.5494,3.556,3.5893,3.6545,3.6861,3.6796,3.6161,3.5781,3.5569,3.4873,3.4531,3.4487,3.462,3.5112,3.5848,3.579,3.6287,3.7064,3.6986,3.6996,3.6957,3.6345,3.6106,3.602,3.5405,3.5185,3.5176,3.5204,3.5185,3.5176,3.5204,3.5201,3.5209,3.5209,3.5209,3.5209,3.5209,3.5209,3.543,3.629,3.5984,3.5916,3.7406,3.7368,3.7684,3.9632,4.0148,4.0559,4.1361,4.1456,4.1437,4.1495,4.179,4.1952,4.182,4.2737,4.2889,4.159,4.2642,4.312,4.2451,4.3741,4.4561,4.4619,4.5144,4.5471,4.551,4.5104,4.4891,4.4891,4.4891,4.4891,4.4891,4.549,4.5805,4.5807,4.5781,4.5754,4.5701,4.5693,4.5648,4.5594,4.5594,4.5594,4.5633,4.6037,4.6586,4.7288,4.8336,4.9125,4.9798,4.4327,4.4327,4.4327,4.4374,4.4374,4.4374,4.4374,4.4332,4.4308,4.428,4.3531,4.3002,4.3002,4.217,4.1311,4.0578,4.0448,4.0106,3.9354,3.7714,3.6782,3.6845,3.6068,3.5969,3.6665,3.6677,3.6677,3.6708,3.7573,3.7592,3.6802,3.6746,3.631,3.5579,3.502,3.4743,3.4703,3.5011,3.5588,3.6188,3.5466,3.5656,3.6293,3.5633,3.5363,3.5363,3.5314,3.5295,3.5276,3.5219,3.5155,3.511,3.5172,3.5155,3.511,3.5172,3.5196,3.5209,3.5209,3.5209,3.5209,3.5209,3.5209,3.543,3.629,3.6443,3.6653,3.7521,3.8304,3.8877,3.9069,3.9747,4.0559,4.1361,4.1495,4.1495,4.1495,4.2822,4.3529,4.2794,4.4131,4.5078,4.4934,4.5102,4.518,4.5122,4.5419,4.5595,4.5603,4.5015,4.469,4.469,4.5355,4.571,4.571,4.571,4.571,4.571,4.5768,4.5805,4.5807,4.575,4.5703,4.5701,4.564,4.5594,4.5594,4.5594,4.5594,4.5748,4.7317,4.7971,4.8221,4.9894,5.0558,5.0616,4.4397,4.4397,4.4452,4.4612,4.465,4.465,4.465,4.4371,4.4085,4.3926,4.33,4.2635,4.2108,4.2167,4.1917,4.1057,4.1,4.088,4.0559,3.8909,3.7141,3.5328,3.5464,3.5808,3.6224,3.7137,3.7466,3.7181,3.7922,3.7904,3.7181,3.7214,3.7066,3.6766,3.6653,3.6255,3.5695,3.5872,3.5794,3.5522,3.519,3.5247,3.5522,3.5208,3.5092,3.5147,3.5191,3.5164,3.5147,3.5191,3.5155,3.5092,3.5129,3.5129,3.512,3.5138,3.5127,3.5153,3.5198,3.5204,3.5209,3.5209,3.5209,3.5572,3.6929,3.6863,3.7035,3.8916,3.9584,3.9966,4.0463,4.1266,4.1953,4.2259,4.2316,4.2316,4.2316,4.2851,4.3138,4.2832,4.3886,4.4403,4.3848,4.4364,4.4514,4.4004,4.4583,4.4955,4.4955,4.5204,4.5336,4.5336,4.5652,4.5548,4.5065,4.5065,4.5065,4.5065,4.5548,4.5771,4.575,4.5715,4.5687,4.564,4.5603,4.5913,4.6355,4.5825,4.6201,4.7163,4.7298,4.799,4.899,4.9644,5.025,5.0712,4.4682,4.4682,4.4733,4.4922,4.4957,4.4957,4.4957,4.4636,4.4336,4.4163,4.3518,4.2741,4.1869,4.2028,4.1825,4.0943,4.0856,4.0856,4.0856,3.9507,3.7551,3.5008,3.5199,3.5558,3.5977,3.6724,3.7081,3.7021,3.7473,3.7597,3.7401,3.745,3.7631,3.7898,3.7738,3.7318,3.6719,3.6784,3.6451,3.5873,3.5826,3.5845,3.5873,3.5864,3.5873,3.5928,3.5971,3.5971,3.5926,3.598,3.5755,3.553,3.5815,3.5919,3.5919,3.5919,3.5909,3.5926,3.598,3.5987,3.5916,3.566,3.5802,3.6356,3.7789,3.7674,3.7933,4.0215,4.0692,4.0941,4.1762,4.2393,4.2889,4.3138,4.2966,4.2899,4.3206,4.3244,4.3254,4.3273,4.4087,4.4392,4.3806,4.4355,4.4501,4.397,4.4523,4.48,4.4542,4.5334,4.5691,4.5432,4.5671,4.5529,4.4987,4.4987,4.4987,4.4987,4.5805,4.6174,4.6124,4.6359,4.6452,4.6394,4.6394,4.6721,4.7221,4.6355,4.6836,4.8048,4.749,4.8144,4.9433,4.9702,5.0192,5.0712,4.5307,4.5307,4.5307,4.5307,4.5307,4.5307,4.5307,4.5307,4.5307,4.5307,4.4491,4.3579,4.2696,4.1844,4.0943,4.0006,3.9938,3.9938,3.9919,3.9153,3.7969,3.6301,3.5382,3.5325,3.6206,3.5363,3.5344,3.6225,3.6206,3.6623,3.742,3.742,3.7924,3.8791,3.7975,3.7633,3.7623,3.767,3.7661,3.7604,3.7604,3.7604,3.7604,3.767,3.7688,3.7697,3.7703,3.7693,3.7693,3.7693,3.7078,3.6472,3.7403,3.7688,3.7688,3.7688,3.7705,3.7693,3.7693,3.7693,3.7521,3.671,3.712,3.7922,3.882,3.9011,3.9489,4.1151,4.1514,4.1781,4.2641,4.2813,4.308,4.3854,4.3329,4.3139,4.4058,4.4192,4.4229,4.4288,4.5075,4.5594,4.5594,4.566,4.5708,4.5708,4.5764,4.5452,4.4652,4.5374,4.5452,4.4652,4.5394,4.5807,4.5826,4.5807,4.5807,4.5826,4.6684,4.7063,4.7042,4.7848,4.817,4.8105,4.8105,4.8105,4.8048,4.7231,4.7394,4.8125,4.8105,4.8644,4.951,5.0385,5.0712,5.0712,4.5307,4.5307,4.5307,4.5307,4.5307,4.5307,4.5307,4.5307,4.5307,4.5307,4.5057,4.4529,4.3618,4.3857,4.3743,4.2783,4.2696,4.2189,4.0962,3.9507,3.8481,3.7988,3.7704,3.7685,3.795,3.7704,3.7685,3.795,3.7344,3.7476,3.831,3.8354,3.8869,3.9716,3.9557,3.9156,3.8593,3.8555,3.8194,3.767,3.7614,3.7604,3.7604,3.7623,3.7623,3.7651,3.7678,3.7669,3.7651,3.7678,3.7479,3.7262,3.7537,3.7623,3.7623,3.7623,3.7632,3.7632,3.7678,3.8107,3.8345,3.7531,3.7514,3.8088,3.9575,3.9881,4.033,4.2058,4.287,4.3157,4.287,4.3271,4.3529,4.3214,4.2986,4.2976,4.3253,4.3853,4.429,4.4297,4.5106,4.5668,4.5668,4.5727,4.5771,4.5771,4.5793,4.5962,4.6322,4.6573,4.6883,4.725,4.6902,4.6999,4.7618,4.6406,4.6116,4.6709,4.6974,4.7399,4.7918,4.8118,4.817,4.8105,4.8105,4.8452,4.8952,4.8086,4.8606,4.9856,4.924,4.9529,5.0346,5.0596,5.0712,5.0712,4.5307,4.5307,4.5307,4.5307,4.5307,4.5307,4.5307,4.5307,4.5297,4.5256,4.5265,4.49,4.4007,4.441,4.4382,4.3474,4.3071,4.2419,4.1374,3.9962,3.9172,3.9172,3.9172,3.8717,3.7723,3.8047,3.8076,3.7753,3.7565,3.7897,3.8743,3.8784,3.908,3.9603,4.0053,3.9786,3.8984,3.9318,3.9175,3.8727,3.868,3.8661,3.8661,3.8661,3.8661,3.867,3.8717,3.8708,3.867,3.8717,3.8708,3.8604,3.8223,3.8366,3.8661,3.8661,3.8899,3.9071,3.8775,3.9547,4.0234,3.9375,3.9185,3.949,4.053,4.1007,4.1609,4.2994,4.3663,4.3949,4.3806,4.4188,4.4352,4.3905,4.3599,4.3558,4.3944,4.4226,4.4498,4.4847,4.5395,4.5734,4.5734,4.5778,4.5942,4.629,4.6631,4.7057,4.7579,4.7584,4.7661,4.7889,4.768,4.7673,4.7878,4.7151,4.7054,4.7576,4.7901,4.8296,4.878,4.9055,4.9172,4.9125,4.9125,4.9433,4.9856,4.8971,4.9433,5.0616,4.974,4.9933,5.0712,5.0712,5.0712,5.0712,4.5307,4.5307,4.5307,4.5307,4.5307,4.5307,4.5307,4.5307,4.5286,4.5213,4.5203,4.4914,4.4108,4.4021,4.3716,4.2917,4.1969,4.1412,4.1402,4.0463,3.99,3.99,3.99,3.8801,3.6472,3.7194,3.7261,3.6521,3.7243,3.8014,3.8794,3.8804,3.8842,3.8956,3.9824,3.9767,3.908,3.9948,4.0301,4.0301,4.0301,4.0301,4.0301,4.0301,4.0301,4.0301,4.0301,4.0301,4.0301,4.0301,4.0301,4.0167,3.9385,3.9719,4.0416,4.0492,4.1036,4.1428,4.0654,4.1589,4.2593,4.1741,4.1628,4.1724,4.1724,4.2335,4.3128,4.3949,4.4121,4.435,4.5144,4.5288,4.5329,4.539,4.4806,4.4648,4.5568,4.5079,4.4916,4.5703,4.5807,4.5807,4.5807,4.5865,4.6283,4.7134,4.7947,4.843,4.85,4.845,4.8114,4.7456,4.8064,4.8099,4.7453,4.8071,4.84,4.8419,4.9146,4.9545,4.9642,5.0365,5.0712,5.0712,5.0712,5.0712,5.0635,4.9837,4.9971,5.0616,4.9817,4.999,5.0712,5.0712,5.0712,5.0712,4.5307,4.5307,4.5307,4.5307,4.5307,4.5307,4.5307,4.5307,4.5297,4.5286,4.5286,4.5199,4.5017,4.4998,4.4921,4.473,4.3253,4.2292,4.2237,4.0767,3.99,3.99,3.99,3.9351,3.8178,3.834,3.8379,3.8249,3.7756,3.7956,3.8794,3.8852,3.9233,3.9919,4.0158,4.0177,4.0005,4.0205,4.0301,4.0301,4.0301,4.0301,4.0301,4.0301,4.0301,4.0301,4.0301,4.0301,4.0301,4.0301,4.0301,4.0377,4.0798,4.1084,4.1361,4.2068,4.2374,4.2488,4.2287,4.2517,4.2756,4.2545,4.2975,4.3452,4.3452,4.3566,4.3908,4.4828,4.501,4.5067,4.5269,4.533,4.5381,4.54,4.5385,4.5448,4.5661,4.5607,4.5592,4.578,4.5807,4.5807,4.5807,4.6426,4.7166,4.7979,4.8261,4.8651,4.9236,4.9299,4.9539,4.9978,4.9558,4.9567,5.0069,4.9525,4.9238,4.9238,4.9418,4.9834,5.0451,5.0616,5.0712,5.0712,5.0712,5.0712,5.0693,5.05,5.0539,5.0673,5.05,5.0539,5.0712,5.0712,5.0712,5.0712,4.5307,4.5307,4.5307,4.5307,4.5307,4.5307,4.5307,4.5307,4.5297,4.5265,4.5213,4.5203,4.5203,4.5203,4.5213,4.5254,4.3996,4.3219,4.3167,4.1925,4.1,4.0599,4.0569,4.016,3.9286,3.9267,3.9119,3.8812,3.8794,3.9042,3.9509,3.9557,3.9576,3.9595,4.0072,4.0272,4.0253,4.0291,4.0511,4.0845,4.0454,4.0301,4.0301,4.0301,4.0301,4.0301,4.0301,4.0301,4.0301,4.0301,4.0301,4.0435,4.1246,4.1495,4.1667,4.2545,4.308,4.3281,4.2859,4.3357,4.3902,4.3432,4.3977,4.4513,4.4083,4.4302,4.4711,4.5201,4.5307,4.5307,4.5307,4.5351,4.5419,4.5485,4.5618,4.5723,4.5742,4.5778,4.5955,4.637,4.6428,4.6564,4.6958,4.7402,4.8033,4.8903,4.9366,4.9764,5.0157,5.0204,5.0243,5.0262,5.0207,5.019,5.0229,5.0119,5.0064,5.0065,5.0066,5.0279,5.0702,5.0702,5.0712,5.0712,5.0712,5.0712,5.0712,5.0712,5.0712,5.0712,5.0712,5.0712,5.0712,5.0712,5.0712,5.0712,4.5307,4.5307,4.5307,4.5307,4.5307,4.5307,4.5307,4.5307,4.5286,4.5203,4.5159,4.5125,4.5125,4.5125,4.5159,4.5192,4.4397,4.3907,4.3896,4.3077,4.2208,4.1336,4.1288,4.0856,3.9919,3.99,3.9604,3.9023,3.9804,4.0215,4.0301,4.0301,3.9881,3.9166,3.9948,4.0339,4.0425,4.033,4.0769,4.1418,4.0616,4.0377,4.0511,4.0511,4.0511,4.0511,4.0511,4.0511,4.0511,4.0511,4.0587,4.0874,4.1667,4.1934,4.2106,4.2966,4.3711,4.4064,4.3345,4.4206,4.5105,4.4327,4.4711,4.5105,4.4399,4.4781,4.5307,4.5307,4.5307,4.5307,4.5309,4.5495,4.5677,4.5815,4.6023,4.6179,4.6238,4.6225,4.6494,4.7229,4.731,4.7569,4.8242,4.8427,4.8833,4.9606,5.0298,5.0676,5.0653,5.0676,5.0367,4.9695,5.0411,5.0445,4.9714,5.0373,5.0702,5.0702,5.0693,5.0712,5.0712,5.0712,5.0712,5.0712,5.0712,5.0712,5.0712,5.0712,5.0712,5.0712,5.0712,5.0712,5.0712,5.0712,5.0712,5.0712,4.5307,4.5307,4.5307,4.5307,4.5307,4.5307,4.5307,4.5307,4.5286,4.5203,4.5192,4.5181,4.5181,4.5254,4.5246,4.5203,4.441,4.3912,4.3896,4.3077,4.2208,4.1336,4.1288,4.0856,3.9919,3.99,3.9916,3.9916,4.004,4.0166,4.0301,4.0301,4.0225,4.012,4.0244,4.0683,4.1275,4.0587,4.0769,4.1418,4.0616,4.0731,4.1342,4.1342,4.1342,4.1342,4.1342,4.1342,4.1342,4.1342,4.1839,4.2603,4.3414,4.3663,4.3834,4.4704,4.5029,4.5105,4.4991,4.5125,4.5258,4.5144,4.5201,4.5269,4.5144,4.522,4.5307,4.5307,4.5307,4.5309,4.539,4.6061,4.6642,4.6794,4.7492,4.8036,4.8043,4.7994,4.801,4.8118,4.8136,4.8202,4.8377,4.8952,4.9384,4.9528,4.9685,4.9746,4.9688,4.9738,4.9708,4.9534,5.0359,5.0717,5.0537,5.0643,5.0692,5.0711,5.0712,5.0712,5.0712,5.0712,5.0712,5.0712,5.0712,5.0712,5.0712,5.0712,5.0712,5.0712,5.0712,5.0712,5.0712,5.0712,5.0712,5.0712,4.5307,4.5307,4.5307,4.5307,4.5307,4.5307,4.5307,4.5307,4.5297,4.5265,4.5213,4.5181,4.5148,4.5136,4.5136,4.5148,4.4838,4.4617,4.4581,4.4274,4.3694,4.2783,4.2294,4.1594,4.0694,4.0168,3.9943,4.0046,4.0077,4.0147,4.0244,4.0272,4.0301,4.0301,4.0301,4.075,4.1476,4.1113,4.1457,4.2202,4.1839,4.1915,4.2221,4.2221,4.2221,4.2221,4.2221,4.2221,4.2221,4.2221,4.2488,4.2947,4.3739,4.4006,4.4159,4.5029,4.5307,4.5307,4.5307,4.5307,4.5307,4.5307,4.5307,4.5307,4.5307,4.5307,4.5307,4.5307,4.5307,4.5472,4.6023,4.6493,4.6996,4.7621,4.8106,4.8384,4.8342,4.8342,4.8516,4.8976,4.8979,4.899,4.9069,4.8916,4.8861,4.8871,4.8871,4.9095,4.9581,4.9641,4.9845,5.0261,5.0628,5.0775,5.0701,5.0692,5.0702,5.0721,5.1154,5.1125,5.0712,5.0712,5.0712,5.0712,5.0712,5.0712,5.0712,5.0712,5.0712,5.0712,5.0712,5.0712,5.0712,5.0712,5.0712,5.0712]}]]